<?xml version="1.0" encoding="UTF-8" standalone="no" ?>
<gpx xmlns="http://www.topografix.com/GPX/1/1" xmlns:xsi="http://www.w3.org/2001/XMLSchema-instance" xsi:schemaLocation="http://www.topografix.com/GPX/1/1 http://www.topografix.com/GPX/1/1/gpx.xsd" version="1.1" creator="VisuGPX - https://www.visugpx.com">
  <metadata>
    <name>Trois pâturages</name>
    <desc><![CDATA[Les trois pâturages (04)]]></desc>
  </metadata>
  <trk>
    <name><![CDATA[3 Pâturages]]></name>
    <trkseg>
      <trkpt lat="44.23196" lon="6.46599">
        <ele>1152.55078125</ele>
        <time>2019-06-12T11:51:52.000Z</time>
      </trkpt>
      <trkpt lat="44.23196" lon="6.46599">
        <ele>1152.55078125</ele>
        <time>2019-06-12T11:51:52.000Z</time>
      </trkpt>
      <trkpt lat="44.23198" lon="6.46599">
        <ele>1152.45703125</ele>
        <time>2019-06-12T11:51:52.304Z</time>
      </trkpt>
      <trkpt lat="44.23196" lon="6.46613">
        <ele>1155.63671875</ele>
        <time>2019-06-12T11:51:54.297Z</time>
      </trkpt>
      <trkpt lat="44.23186" lon="6.46622">
        <ele>1158.35546875</ele>
        <time>2019-06-12T11:51:56.661Z</time>
      </trkpt>
      <trkpt lat="44.23174" lon="6.46626">
        <ele>1159.66015625</ele>
        <time>2019-06-12T11:51:59.176Z</time>
      </trkpt>
      <trkpt lat="44.23165" lon="6.4663">
        <ele>1160.95703125</ele>
        <time>2019-06-12T11:52:01.094Z</time>
      </trkpt>
      <trkpt lat="44.23153" lon="6.46635">
        <ele>1162.33203125</ele>
        <time>2019-06-12T11:52:03.612Z</time>
      </trkpt>
      <trkpt lat="44.23144" lon="6.46639">
        <ele>1163.3359375</ele>
        <time>2019-06-12T11:52:05.558Z</time>
      </trkpt>
      <trkpt lat="44.23135" lon="6.46646">
        <ele>1164.5546875</ele>
        <time>2019-06-12T11:52:07.632Z</time>
      </trkpt>
      <trkpt lat="44.23127" lon="6.4665">
        <ele>1164.3828125</ele>
        <time>2019-06-12T11:52:09.321Z</time>
      </trkpt>
      <trkpt lat="44.23118" lon="6.46659">
        <ele>1164.95703125</ele>
        <time>2019-06-12T11:52:11.583Z</time>
      </trkpt>
      <trkpt lat="44.23112" lon="6.46663">
        <ele>1164.8203125</ele>
        <time>2019-06-12T11:52:12.909Z</time>
      </trkpt>
      <trkpt lat="44.2311" lon="6.46669">
        <ele>1165.34765625</ele>
        <time>2019-06-12T11:52:13.820Z</time>
      </trkpt>
      <trkpt lat="44.23108" lon="6.46682">
        <ele>1166.578125</ele>
        <time>2019-06-12T11:52:15.723Z</time>
      </trkpt>
      <trkpt lat="44.23108" lon="6.46696">
        <ele>1168.1640625</ele>
        <time>2019-06-12T11:52:17.678Z</time>
      </trkpt>
      <trkpt lat="44.23108" lon="6.46709">
        <ele>1169.6015625</ele>
        <time>2019-06-12T11:52:19.503Z</time>
      </trkpt>
      <trkpt lat="44.23108" lon="6.46723">
        <ele>1171.109375</ele>
        <time>2019-06-12T11:52:21.529Z</time>
      </trkpt>
      <trkpt lat="44.23108" lon="6.46736">
        <ele>1172.43359375</ele>
        <time>2019-06-12T11:52:23.419Z</time>
      </trkpt>
      <trkpt lat="44.23107" lon="6.46747">
        <ele>1173.29296875</ele>
        <time>2019-06-12T11:52:25.090Z</time>
      </trkpt>
      <trkpt lat="44.23107" lon="6.4676">
        <ele>1174.40625</ele>
        <time>2019-06-12T11:52:26.819Z</time>
      </trkpt>
      <trkpt lat="44.23107" lon="6.46773">
        <ele>1175.76953125</ele>
        <time>2019-06-12T11:52:28.780Z</time>
      </trkpt>
      <trkpt lat="44.23108" lon="6.46787">
        <ele>1178.0234375</ele>
        <time>2019-06-12T11:52:30.772Z</time>
      </trkpt>
      <trkpt lat="44.23108" lon="6.46802">
        <ele>1180.33984375</ele>
        <time>2019-06-12T11:52:32.858Z</time>
      </trkpt>
      <trkpt lat="44.23106" lon="6.46816">
        <ele>1181.68359375</ele>
        <time>2019-06-12T11:52:34.969Z</time>
      </trkpt>
      <trkpt lat="44.23106" lon="6.4683">
        <ele>1184.0078125</ele>
        <time>2019-06-12T11:52:37.071Z</time>
      </trkpt>
      <trkpt lat="44.23111" lon="6.46841">
        <ele>1187.37890625</ele>
        <time>2019-06-12T11:52:38.842Z</time>
      </trkpt>
      <trkpt lat="44.23111" lon="6.46855">
        <ele>1190.19921875</ele>
        <time>2019-06-12T11:52:40.892Z</time>
      </trkpt>
      <trkpt lat="44.23112" lon="6.46869">
        <ele>1193.0234375</ele>
        <time>2019-06-12T11:52:42.850Z</time>
      </trkpt>
      <trkpt lat="44.23107" lon="6.46885">
        <ele>1194.48828125</ele>
        <time>2019-06-12T11:52:45.381Z</time>
      </trkpt>
      <trkpt lat="44.23103" lon="6.46898">
        <ele>1196.05078125</ele>
        <time>2019-06-12T11:52:47.472Z</time>
      </trkpt>
      <trkpt lat="44.23093" lon="6.46907">
        <ele>1194.37109375</ele>
        <time>2019-06-12T11:52:49.940Z</time>
      </trkpt>
      <trkpt lat="44.23081" lon="6.46912">
        <ele>1191.6875</ele>
        <time>2019-06-12T11:52:52.343Z</time>
      </trkpt>
      <trkpt lat="44.23071" lon="6.46916">
        <ele>1189.46875</ele>
        <time>2019-06-12T11:52:54.448Z</time>
      </trkpt>
      <trkpt lat="44.23062" lon="6.4692">
        <ele>1187.8125</ele>
        <time>2019-06-12T11:52:56.439Z</time>
      </trkpt>
      <trkpt lat="44.23053" lon="6.46928">
        <ele>1187.0078125</ele>
        <time>2019-06-12T11:52:58.458Z</time>
      </trkpt>
      <trkpt lat="44.23044" lon="6.46936">
        <ele>1186.12890625</ele>
        <time>2019-06-12T11:53:00.625Z</time>
      </trkpt>
      <trkpt lat="44.23033" lon="6.46946">
        <ele>1185.10546875</ele>
        <time>2019-06-12T11:53:03.240Z</time>
      </trkpt>
      <trkpt lat="44.23027" lon="6.46959">
        <ele>1186.05078125</ele>
        <time>2019-06-12T11:53:05.463Z</time>
      </trkpt>
      <trkpt lat="44.23022" lon="6.46972">
        <ele>1187.5546875</ele>
        <time>2019-06-12T11:53:07.590Z</time>
      </trkpt>
      <trkpt lat="44.23019" lon="6.46985">
        <ele>1189.26953125</ele>
        <time>2019-06-12T11:53:09.464Z</time>
      </trkpt>
      <trkpt lat="44.23016" lon="6.46997">
        <ele>1190.97265625</ele>
        <time>2019-06-12T11:53:11.419Z</time>
      </trkpt>
      <trkpt lat="44.2301" lon="6.4701">
        <ele>1191.94140625</ele>
        <time>2019-06-12T11:53:13.583Z</time>
      </trkpt>
      <trkpt lat="44.23004" lon="6.47022">
        <ele>1192.8203125</ele>
        <time>2019-06-12T11:53:15.564Z</time>
      </trkpt>
      <trkpt lat="44.23001" lon="6.47035">
        <ele>1194.50390625</ele>
        <time>2019-06-12T11:53:17.561Z</time>
      </trkpt>
      <trkpt lat="44.22995" lon="6.47048">
        <ele>1195.59765625</ele>
        <time>2019-06-12T11:53:19.764Z</time>
      </trkpt>
      <trkpt lat="44.22989" lon="6.4706">
        <ele>1195.8984375</ele>
        <time>2019-06-12T11:53:21.906Z</time>
      </trkpt>
      <trkpt lat="44.22994" lon="6.47065">
        <ele>1198.25</ele>
        <time>2019-06-12T11:53:23.153Z</time>
      </trkpt>
      <trkpt lat="44.23" lon="6.47055">
        <ele>1198.46484375</ele>
        <time>2019-06-12T11:53:25.082Z</time>
      </trkpt>
      <trkpt lat="44.23007" lon="6.47046">
        <ele>1198.921875</ele>
        <time>2019-06-12T11:53:26.978Z</time>
      </trkpt>
      <trkpt lat="44.23014" lon="6.47034">
        <ele>1198.421875</ele>
        <time>2019-06-12T11:53:29.063Z</time>
      </trkpt>
      <trkpt lat="44.23022" lon="6.47024">
        <ele>1198.53515625</ele>
        <time>2019-06-12T11:53:31.249Z</time>
      </trkpt>
      <trkpt lat="44.2303" lon="6.47011">
        <ele>1198.3515625</ele>
        <time>2019-06-12T11:53:33.779Z</time>
      </trkpt>
      <trkpt lat="44.23038" lon="6.47004">
        <ele>1199.1015625</ele>
        <time>2019-06-12T11:53:35.659Z</time>
      </trkpt>
      <trkpt lat="44.23047" lon="6.46997">
        <ele>1199.6328125</ele>
        <time>2019-06-12T11:53:37.624Z</time>
      </trkpt>
      <trkpt lat="44.23054" lon="6.46987">
        <ele>1199.43359375</ele>
        <time>2019-06-12T11:53:39.655Z</time>
      </trkpt>
      <trkpt lat="44.23062" lon="6.46981">
        <ele>1200.61328125</ele>
        <time>2019-06-12T11:53:41.481Z</time>
      </trkpt>
      <trkpt lat="44.23067" lon="6.46995">
        <ele>1204.83203125</ele>
        <time>2019-06-12T11:53:43.729Z</time>
      </trkpt>
      <trkpt lat="44.23063" lon="6.4701">
        <ele>1207.12890625</ele>
        <time>2019-06-12T11:53:46.007Z</time>
      </trkpt>
      <trkpt lat="44.23057" lon="6.47023">
        <ele>1208.3046875</ele>
        <time>2019-06-12T11:53:48.192Z</time>
      </trkpt>
      <trkpt lat="44.23051" lon="6.47034">
        <ele>1209.33203125</ele>
        <time>2019-06-12T11:53:50.168Z</time>
      </trkpt>
      <trkpt lat="44.23045" lon="6.47047">
        <ele>1210.45703125</ele>
        <time>2019-06-12T11:53:52.290Z</time>
      </trkpt>
      <trkpt lat="44.23039" lon="6.47059">
        <ele>1210.67578125</ele>
        <time>2019-06-12T11:53:54.548Z</time>
      </trkpt>
      <trkpt lat="44.23035" lon="6.47072">
        <ele>1211.48828125</ele>
        <time>2019-06-12T11:53:56.590Z</time>
      </trkpt>
      <trkpt lat="44.2303" lon="6.47086">
        <ele>1212.06640625</ele>
        <time>2019-06-12T11:53:58.700Z</time>
      </trkpt>
      <trkpt lat="44.23028" lon="6.471">
        <ele>1213.27734375</ele>
        <time>2019-06-12T11:54:00.829Z</time>
      </trkpt>
      <trkpt lat="44.23022" lon="6.47113">
        <ele>1213.24609375</ele>
        <time>2019-06-12T11:54:02.998Z</time>
      </trkpt>
      <trkpt lat="44.23017" lon="6.47127">
        <ele>1213.3515625</ele>
        <time>2019-06-12T11:54:05.173Z</time>
      </trkpt>
      <trkpt lat="44.23013" lon="6.47138">
        <ele>1213.0859375</ele>
        <time>2019-06-12T11:54:07.066Z</time>
      </trkpt>
      <trkpt lat="44.23013" lon="6.47153">
        <ele>1214.609375</ele>
        <time>2019-06-12T11:54:09.198Z</time>
      </trkpt>
      <trkpt lat="44.23015" lon="6.47165">
        <ele>1216.4921875</ele>
        <time>2019-06-12T11:54:10.990Z</time>
      </trkpt>
      <trkpt lat="44.2302" lon="6.47176">
        <ele>1219.1875</ele>
        <time>2019-06-12T11:54:12.732Z</time>
      </trkpt>
      <trkpt lat="44.23024" lon="6.47187">
        <ele>1222.19140625</ele>
        <time>2019-06-12T11:54:14.616Z</time>
      </trkpt>
      <trkpt lat="44.2303" lon="6.47198">
        <ele>1225.91796875</ele>
        <time>2019-06-12T11:54:16.590Z</time>
      </trkpt>
      <trkpt lat="44.23038" lon="6.47195">
        <ele>1229.2421875</ele>
        <time>2019-06-12T11:54:18.311Z</time>
      </trkpt>
      <trkpt lat="44.23043" lon="6.47183">
        <ele>1229.71875</ele>
        <time>2019-06-12T11:54:20.272Z</time>
      </trkpt>
      <trkpt lat="44.23049" lon="6.47173">
        <ele>1230.79296875</ele>
        <time>2019-06-12T11:54:22.148Z</time>
      </trkpt>
      <trkpt lat="44.23059" lon="6.47165">
        <ele>1233.6328125</ele>
        <time>2019-06-12T11:54:24.450Z</time>
      </trkpt>
      <trkpt lat="44.23067" lon="6.47157">
        <ele>1235.68359375</ele>
        <time>2019-06-12T11:54:26.293Z</time>
      </trkpt>
      <trkpt lat="44.23074" lon="6.47149">
        <ele>1237.1015625</ele>
        <time>2019-06-12T11:54:28.155Z</time>
      </trkpt>
      <trkpt lat="44.23079" lon="6.47137">
        <ele>1236.91015625</ele>
        <time>2019-06-12T11:54:30.151Z</time>
      </trkpt>
      <trkpt lat="44.23085" lon="6.47126">
        <ele>1237.66796875</ele>
        <time>2019-06-12T11:54:32.230Z</time>
      </trkpt>
      <trkpt lat="44.23094" lon="6.47113">
        <ele>1239.05078125</ele>
        <time>2019-06-12T11:54:34.772Z</time>
      </trkpt>
      <trkpt lat="44.23103" lon="6.47101">
        <ele>1240.50390625</ele>
        <time>2019-06-12T11:54:37.160Z</time>
      </trkpt>
      <trkpt lat="44.23111" lon="6.47088">
        <ele>1240.734375</ele>
        <time>2019-06-12T11:54:39.677Z</time>
      </trkpt>
      <trkpt lat="44.2312" lon="6.4708">
        <ele>1242.28125</ele>
        <time>2019-06-12T11:54:41.796Z</time>
      </trkpt>
      <trkpt lat="44.2313" lon="6.47072">
        <ele>1244.05859375</ele>
        <time>2019-06-12T11:54:44.122Z</time>
      </trkpt>
      <trkpt lat="44.2314" lon="6.47066">
        <ele>1246.21484375</ele>
        <time>2019-06-12T11:54:46.241Z</time>
      </trkpt>
      <trkpt lat="44.23149" lon="6.47058">
        <ele>1247.7734375</ele>
        <time>2019-06-12T11:54:48.502Z</time>
      </trkpt>
      <trkpt lat="44.23158" lon="6.47049">
        <ele>1249.03515625</ele>
        <time>2019-06-12T11:54:50.580Z</time>
      </trkpt>
      <trkpt lat="44.23166" lon="6.4704">
        <ele>1250.20703125</ele>
        <time>2019-06-12T11:54:52.718Z</time>
      </trkpt>
      <trkpt lat="44.23174" lon="6.47029">
        <ele>1250.16015625</ele>
        <time>2019-06-12T11:54:54.961Z</time>
      </trkpt>
      <trkpt lat="44.23178" lon="6.47018">
        <ele>1248.75390625</ele>
        <time>2019-06-12T11:54:56.676Z</time>
      </trkpt>
      <trkpt lat="44.23179" lon="6.47007">
        <ele>1245.82421875</ele>
        <time>2019-06-12T11:54:58.351Z</time>
      </trkpt>
      <trkpt lat="44.23181" lon="6.46993">
        <ele>1242.57421875</ele>
        <time>2019-06-12T11:55:00.332Z</time>
      </trkpt>
      <trkpt lat="44.23186" lon="6.46982">
        <ele>1241.9375</ele>
        <time>2019-06-12T11:55:02.247Z</time>
      </trkpt>
      <trkpt lat="44.23194" lon="6.46976">
        <ele>1243.25390625</ele>
        <time>2019-06-12T11:55:04.119Z</time>
      </trkpt>
      <trkpt lat="44.23204" lon="6.46972">
        <ele>1245.171875</ele>
        <time>2019-06-12T11:55:06.231Z</time>
      </trkpt>
      <trkpt lat="44.23213" lon="6.46966">
        <ele>1246.00390625</ele>
        <time>2019-06-12T11:55:08.218Z</time>
      </trkpt>
      <trkpt lat="44.23222" lon="6.4696">
        <ele>1246.72265625</ele>
        <time>2019-06-12T11:55:10.262Z</time>
      </trkpt>
      <trkpt lat="44.23229" lon="6.46957">
        <ele>1247.71875</ele>
        <time>2019-06-12T11:55:11.749Z</time>
      </trkpt>
      <trkpt lat="44.23239" lon="6.46956">
        <ele>1250.0625</ele>
        <time>2019-06-12T11:55:13.723Z</time>
      </trkpt>
      <trkpt lat="44.23252" lon="6.46952">
        <ele>1252.375</ele>
        <time>2019-06-12T11:55:16.320Z</time>
      </trkpt>
      <trkpt lat="44.23261" lon="6.46948">
        <ele>1253.7265625</ele>
        <time>2019-06-12T11:55:18.304Z</time>
      </trkpt>
      <trkpt lat="44.23271" lon="6.46944">
        <ele>1255.140625</ele>
        <time>2019-06-12T11:55:20.327Z</time>
      </trkpt>
      <trkpt lat="44.23281" lon="6.46939">
        <ele>1256.45703125</ele>
        <time>2019-06-12T11:55:22.434Z</time>
      </trkpt>
      <trkpt lat="44.23291" lon="6.46934">
        <ele>1258.08984375</ele>
        <time>2019-06-12T11:55:24.625Z</time>
      </trkpt>
      <trkpt lat="44.23302" lon="6.46934">
        <ele>1260.89453125</ele>
        <time>2019-06-12T11:55:26.760Z</time>
      </trkpt>
      <trkpt lat="44.23311" lon="6.4694">
        <ele>1264.53125</ele>
        <time>2019-06-12T11:55:28.831Z</time>
      </trkpt>
      <trkpt lat="44.23322" lon="6.46941">
        <ele>1266.921875</ele>
        <time>2019-06-12T11:55:30.885Z</time>
      </trkpt>
      <trkpt lat="44.23332" lon="6.46939">
        <ele>1268.8984375</ele>
        <time>2019-06-12T11:55:33.010Z</time>
      </trkpt>
      <trkpt lat="44.23346" lon="6.46936">
        <ele>1270.828125</ele>
        <time>2019-06-12T11:55:35.800Z</time>
      </trkpt>
      <trkpt lat="44.23356" lon="6.46929">
        <ele>1271.1640625</ele>
        <time>2019-06-12T11:55:38.006Z</time>
      </trkpt>
      <trkpt lat="44.23366" lon="6.46922">
        <ele>1270.984375</ele>
        <time>2019-06-12T11:55:40.237Z</time>
      </trkpt>
      <trkpt lat="44.23374" lon="6.46915">
        <ele>1270.37109375</ele>
        <time>2019-06-12T11:55:42.188Z</time>
      </trkpt>
      <trkpt lat="44.23385" lon="6.46912">
        <ele>1270.87890625</ele>
        <time>2019-06-12T11:55:44.360Z</time>
      </trkpt>
      <trkpt lat="44.23396" lon="6.46915">
        <ele>1273.69921875</ele>
        <time>2019-06-12T11:55:46.672Z</time>
      </trkpt>
      <trkpt lat="44.23412" lon="6.46918">
        <ele>1277.26953125</ele>
        <time>2019-06-12T11:55:49.815Z</time>
      </trkpt>
      <trkpt lat="44.23423" lon="6.46926">
        <ele>1282.86328125</ele>
        <time>2019-06-12T11:55:52.332Z</time>
      </trkpt>
      <trkpt lat="44.23432" lon="6.4693">
        <ele>1286.58984375</ele>
        <time>2019-06-12T11:55:54.215Z</time>
      </trkpt>
      <trkpt lat="44.23443" lon="6.46934">
        <ele>1290.57421875</ele>
        <time>2019-06-12T11:55:56.413Z</time>
      </trkpt>
      <trkpt lat="44.23454" lon="6.46941">
        <ele>1296.09375</ele>
        <time>2019-06-12T11:55:58.986Z</time>
      </trkpt>
      <trkpt lat="44.23462" lon="6.46942">
        <ele>1298.3125</ele>
        <time>2019-06-12T11:56:00.496Z</time>
      </trkpt>
      <trkpt lat="44.23466" lon="6.46936">
        <ele>1297.59375</ele>
        <time>2019-06-12T11:56:01.730Z</time>
      </trkpt>
      <trkpt lat="44.23479" lon="6.46938">
        <ele>1301.3828125</ele>
        <time>2019-06-12T11:56:04.165Z</time>
      </trkpt>
      <trkpt lat="44.23486" lon="6.46943">
        <ele>1304.75</ele>
        <time>2019-06-12T11:56:05.795Z</time>
      </trkpt>
      <trkpt lat="44.23498" lon="6.46948">
        <ele>1308.8984375</ele>
        <time>2019-06-12T11:56:08.215Z</time>
      </trkpt>
      <trkpt lat="44.23504" lon="6.46949">
        <ele>1310.8359375</ele>
        <time>2019-06-12T11:56:09.515Z</time>
      </trkpt>
      <trkpt lat="44.23514" lon="6.46955">
        <ele>1314.93359375</ele>
        <time>2019-06-12T11:56:11.676Z</time>
      </trkpt>
      <trkpt lat="44.23521" lon="6.46959">
        <ele>1317.84375</ele>
        <time>2019-06-12T11:56:13.284Z</time>
      </trkpt>
      <trkpt lat="44.2353" lon="6.46964">
        <ele>1321.25390625</ele>
        <time>2019-06-12T11:56:15.063Z</time>
      </trkpt>
      <trkpt lat="44.2354" lon="6.4696">
        <ele>1323.1484375</ele>
        <time>2019-06-12T11:56:17.244Z</time>
      </trkpt>
      <trkpt lat="44.23548" lon="6.46952">
        <ele>1323.41015625</ele>
        <time>2019-06-12T11:56:19.173Z</time>
      </trkpt>
      <trkpt lat="44.23556" lon="6.46944">
        <ele>1323.79296875</ele>
        <time>2019-06-12T11:56:21.146Z</time>
      </trkpt>
      <trkpt lat="44.23563" lon="6.46935">
        <ele>1324.4765625</ele>
        <time>2019-06-12T11:56:23.080Z</time>
      </trkpt>
      <trkpt lat="44.23571" lon="6.46926">
        <ele>1325.2734375</ele>
        <time>2019-06-12T11:56:25.033Z</time>
      </trkpt>
      <trkpt lat="44.23575" lon="6.46914">
        <ele>1324.5546875</ele>
        <time>2019-06-12T11:56:27.020Z</time>
      </trkpt>
      <trkpt lat="44.23581" lon="6.46902">
        <ele>1325.2421875</ele>
        <time>2019-06-12T11:56:29.113Z</time>
      </trkpt>
      <trkpt lat="44.23586" lon="6.46891">
        <ele>1324.171875</ele>
        <time>2019-06-12T11:56:31.086Z</time>
      </trkpt>
      <trkpt lat="44.23591" lon="6.46877">
        <ele>1322.96484375</ele>
        <time>2019-06-12T11:56:33.200Z</time>
      </trkpt>
      <trkpt lat="44.23594" lon="6.46862">
        <ele>1322.09375</ele>
        <time>2019-06-12T11:56:35.410Z</time>
      </trkpt>
      <trkpt lat="44.23595" lon="6.46847">
        <ele>1321.0546875</ele>
        <time>2019-06-12T11:56:37.597Z</time>
      </trkpt>
      <trkpt lat="44.23594" lon="6.46833">
        <ele>1319.9765625</ele>
        <time>2019-06-12T11:56:39.676Z</time>
      </trkpt>
      <trkpt lat="44.23596" lon="6.46818">
        <ele>1319.12890625</ele>
        <time>2019-06-12T11:56:41.873Z</time>
      </trkpt>
      <trkpt lat="44.23597" lon="6.46803">
        <ele>1318.31640625</ele>
        <time>2019-06-12T11:56:43.932Z</time>
      </trkpt>
      <trkpt lat="44.23598" lon="6.4679">
        <ele>1317.6484375</ele>
        <time>2019-06-12T11:56:45.881Z</time>
      </trkpt>
      <trkpt lat="44.23599" lon="6.46776">
        <ele>1316.984375</ele>
        <time>2019-06-12T11:56:47.824Z</time>
      </trkpt>
      <trkpt lat="44.23604" lon="6.46765">
        <ele>1316.6015625</ele>
        <time>2019-06-12T11:56:49.681Z</time>
      </trkpt>
      <trkpt lat="44.23612" lon="6.46757">
        <ele>1316.8984375</ele>
        <time>2019-06-12T11:56:51.652Z</time>
      </trkpt>
      <trkpt lat="44.23616" lon="6.46749">
        <ele>1316.7890625</ele>
        <time>2019-06-12T11:56:53.180Z</time>
      </trkpt>
      <trkpt lat="44.23625" lon="6.46744">
        <ele>1317.71875</ele>
        <time>2019-06-12T11:56:55.116Z</time>
      </trkpt>
      <trkpt lat="44.23634" lon="6.46741">
        <ele>1318.7890625</ele>
        <time>2019-06-12T11:56:56.993Z</time>
      </trkpt>
      <trkpt lat="44.23644" lon="6.46742">
        <ele>1318.890625</ele>
        <time>2019-06-12T11:56:58.884Z</time>
      </trkpt>
      <trkpt lat="44.23652" lon="6.4674">
        <ele>1318.265625</ele>
        <time>2019-06-12T11:57:00.455Z</time>
      </trkpt>
      <trkpt lat="44.23661" lon="6.46746">
        <ele>1317.6796875</ele>
        <time>2019-06-12T11:57:02.422Z</time>
      </trkpt>
      <trkpt lat="44.23665" lon="6.46757">
        <ele>1317.4453125</ele>
        <time>2019-06-12T11:57:04.310Z</time>
      </trkpt>
      <trkpt lat="44.23665" lon="6.46771">
        <ele>1317.640625</ele>
        <time>2019-06-12T11:57:06.222Z</time>
      </trkpt>
      <trkpt lat="44.23661" lon="6.46784">
        <ele>1318.2890625</ele>
        <time>2019-06-12T11:57:08.243Z</time>
      </trkpt>
      <trkpt lat="44.23657" lon="6.46796">
        <ele>1318.84765625</ele>
        <time>2019-06-12T11:57:10.101Z</time>
      </trkpt>
      <trkpt lat="44.23653" lon="6.46805">
        <ele>1319.484375</ele>
        <time>2019-06-12T11:57:11.683Z</time>
      </trkpt>
      <trkpt lat="44.23651" lon="6.46819">
        <ele>1320.015625</ele>
        <time>2019-06-12T11:57:13.635Z</time>
      </trkpt>
      <trkpt lat="44.23646" lon="6.46831">
        <ele>1321.0078125</ele>
        <time>2019-06-12T11:57:15.662Z</time>
      </trkpt>
      <trkpt lat="44.23642" lon="6.4684">
        <ele>1322.21875</ele>
        <time>2019-06-12T11:57:17.210Z</time>
      </trkpt>
      <trkpt lat="44.23638" lon="6.46853">
        <ele>1323.78515625</ele>
        <time>2019-06-12T11:57:19.274Z</time>
      </trkpt>
      <trkpt lat="44.23635" lon="6.46862">
        <ele>1324.27734375</ele>
        <time>2019-06-12T11:57:20.608Z</time>
      </trkpt>
      <trkpt lat="44.23631" lon="6.46872">
        <ele>1324.7578125</ele>
        <time>2019-06-12T11:57:22.276Z</time>
      </trkpt>
      <trkpt lat="44.2363" lon="6.46875">
        <ele>1324.9375</ele>
        <time>2019-06-12T11:57:22.729Z</time>
      </trkpt>
      <trkpt lat="44.2363" lon="6.4688">
        <ele>1325.3203125</ele>
        <time>2019-06-12T11:57:23.502Z</time>
      </trkpt>
      <trkpt lat="44.2363" lon="6.46893">
        <ele>1326.78125</ele>
        <time>2019-06-12T11:57:25.362Z</time>
      </trkpt>
      <trkpt lat="44.23631" lon="6.46906">
        <ele>1328.5390625</ele>
        <time>2019-06-12T11:57:27.271Z</time>
      </trkpt>
      <trkpt lat="44.23631" lon="6.46918">
        <ele>1329.984375</ele>
        <time>2019-06-12T11:57:28.925Z</time>
      </trkpt>
      <trkpt lat="44.23629" lon="6.46933">
        <ele>1331.7890625</ele>
        <time>2019-06-12T11:57:31.063Z</time>
      </trkpt>
      <trkpt lat="44.23627" lon="6.46943">
        <ele>1333.15234375</ele>
        <time>2019-06-12T11:57:32.619Z</time>
      </trkpt>
      <trkpt lat="44.23628" lon="6.46955">
        <ele>1334.72265625</ele>
        <time>2019-06-12T11:57:34.259Z</time>
      </trkpt>
      <trkpt lat="44.23628" lon="6.46968">
        <ele>1336.609375</ele>
        <time>2019-06-12T11:57:36.244Z</time>
      </trkpt>
      <trkpt lat="44.23629" lon="6.4698">
        <ele>1338.2109375</ele>
        <time>2019-06-12T11:57:37.974Z</time>
      </trkpt>
      <trkpt lat="44.2363" lon="6.46993">
        <ele>1339.921875</ele>
        <time>2019-06-12T11:57:39.821Z</time>
      </trkpt>
      <trkpt lat="44.2363" lon="6.47008">
        <ele>1342.09765625</ele>
        <time>2019-06-12T11:57:41.967Z</time>
      </trkpt>
      <trkpt lat="44.23632" lon="6.47021">
        <ele>1343.96484375</ele>
        <time>2019-06-12T11:57:43.890Z</time>
      </trkpt>
      <trkpt lat="44.23631" lon="6.47035">
        <ele>1346.08984375</ele>
        <time>2019-06-12T11:57:45.952Z</time>
      </trkpt>
      <trkpt lat="44.23625" lon="6.47046">
        <ele>1347.859375</ele>
        <time>2019-06-12T11:57:47.839Z</time>
      </trkpt>
      <trkpt lat="44.23624" lon="6.47061">
        <ele>1349.6171875</ele>
        <time>2019-06-12T11:57:49.991Z</time>
      </trkpt>
      <trkpt lat="44.23622" lon="6.47075">
        <ele>1351.15234375</ele>
        <time>2019-06-12T11:57:51.995Z</time>
      </trkpt>
      <trkpt lat="44.23625" lon="6.4709">
        <ele>1352.55078125</ele>
        <time>2019-06-12T11:57:54.156Z</time>
      </trkpt>
      <trkpt lat="44.23629" lon="6.47103">
        <ele>1353.5703125</ele>
        <time>2019-06-12T11:57:56.230Z</time>
      </trkpt>
      <trkpt lat="44.23632" lon="6.47115">
        <ele>1353.6484375</ele>
        <time>2019-06-12T11:57:58.007Z</time>
      </trkpt>
      <trkpt lat="44.23629" lon="6.47129">
        <ele>1354.0625</ele>
        <time>2019-06-12T11:58:00.166Z</time>
      </trkpt>
      <trkpt lat="44.23629" lon="6.47144">
        <ele>1354.23046875</ele>
        <time>2019-06-12T11:58:02.303Z</time>
      </trkpt>
      <trkpt lat="44.23627" lon="6.47163">
        <ele>1354.76953125</ele>
        <time>2019-06-12T11:58:05.059Z</time>
      </trkpt>
      <trkpt lat="44.23627" lon="6.47175">
        <ele>1354.59765625</ele>
        <time>2019-06-12T11:58:06.843Z</time>
      </trkpt>
      <trkpt lat="44.23626" lon="6.47189">
        <ele>1354.58203125</ele>
        <time>2019-06-12T11:58:08.821Z</time>
      </trkpt>
      <trkpt lat="44.23626" lon="6.47204">
        <ele>1354.22265625</ele>
        <time>2019-06-12T11:58:10.878Z</time>
      </trkpt>
      <trkpt lat="44.23623" lon="6.47216">
        <ele>1354.71484375</ele>
        <time>2019-06-12T11:58:12.802Z</time>
      </trkpt>
      <trkpt lat="44.23621" lon="6.47233">
        <ele>1355.3125</ele>
        <time>2019-06-12T11:58:15.186Z</time>
      </trkpt>
      <trkpt lat="44.23615" lon="6.47247">
        <ele>1357.0078125</ele>
        <time>2019-06-12T11:58:17.528Z</time>
      </trkpt>
      <trkpt lat="44.23616" lon="6.47259">
        <ele>1356.94140625</ele>
        <time>2019-06-12T11:58:19.335Z</time>
      </trkpt>
      <trkpt lat="44.23616" lon="6.47273">
        <ele>1356.984375</ele>
        <time>2019-06-12T11:58:21.249Z</time>
      </trkpt>
      <trkpt lat="44.23611" lon="6.47282">
        <ele>1359.0234375</ele>
        <time>2019-06-12T11:58:22.941Z</time>
      </trkpt>
      <trkpt lat="44.23606" lon="6.47295">
        <ele>1361.640625</ele>
        <time>2019-06-12T11:58:25.081Z</time>
      </trkpt>
      <trkpt lat="44.23603" lon="6.4731">
        <ele>1363.73828125</ele>
        <time>2019-06-12T11:58:27.267Z</time>
      </trkpt>
      <trkpt lat="44.23599" lon="6.47321">
        <ele>1366.09765625</ele>
        <time>2019-06-12T11:58:29.109Z</time>
      </trkpt>
      <trkpt lat="44.23595" lon="6.47335">
        <ele>1369.82421875</ele>
        <time>2019-06-12T11:58:31.206Z</time>
      </trkpt>
      <trkpt lat="44.23593" lon="6.47349">
        <ele>1374.48828125</ele>
        <time>2019-06-12T11:58:33.267Z</time>
      </trkpt>
      <trkpt lat="44.23588" lon="6.47361">
        <ele>1379.87109375</ele>
        <time>2019-06-12T11:58:35.258Z</time>
      </trkpt>
      <trkpt lat="44.23581" lon="6.47371">
        <ele>1385.34375</ele>
        <time>2019-06-12T11:58:37.295Z</time>
      </trkpt>
      <trkpt lat="44.23577" lon="6.47383">
        <ele>1389.21875</ele>
        <time>2019-06-12T11:58:39.157Z</time>
      </trkpt>
      <trkpt lat="44.2357" lon="6.47393">
        <ele>1392.99609375</ele>
        <time>2019-06-12T11:58:41.171Z</time>
      </trkpt>
      <trkpt lat="44.23564" lon="6.47403">
        <ele>1396.75</ele>
        <time>2019-06-12T11:58:43.103Z</time>
      </trkpt>
      <trkpt lat="44.23562" lon="6.47414">
        <ele>1400.45703125</ele>
        <time>2019-06-12T11:58:44.653Z</time>
      </trkpt>
      <trkpt lat="44.23557" lon="6.47424">
        <ele>1404.3125</ele>
        <time>2019-06-12T11:58:46.454Z</time>
      </trkpt>
      <trkpt lat="44.23549" lon="6.47418">
        <ele>1402.7890625</ele>
        <time>2019-06-12T11:58:48.271Z</time>
      </trkpt>
      <trkpt lat="44.23545" lon="6.47427">
        <ele>1405.90625</ele>
        <time>2019-06-12T11:58:49.718Z</time>
      </trkpt>
      <trkpt lat="44.23536" lon="6.47436">
        <ele>1409.44140625</ele>
        <time>2019-06-12T11:58:52.000Z</time>
      </trkpt>
      <trkpt lat="44.23528" lon="6.47446">
        <ele>1413.328125</ele>
        <time>2019-06-12T11:58:54.176Z</time>
      </trkpt>
      <trkpt lat="44.23531" lon="6.47462">
        <ele>1418.60546875</ele>
        <time>2019-06-12T11:58:56.643Z</time>
      </trkpt>
      <trkpt lat="44.23527" lon="6.47473">
        <ele>1422.41015625</ele>
        <time>2019-06-12T11:58:58.436Z</time>
      </trkpt>
      <trkpt lat="44.23517" lon="6.47479">
        <ele>1421.765625</ele>
        <time>2019-06-12T11:59:00.623Z</time>
      </trkpt>
      <trkpt lat="44.23509" lon="6.47489">
        <ele>1422.30078125</ele>
        <time>2019-06-12T11:59:02.679Z</time>
      </trkpt>
      <trkpt lat="44.23504" lon="6.475">
        <ele>1423.53515625</ele>
        <time>2019-06-12T11:59:04.566Z</time>
      </trkpt>
      <trkpt lat="44.23498" lon="6.4751">
        <ele>1423.6953125</ele>
        <time>2019-06-12T11:59:06.427Z</time>
      </trkpt>
      <trkpt lat="44.23489" lon="6.47516">
        <ele>1422.0546875</ele>
        <time>2019-06-12T11:59:08.564Z</time>
      </trkpt>
      <trkpt lat="44.23483" lon="6.47528">
        <ele>1422.97265625</ele>
        <time>2019-06-12T11:59:10.654Z</time>
      </trkpt>
      <trkpt lat="44.23478" lon="6.47541">
        <ele>1424.57421875</ele>
        <time>2019-06-12T11:59:12.696Z</time>
      </trkpt>
      <trkpt lat="44.23473" lon="6.47552">
        <ele>1425.68359375</ele>
        <time>2019-06-12T11:59:14.668Z</time>
      </trkpt>
      <trkpt lat="44.23467" lon="6.47565">
        <ele>1426.63671875</ele>
        <time>2019-06-12T11:59:16.694Z</time>
      </trkpt>
      <trkpt lat="44.23463" lon="6.47578">
        <ele>1428.22265625</ele>
        <time>2019-06-12T11:59:18.831Z</time>
      </trkpt>
      <trkpt lat="44.23457" lon="6.47591">
        <ele>1429.3125</ele>
        <time>2019-06-12T11:59:21.029Z</time>
      </trkpt>
      <trkpt lat="44.23447" lon="6.476">
        <ele>1429.1484375</ele>
        <time>2019-06-12T11:59:23.378Z</time>
      </trkpt>
      <trkpt lat="44.23441" lon="6.4761">
        <ele>1429.8359375</ele>
        <time>2019-06-12T11:59:25.342Z</time>
      </trkpt>
      <trkpt lat="44.23435" lon="6.47624">
        <ele>1431.3046875</ele>
        <time>2019-06-12T11:59:27.621Z</time>
      </trkpt>
      <trkpt lat="44.23429" lon="6.47636">
        <ele>1432.5546875</ele>
        <time>2019-06-12T11:59:29.712Z</time>
      </trkpt>
      <trkpt lat="44.23424" lon="6.47649">
        <ele>1434</ele>
        <time>2019-06-12T11:59:31.792Z</time>
      </trkpt>
      <trkpt lat="44.23421" lon="6.4766">
        <ele>1435.54296875</ele>
        <time>2019-06-12T11:59:33.501Z</time>
      </trkpt>
      <trkpt lat="44.23417" lon="6.47673">
        <ele>1437.2578125</ele>
        <time>2019-06-12T11:59:35.507Z</time>
      </trkpt>
      <trkpt lat="44.23409" lon="6.47685">
        <ele>1437.9140625</ele>
        <time>2019-06-12T11:59:37.830Z</time>
      </trkpt>
      <trkpt lat="44.23409" lon="6.477">
        <ele>1440.61328125</ele>
        <time>2019-06-12T11:59:40.061Z</time>
      </trkpt>
      <trkpt lat="44.23407" lon="6.47713">
        <ele>1442.5546875</ele>
        <time>2019-06-12T11:59:42.001Z</time>
      </trkpt>
      <trkpt lat="44.23409" lon="6.47729">
        <ele>1446.30078125</ele>
        <time>2019-06-12T11:59:44.370Z</time>
      </trkpt>
      <trkpt lat="44.23407" lon="6.47742">
        <ele>1448.5234375</ele>
        <time>2019-06-12T11:59:46.164Z</time>
      </trkpt>
      <trkpt lat="44.23399" lon="6.47756">
        <ele>1449.375</ele>
        <time>2019-06-12T11:59:48.796Z</time>
      </trkpt>
      <trkpt lat="44.23392" lon="6.47771">
        <ele>1450.8046875</ele>
        <time>2019-06-12T11:59:51.347Z</time>
      </trkpt>
      <trkpt lat="44.23388" lon="6.47794">
        <ele>1457.34375</ele>
        <time>2019-06-12T11:59:54.821Z</time>
      </trkpt>
      <trkpt lat="44.23382" lon="6.47803">
        <ele>1458.39453125</ele>
        <time>2019-06-12T11:59:56.556Z</time>
      </trkpt>
      <trkpt lat="44.23374" lon="6.47813">
        <ele>1459.37890625</ele>
        <time>2019-06-12T11:59:58.639Z</time>
      </trkpt>
      <trkpt lat="44.23365" lon="6.47824">
        <ele>1460.15625</ele>
        <time>2019-06-12T12:00:01.019Z</time>
      </trkpt>
      <trkpt lat="44.2336" lon="6.47836">
        <ele>1463.2578125</ele>
        <time>2019-06-12T12:00:03.047Z</time>
      </trkpt>
      <trkpt lat="44.23352" lon="6.47844">
        <ele>1464.63671875</ele>
        <time>2019-06-12T12:00:05.089Z</time>
      </trkpt>
      <trkpt lat="44.23339" lon="6.47843">
        <ele>1461.69921875</ele>
        <time>2019-06-12T12:00:07.596Z</time>
      </trkpt>
      <trkpt lat="44.23331" lon="6.47851">
        <ele>1462.75</ele>
        <time>2019-06-12T12:00:09.672Z</time>
      </trkpt>
      <trkpt lat="44.23319" lon="6.47862">
        <ele>1463.80859375</ele>
        <time>2019-06-12T12:00:12.485Z</time>
      </trkpt>
      <trkpt lat="44.23319" lon="6.47873">
        <ele>1467.234375</ele>
        <time>2019-06-12T12:00:14.013Z</time>
      </trkpt>
      <trkpt lat="44.23314" lon="6.47895">
        <ele>1472.8203125</ele>
        <time>2019-06-12T12:00:17.397Z</time>
      </trkpt>
      <trkpt lat="44.23316" lon="6.47911">
        <ele>1478.03515625</ele>
        <time>2019-06-12T12:00:19.684Z</time>
      </trkpt>
      <trkpt lat="44.23314" lon="6.47928">
        <ele>1482.15234375</ele>
        <time>2019-06-12T12:00:22.160Z</time>
      </trkpt>
      <trkpt lat="44.23313" lon="6.47944">
        <ele>1486.82421875</ele>
        <time>2019-06-12T12:00:24.523Z</time>
      </trkpt>
      <trkpt lat="44.23307" lon="6.4796">
        <ele>1489.43359375</ele>
        <time>2019-06-12T12:00:27.059Z</time>
      </trkpt>
      <trkpt lat="44.23301" lon="6.47978">
        <ele>1493.046875</ele>
        <time>2019-06-12T12:00:29.866Z</time>
      </trkpt>
      <trkpt lat="44.23297" lon="6.47997">
        <ele>1497.828125</ele>
        <time>2019-06-12T12:00:32.736Z</time>
      </trkpt>
      <trkpt lat="44.23295" lon="6.48015">
        <ele>1502.91796875</ele>
        <time>2019-06-12T12:00:35.304Z</time>
      </trkpt>
      <trkpt lat="44.23289" lon="6.4803">
        <ele>1505.921875</ele>
        <time>2019-06-12T12:00:37.814Z</time>
      </trkpt>
      <trkpt lat="44.23282" lon="6.48041">
        <ele>1507.41015625</ele>
        <time>2019-06-12T12:00:39.901Z</time>
      </trkpt>
      <trkpt lat="44.23278" lon="6.48054">
        <ele>1510.21875</ele>
        <time>2019-06-12T12:00:41.959Z</time>
      </trkpt>
      <trkpt lat="44.23272" lon="6.48068">
        <ele>1513.5</ele>
        <time>2019-06-12T12:00:44.320Z</time>
      </trkpt>
      <trkpt lat="44.23264" lon="6.48079">
        <ele>1514.44921875</ele>
        <time>2019-06-12T12:00:46.546Z</time>
      </trkpt>
      <trkpt lat="44.2326" lon="6.4809">
        <ele>1516.81640625</ele>
        <time>2019-06-12T12:00:48.421Z</time>
      </trkpt>
      <trkpt lat="44.23254" lon="6.48104">
        <ele>1519.296875</ele>
        <time>2019-06-12T12:00:50.691Z</time>
      </trkpt>
      <trkpt lat="44.23246" lon="6.48122">
        <ele>1523.88671875</ele>
        <time>2019-06-12T12:00:53.690Z</time>
      </trkpt>
      <trkpt lat="44.23242" lon="6.48135">
        <ele>1527.625</ele>
        <time>2019-06-12T12:00:55.704Z</time>
      </trkpt>
      <trkpt lat="44.23234" lon="6.48142">
        <ele>1528.078125</ele>
        <time>2019-06-12T12:00:57.687Z</time>
      </trkpt>
      <trkpt lat="44.23226" lon="6.48155">
        <ele>1530.421875</ele>
        <time>2019-06-12T12:01:00.151Z</time>
      </trkpt>
      <trkpt lat="44.23218" lon="6.48171">
        <ele>1533.75390625</ele>
        <time>2019-06-12T12:01:02.872Z</time>
      </trkpt>
      <trkpt lat="44.23211" lon="6.48182">
        <ele>1535.17578125</ele>
        <time>2019-06-12T12:01:04.891Z</time>
      </trkpt>
      <trkpt lat="44.23219" lon="6.4818">
        <ele>1536.98828125</ele>
        <time>2019-06-12T12:01:06.357Z</time>
      </trkpt>
      <trkpt lat="44.23229" lon="6.48178">
        <ele>1540.25</ele>
        <time>2019-06-12T12:01:08.387Z</time>
      </trkpt>
      <trkpt lat="44.23229" lon="6.48194">
        <ele>1546.29296875</ele>
        <time>2019-06-12T12:01:10.593Z</time>
      </trkpt>
      <trkpt lat="44.23221" lon="6.48206">
        <ele>1547.796875</ele>
        <time>2019-06-12T12:01:13.070Z</time>
      </trkpt>
      <trkpt lat="44.23217" lon="6.48229">
        <ele>1554.9140625</ele>
        <time>2019-06-12T12:01:16.483Z</time>
      </trkpt>
      <trkpt lat="44.23212" lon="6.4825">
        <ele>1560.07421875</ele>
        <time>2019-06-12T12:01:19.534Z</time>
      </trkpt>
      <trkpt lat="44.23211" lon="6.48253">
        <ele>1560.51953125</ele>
        <time>2019-06-12T12:01:20.086Z</time>
      </trkpt>
      <trkpt lat="44.2322" lon="6.48241">
        <ele>1559.9296875</ele>
        <time>2019-06-12T12:01:22.586Z</time>
      </trkpt>
      <trkpt lat="44.23234" lon="6.48234">
        <ele>1563.5703125</ele>
        <time>2019-06-12T12:01:25.639Z</time>
      </trkpt>
      <trkpt lat="44.2325" lon="6.48229">
        <ele>1568.05078125</ele>
        <time>2019-06-12T12:01:28.847Z</time>
      </trkpt>
      <trkpt lat="44.23265" lon="6.48228">
        <ele>1573.74609375</ele>
        <time>2019-06-12T12:01:31.889Z</time>
      </trkpt>
      <trkpt lat="44.23271" lon="6.48245">
        <ele>1582.44921875</ele>
        <time>2019-06-12T12:01:34.608Z</time>
      </trkpt>
      <trkpt lat="44.2327" lon="6.48263">
        <ele>1588.69140625</ele>
        <time>2019-06-12T12:01:37.251Z</time>
      </trkpt>
      <trkpt lat="44.23258" lon="6.48281">
        <ele>1590.515625</ele>
        <time>2019-06-12T12:01:40.861Z</time>
      </trkpt>
      <trkpt lat="44.23251" lon="6.48302">
        <ele>1595.40625</ele>
        <time>2019-06-12T12:01:44.114Z</time>
      </trkpt>
      <trkpt lat="44.23242" lon="6.48322">
        <ele>1599.03125</ele>
        <time>2019-06-12T12:01:47.510Z</time>
      </trkpt>
      <trkpt lat="44.23234" lon="6.48336">
        <ele>1600.33203125</ele>
        <time>2019-06-12T12:01:50.139Z</time>
      </trkpt>
      <trkpt lat="44.23229" lon="6.4835">
        <ele>1603.26171875</ele>
        <time>2019-06-12T12:01:52.319Z</time>
      </trkpt>
      <trkpt lat="44.23228" lon="6.4836">
        <ele>1606.4296875</ele>
        <time>2019-06-12T12:01:53.824Z</time>
      </trkpt>
      <trkpt lat="44.2323" lon="6.48375">
        <ele>1612.01171875</ele>
        <time>2019-06-12T12:01:55.916Z</time>
      </trkpt>
      <trkpt lat="44.23223" lon="6.48386">
        <ele>1612.8359375</ele>
        <time>2019-06-12T12:01:58.016Z</time>
      </trkpt>
      <trkpt lat="44.23216" lon="6.48399">
        <ele>1614.53125</ele>
        <time>2019-06-12T12:02:00.371Z</time>
      </trkpt>
      <trkpt lat="44.23208" lon="6.48414">
        <ele>1615.921875</ele>
        <time>2019-06-12T12:02:02.958Z</time>
      </trkpt>
      <trkpt lat="44.23202" lon="6.48429">
        <ele>1618.55078125</ele>
        <time>2019-06-12T12:02:05.456Z</time>
      </trkpt>
      <trkpt lat="44.23198" lon="6.48443">
        <ele>1621.45703125</ele>
        <time>2019-06-12T12:02:07.669Z</time>
      </trkpt>
      <trkpt lat="44.23196" lon="6.48456">
        <ele>1624.94921875</ele>
        <time>2019-06-12T12:02:09.566Z</time>
      </trkpt>
      <trkpt lat="44.23192" lon="6.4847">
        <ele>1627.765625</ele>
        <time>2019-06-12T12:02:11.721Z</time>
      </trkpt>
      <trkpt lat="44.23184" lon="6.48484">
        <ele>1628.85546875</ele>
        <time>2019-06-12T12:02:14.264Z</time>
      </trkpt>
      <trkpt lat="44.23175" lon="6.48501">
        <ele>1630.51953125</ele>
        <time>2019-06-12T12:02:17.405Z</time>
      </trkpt>
      <trkpt lat="44.2317" lon="6.48515">
        <ele>1632.9375</ele>
        <time>2019-06-12T12:02:19.590Z</time>
      </trkpt>
      <trkpt lat="44.23163" lon="6.48531">
        <ele>1635.38671875</ele>
        <time>2019-06-12T12:02:22.242Z</time>
      </trkpt>
      <trkpt lat="44.2316" lon="6.48548">
        <ele>1639.1953125</ele>
        <time>2019-06-12T12:02:24.724Z</time>
      </trkpt>
      <trkpt lat="44.2316" lon="6.48564">
        <ele>1645.0625</ele>
        <time>2019-06-12T12:02:27.031Z</time>
      </trkpt>
      <trkpt lat="44.23158" lon="6.48578">
        <ele>1649.0625</ele>
        <time>2019-06-12T12:02:29.187Z</time>
      </trkpt>
      <trkpt lat="44.23153" lon="6.4859">
        <ele>1650.90234375</ele>
        <time>2019-06-12T12:02:31.095Z</time>
      </trkpt>
      <trkpt lat="44.23145" lon="6.48603">
        <ele>1651.67578125</ele>
        <time>2019-06-12T12:02:33.563Z</time>
      </trkpt>
      <trkpt lat="44.23141" lon="6.48617">
        <ele>1654.56640625</ele>
        <time>2019-06-12T12:02:35.861Z</time>
      </trkpt>
      <trkpt lat="44.23129" lon="6.48633">
        <ele>1655.94921875</ele>
        <time>2019-06-12T12:02:39.043Z</time>
      </trkpt>
      <trkpt lat="44.23117" lon="6.48645">
        <ele>1655.74609375</ele>
        <time>2019-06-12T12:02:42.028Z</time>
      </trkpt>
      <trkpt lat="44.23107" lon="6.48659">
        <ele>1657.00390625</ele>
        <time>2019-06-12T12:02:44.861Z</time>
      </trkpt>
      <trkpt lat="44.23097" lon="6.48667">
        <ele>1656.53125</ele>
        <time>2019-06-12T12:02:47.121Z</time>
      </trkpt>
      <trkpt lat="44.23083" lon="6.48684">
        <ele>1657.21484375</ele>
        <time>2019-06-12T12:02:50.919Z</time>
      </trkpt>
      <trkpt lat="44.23065" lon="6.48706">
        <ele>1658.265625</ele>
        <time>2019-06-12T12:02:55.591Z</time>
      </trkpt>
      <trkpt lat="44.23054" lon="6.48724">
        <ele>1660.1484375</ele>
        <time>2019-06-12T12:02:59.044Z</time>
      </trkpt>
      <trkpt lat="44.23047" lon="6.48737">
        <ele>1661.26171875</ele>
        <time>2019-06-12T12:03:01.407Z</time>
      </trkpt>
      <trkpt lat="44.23041" lon="6.48757">
        <ele>1664.33203125</ele>
        <time>2019-06-12T12:03:04.445Z</time>
      </trkpt>
      <trkpt lat="44.23042" lon="6.48779">
        <ele>1671.50390625</ele>
        <time>2019-06-12T12:03:07.617Z</time>
      </trkpt>
      <trkpt lat="44.23047" lon="6.48798">
        <ele>1680.0625</ele>
        <time>2019-06-12T12:03:10.486Z</time>
      </trkpt>
      <trkpt lat="44.23048" lon="6.48813">
        <ele>1685.9921875</ele>
        <time>2019-06-12T12:03:12.714Z</time>
      </trkpt>
      <trkpt lat="44.23047" lon="6.48825">
        <ele>1689.76171875</ele>
        <time>2019-06-12T12:03:14.489Z</time>
      </trkpt>
      <trkpt lat="44.23044" lon="6.48834">
        <ele>1691.62890625</ele>
        <time>2019-06-12T12:03:15.867Z</time>
      </trkpt>
      <trkpt lat="44.2305" lon="6.48834">
        <ele>1694.05859375</ele>
        <time>2019-06-12T12:03:17.006Z</time>
      </trkpt>
      <trkpt lat="44.23043" lon="6.48844">
        <ele>1694.8359375</ele>
        <time>2019-06-12T12:03:19.005Z</time>
      </trkpt>
      <trkpt lat="44.23036" lon="6.4886">
        <ele>1697.08984375</ele>
        <time>2019-06-12T12:03:21.572Z</time>
      </trkpt>
      <trkpt lat="44.23028" lon="6.48874">
        <ele>1698.5078125</ele>
        <time>2019-06-12T12:03:24.275Z</time>
      </trkpt>
      <trkpt lat="44.23028" lon="6.48883">
        <ele>1701.58984375</ele>
        <time>2019-06-12T12:03:25.521Z</time>
      </trkpt>
      <trkpt lat="44.23036" lon="6.4888">
        <ele>1704.2421875</ele>
        <time>2019-06-12T12:03:27.174Z</time>
      </trkpt>
      <trkpt lat="44.23045" lon="6.48882">
        <ele>1708.8984375</ele>
        <time>2019-06-12T12:03:28.958Z</time>
      </trkpt>
      <trkpt lat="44.23055" lon="6.4888">
        <ele>1712.80859375</ele>
        <time>2019-06-12T12:03:31.008Z</time>
      </trkpt>
      <trkpt lat="44.23064" lon="6.48877">
        <ele>1715.51953125</ele>
        <time>2019-06-12T12:03:32.781Z</time>
      </trkpt>
      <trkpt lat="44.23072" lon="6.4887">
        <ele>1716.82421875</ele>
        <time>2019-06-12T12:03:34.748Z</time>
      </trkpt>
      <trkpt lat="44.23081" lon="6.48867">
        <ele>1719.40234375</ele>
        <time>2019-06-12T12:03:36.525Z</time>
      </trkpt>
      <trkpt lat="44.23088" lon="6.48868">
        <ele>1723.0234375</ele>
        <time>2019-06-12T12:03:38.073Z</time>
      </trkpt>
      <trkpt lat="44.23095" lon="6.48862">
        <ele>1723.80078125</ele>
        <time>2019-06-12T12:03:39.684Z</time>
      </trkpt>
      <trkpt lat="44.23101" lon="6.48856">
        <ele>1724.546875</ele>
        <time>2019-06-12T12:03:41.128Z</time>
      </trkpt>
      <trkpt lat="44.23111" lon="6.48854">
        <ele>1727.84375</ele>
        <time>2019-06-12T12:03:43.150Z</time>
      </trkpt>
      <trkpt lat="44.23118" lon="6.48848">
        <ele>1728.66796875</ele>
        <time>2019-06-12T12:03:44.761Z</time>
      </trkpt>
      <trkpt lat="44.23127" lon="6.48847">
        <ele>1732.40234375</ele>
        <time>2019-06-12T12:03:46.521Z</time>
      </trkpt>
      <trkpt lat="44.23135" lon="6.48846">
        <ele>1735.09375</ele>
        <time>2019-06-12T12:03:48.078Z</time>
      </trkpt>
      <trkpt lat="44.23141" lon="6.48841">
        <ele>1735.94921875</ele>
        <time>2019-06-12T12:03:49.564Z</time>
      </trkpt>
      <trkpt lat="44.23148" lon="6.48833">
        <ele>1735.5234375</ele>
        <time>2019-06-12T12:03:51.421Z</time>
      </trkpt>
      <trkpt lat="44.23157" lon="6.48831">
        <ele>1738</ele>
        <time>2019-06-12T12:03:53.236Z</time>
      </trkpt>
      <trkpt lat="44.23155" lon="6.4883">
        <ele>1736.9765625</ele>
        <time>2019-06-12T12:03:53.675Z</time>
      </trkpt>
      <trkpt lat="44.23163" lon="6.48829">
        <ele>1739.1796875</ele>
        <time>2019-06-12T12:03:55.301Z</time>
      </trkpt>
      <trkpt lat="44.23172" lon="6.48829">
        <ele>1742.0078125</ele>
        <time>2019-06-12T12:03:57.018Z</time>
      </trkpt>
      <trkpt lat="44.23181" lon="6.48822">
        <ele>1743.41015625</ele>
        <time>2019-06-12T12:03:59.129Z</time>
      </trkpt>
      <trkpt lat="44.23192" lon="6.48814">
        <ele>1744.859375</ele>
        <time>2019-06-12T12:04:01.473Z</time>
      </trkpt>
      <trkpt lat="44.23202" lon="6.48806">
        <ele>1745.84765625</ele>
        <time>2019-06-12T12:04:03.839Z</time>
      </trkpt>
      <trkpt lat="44.23212" lon="6.48793">
        <ele>1745.21484375</ele>
        <time>2019-06-12T12:04:06.639Z</time>
      </trkpt>
      <trkpt lat="44.23217" lon="6.48802">
        <ele>1749.21484375</ele>
        <time>2019-06-12T12:04:08.334Z</time>
      </trkpt>
      <trkpt lat="44.23213" lon="6.48821">
        <ele>1752.9375</ele>
        <time>2019-06-12T12:04:11.125Z</time>
      </trkpt>
      <trkpt lat="44.23212" lon="6.48836">
        <ele>1756.8671875</ele>
        <time>2019-06-12T12:04:13.273Z</time>
      </trkpt>
      <trkpt lat="44.2322" lon="6.48844">
        <ele>1761.8203125</ele>
        <time>2019-06-12T12:04:15.371Z</time>
      </trkpt>
      <trkpt lat="44.23227" lon="6.48849">
        <ele>1764.82421875</ele>
        <time>2019-06-12T12:04:16.741Z</time>
      </trkpt>
      <trkpt lat="44.2323" lon="6.48868">
        <ele>1771.3203125</ele>
        <time>2019-06-12T12:04:19.556Z</time>
      </trkpt>
      <trkpt lat="44.23228" lon="6.48888">
        <ele>1777.0546875</ele>
        <time>2019-06-12T12:04:22.468Z</time>
      </trkpt>
      <trkpt lat="44.23237" lon="6.48899">
        <ele>1783</ele>
        <time>2019-06-12T12:04:24.905Z</time>
      </trkpt>
      <trkpt lat="44.23247" lon="6.48898">
        <ele>1785.1484375</ele>
        <time>2019-06-12T12:04:26.877Z</time>
      </trkpt>
      <trkpt lat="44.23251" lon="6.48905">
        <ele>1788.078125</ele>
        <time>2019-06-12T12:04:28.059Z</time>
      </trkpt>
      <trkpt lat="44.2326" lon="6.48901">
        <ele>1788.9609375</ele>
        <time>2019-06-12T12:04:29.968Z</time>
      </trkpt>
      <trkpt lat="44.23266" lon="6.48896">
        <ele>1789.140625</ele>
        <time>2019-06-12T12:04:31.393Z</time>
      </trkpt>
      <trkpt lat="44.23276" lon="6.48893">
        <ele>1790.703125</ele>
        <time>2019-06-12T12:04:33.438Z</time>
      </trkpt>
      <trkpt lat="44.23284" lon="6.489">
        <ele>1794.48828125</ele>
        <time>2019-06-12T12:04:35.339Z</time>
      </trkpt>
      <trkpt lat="44.23283" lon="6.4891">
        <ele>1796.88671875</ele>
        <time>2019-06-12T12:04:36.806Z</time>
      </trkpt>
      <trkpt lat="44.23283" lon="6.48932">
        <ele>1803</ele>
        <time>2019-06-12T12:04:39.958Z</time>
      </trkpt>
      <trkpt lat="44.23292" lon="6.48945">
        <ele>1808.08984375</ele>
        <time>2019-06-12T12:04:42.543Z</time>
      </trkpt>
      <trkpt lat="44.23285" lon="6.48968">
        <ele>1812.31640625</ele>
        <time>2019-06-12T12:04:46.020Z</time>
      </trkpt>
      <trkpt lat="44.23288" lon="6.48978">
        <ele>1815.296875</ele>
        <time>2019-06-12T12:04:47.643Z</time>
      </trkpt>
      <trkpt lat="44.2329" lon="6.48991">
        <ele>1818.36328125</ele>
        <time>2019-06-12T12:04:49.424Z</time>
      </trkpt>
      <trkpt lat="44.23281" lon="6.49006">
        <ele>1821.1484375</ele>
        <time>2019-06-12T12:04:52.233Z</time>
      </trkpt>
      <trkpt lat="44.23272" lon="6.49017">
        <ele>1822.99609375</ele>
        <time>2019-06-12T12:04:54.503Z</time>
      </trkpt>
      <trkpt lat="44.2327" lon="6.49029">
        <ele>1826.19140625</ele>
        <time>2019-06-12T12:04:56.442Z</time>
      </trkpt>
      <trkpt lat="44.23263" lon="6.49039">
        <ele>1828.25</ele>
        <time>2019-06-12T12:04:58.435Z</time>
      </trkpt>
      <trkpt lat="44.2325" lon="6.49049">
        <ele>1829.96875</ele>
        <time>2019-06-12T12:05:01.330Z</time>
      </trkpt>
      <trkpt lat="44.23244" lon="6.49059">
        <ele>1832.5546875</ele>
        <time>2019-06-12T12:05:03.158Z</time>
      </trkpt>
      <trkpt lat="44.23238" lon="6.49071">
        <ele>1836.0546875</ele>
        <time>2019-06-12T12:05:05.294Z</time>
      </trkpt>
      <trkpt lat="44.2323" lon="6.49079">
        <ele>1837.98828125</ele>
        <time>2019-06-12T12:05:07.259Z</time>
      </trkpt>
      <trkpt lat="44.23238" lon="6.49085">
        <ele>1841.0546875</ele>
        <time>2019-06-12T12:05:09.051Z</time>
      </trkpt>
      <trkpt lat="44.23237" lon="6.49095">
        <ele>1844.33203125</ele>
        <time>2019-06-12T12:05:10.414Z</time>
      </trkpt>
      <trkpt lat="44.23226" lon="6.49103">
        <ele>1846.3203125</ele>
        <time>2019-06-12T12:05:12.907Z</time>
      </trkpt>
      <trkpt lat="44.23217" lon="6.49114">
        <ele>1850.28125</ele>
        <time>2019-06-12T12:05:15.332Z</time>
      </trkpt>
      <trkpt lat="44.23209" lon="6.49127">
        <ele>1855.546875</ele>
        <time>2019-06-12T12:05:17.827Z</time>
      </trkpt>
      <trkpt lat="44.23203" lon="6.49139">
        <ele>1860.80859375</ele>
        <time>2019-06-12T12:05:19.893Z</time>
      </trkpt>
      <trkpt lat="44.23194" lon="6.49147">
        <ele>1864.1328125</ele>
        <time>2019-06-12T12:05:22.056Z</time>
      </trkpt>
      <trkpt lat="44.23186" lon="6.49157">
        <ele>1867.12890625</ele>
        <time>2019-06-12T12:05:24.244Z</time>
      </trkpt>
      <trkpt lat="44.2318" lon="6.49169">
        <ele>1871.734375</ele>
        <time>2019-06-12T12:05:26.269Z</time>
      </trkpt>
      <trkpt lat="44.23175" lon="6.4918">
        <ele>1875.984375</ele>
        <time>2019-06-12T12:05:28.254Z</time>
      </trkpt>
      <trkpt lat="44.23168" lon="6.49187">
        <ele>1878.18359375</ele>
        <time>2019-06-12T12:05:30.034Z</time>
      </trkpt>
      <trkpt lat="44.23159" lon="6.49194">
        <ele>1880.15234375</ele>
        <time>2019-06-12T12:05:32.031Z</time>
      </trkpt>
      <trkpt lat="44.23148" lon="6.492">
        <ele>1881.72265625</ele>
        <time>2019-06-12T12:05:34.372Z</time>
      </trkpt>
      <trkpt lat="44.23138" lon="6.49204">
        <ele>1882.2265625</ele>
        <time>2019-06-12T12:05:36.529Z</time>
      </trkpt>
      <trkpt lat="44.2313" lon="6.49213">
        <ele>1884.67578125</ele>
        <time>2019-06-12T12:05:38.538Z</time>
      </trkpt>
      <trkpt lat="44.23125" lon="6.4922">
        <ele>1886.265625</ele>
        <time>2019-06-12T12:05:40.007Z</time>
      </trkpt>
      <trkpt lat="44.23119" lon="6.49226">
        <ele>1887.0390625</ele>
        <time>2019-06-12T12:05:41.423Z</time>
      </trkpt>
      <trkpt lat="44.23112" lon="6.49237">
        <ele>1889.59375</ele>
        <time>2019-06-12T12:05:43.471Z</time>
      </trkpt>
      <trkpt lat="44.23107" lon="6.49248">
        <ele>1892.57421875</ele>
        <time>2019-06-12T12:05:45.393Z</time>
      </trkpt>
      <trkpt lat="44.23099" lon="6.49255">
        <ele>1893.890625</ele>
        <time>2019-06-12T12:05:47.284Z</time>
      </trkpt>
      <trkpt lat="44.23096" lon="6.49265">
        <ele>1896.93359375</ele>
        <time>2019-06-12T12:05:48.770Z</time>
      </trkpt>
      <trkpt lat="44.2309" lon="6.49274">
        <ele>1899.625</ele>
        <time>2019-06-12T12:05:50.536Z</time>
      </trkpt>
      <trkpt lat="44.23087" lon="6.49285">
        <ele>1902.6328125</ele>
        <time>2019-06-12T12:05:52.176Z</time>
      </trkpt>
      <trkpt lat="44.23082" lon="6.49294">
        <ele>1904.98828125</ele>
        <time>2019-06-12T12:05:53.873Z</time>
      </trkpt>
      <trkpt lat="44.23077" lon="6.49303">
        <ele>1906.6328125</ele>
        <time>2019-06-12T12:05:55.526Z</time>
      </trkpt>
      <trkpt lat="44.23073" lon="6.49313">
        <ele>1909.39453125</ele>
        <time>2019-06-12T12:05:57.149Z</time>
      </trkpt>
      <trkpt lat="44.23069" lon="6.49325">
        <ele>1912.4140625</ele>
        <time>2019-06-12T12:05:58.940Z</time>
      </trkpt>
      <trkpt lat="44.23064" lon="6.49336">
        <ele>1914.1484375</ele>
        <time>2019-06-12T12:06:00.915Z</time>
      </trkpt>
      <trkpt lat="44.23058" lon="6.49347">
        <ele>1914.984375</ele>
        <time>2019-06-12T12:06:02.806Z</time>
      </trkpt>
      <trkpt lat="44.23053" lon="6.49356">
        <ele>1915.7109375</ele>
        <time>2019-06-12T12:06:04.557Z</time>
      </trkpt>
      <trkpt lat="44.2305" lon="6.49366">
        <ele>1917.55078125</ele>
        <time>2019-06-12T12:06:06.144Z</time>
      </trkpt>
      <trkpt lat="44.23045" lon="6.49375">
        <ele>1918.30078125</ele>
        <time>2019-06-12T12:06:07.825Z</time>
      </trkpt>
      <trkpt lat="44.2304" lon="6.49386">
        <ele>1918.875</ele>
        <time>2019-06-12T12:06:09.513Z</time>
      </trkpt>
      <trkpt lat="44.23037" lon="6.49395">
        <ele>1918.30078125</ele>
        <time>2019-06-12T12:06:10.925Z</time>
      </trkpt>
      <trkpt lat="44.23039" lon="6.49398">
        <ele>1918.74609375</ele>
        <time>2019-06-12T12:06:11.432Z</time>
      </trkpt>
      <trkpt lat="44.23034" lon="6.4941">
        <ele>1917.75390625</ele>
        <time>2019-06-12T12:06:13.363Z</time>
      </trkpt>
      <trkpt lat="44.23037" lon="6.49423">
        <ele>1919.0390625</ele>
        <time>2019-06-12T12:06:15.350Z</time>
      </trkpt>
      <trkpt lat="44.23036" lon="6.49434">
        <ele>1919.140625</ele>
        <time>2019-06-12T12:06:16.977Z</time>
      </trkpt>
      <trkpt lat="44.23043" lon="6.49445">
        <ele>1921.30078125</ele>
        <time>2019-06-12T12:06:18.997Z</time>
      </trkpt>
      <trkpt lat="44.23049" lon="6.49459">
        <ele>1923.43359375</ele>
        <time>2019-06-12T12:06:21.321Z</time>
      </trkpt>
      <trkpt lat="44.23056" lon="6.4947">
        <ele>1926.29296875</ele>
        <time>2019-06-12T12:06:23.418Z</time>
      </trkpt>
      <trkpt lat="44.23061" lon="6.4948">
        <ele>1928.8046875</ele>
        <time>2019-06-12T12:06:25.250Z</time>
      </trkpt>
      <trkpt lat="44.23065" lon="6.49491">
        <ele>1930.87109375</ele>
        <time>2019-06-12T12:06:26.950Z</time>
      </trkpt>
      <trkpt lat="44.23066" lon="6.49504">
        <ele>1931.359375</ele>
        <time>2019-06-12T12:06:28.785Z</time>
      </trkpt>
      <trkpt lat="44.23066" lon="6.49518">
        <ele>1931.015625</ele>
        <time>2019-06-12T12:06:30.885Z</time>
      </trkpt>
      <trkpt lat="44.23067" lon="6.49531">
        <ele>1931.3828125</ele>
        <time>2019-06-12T12:06:32.774Z</time>
      </trkpt>
      <trkpt lat="44.23069" lon="6.49546">
        <ele>1931.86328125</ele>
        <time>2019-06-12T12:06:34.939Z</time>
      </trkpt>
      <trkpt lat="44.23074" lon="6.49561">
        <ele>1935.84765625</ele>
        <time>2019-06-12T12:06:37.268Z</time>
      </trkpt>
      <trkpt lat="44.23077" lon="6.49574">
        <ele>1938.53125</ele>
        <time>2019-06-12T12:06:39.164Z</time>
      </trkpt>
      <trkpt lat="44.23082" lon="6.49589">
        <ele>1943.21484375</ele>
        <time>2019-06-12T12:06:41.556Z</time>
      </trkpt>
      <trkpt lat="44.23084" lon="6.49603">
        <ele>1945.67578125</ele>
        <time>2019-06-12T12:06:43.600Z</time>
      </trkpt>
      <trkpt lat="44.23087" lon="6.49615">
        <ele>1950.296875</ele>
        <time>2019-06-12T12:06:45.456Z</time>
      </trkpt>
      <trkpt lat="44.23085" lon="6.4963">
        <ele>1952.83984375</ele>
        <time>2019-06-12T12:06:47.577Z</time>
      </trkpt>
      <trkpt lat="44.23082" lon="6.49643">
        <ele>1954.26171875</ele>
        <time>2019-06-12T12:06:49.580Z</time>
      </trkpt>
      <trkpt lat="44.23079" lon="6.49657">
        <ele>1955.81640625</ele>
        <time>2019-06-12T12:06:51.635Z</time>
      </trkpt>
      <trkpt lat="44.23076" lon="6.4967">
        <ele>1956.21875</ele>
        <time>2019-06-12T12:06:53.625Z</time>
      </trkpt>
      <trkpt lat="44.23069" lon="6.49681">
        <ele>1953.5625</ele>
        <time>2019-06-12T12:06:55.785Z</time>
      </trkpt>
      <trkpt lat="44.23063" lon="6.49692">
        <ele>1951.32421875</ele>
        <time>2019-06-12T12:06:57.763Z</time>
      </trkpt>
      <trkpt lat="44.23056" lon="6.49702">
        <ele>1948.42578125</ele>
        <time>2019-06-12T12:06:59.703Z</time>
      </trkpt>
      <trkpt lat="44.23052" lon="6.49713">
        <ele>1947.6875</ele>
        <time>2019-06-12T12:07:01.438Z</time>
      </trkpt>
      <trkpt lat="44.23055" lon="6.49725">
        <ele>1950.73046875</ele>
        <time>2019-06-12T12:07:03.309Z</time>
      </trkpt>
      <trkpt lat="44.23058" lon="6.49738">
        <ele>1953.98046875</ele>
        <time>2019-06-12T12:07:05.247Z</time>
      </trkpt>
      <trkpt lat="44.23061" lon="6.49749">
        <ele>1956.30859375</ele>
        <time>2019-06-12T12:07:06.869Z</time>
      </trkpt>
      <trkpt lat="44.23065" lon="6.4976">
        <ele>1960.09375</ele>
        <time>2019-06-12T12:07:08.664Z</time>
      </trkpt>
      <trkpt lat="44.23069" lon="6.49773">
        <ele>1964.33984375</ele>
        <time>2019-06-12T12:07:10.771Z</time>
      </trkpt>
      <trkpt lat="44.23074" lon="6.49784">
        <ele>1968.5546875</ele>
        <time>2019-06-12T12:07:12.524Z</time>
      </trkpt>
      <trkpt lat="44.23076" lon="6.49796">
        <ele>1971.125</ele>
        <time>2019-06-12T12:07:14.311Z</time>
      </trkpt>
      <trkpt lat="44.23076" lon="6.49809">
        <ele>1972.33984375</ele>
        <time>2019-06-12T12:07:16.190Z</time>
      </trkpt>
      <trkpt lat="44.23073" lon="6.4982">
        <ele>1970.4140625</ele>
        <time>2019-06-12T12:07:17.882Z</time>
      </trkpt>
      <trkpt lat="44.23071" lon="6.49832">
        <ele>1970.71484375</ele>
        <time>2019-06-12T12:07:19.699Z</time>
      </trkpt>
      <trkpt lat="44.23071" lon="6.49844">
        <ele>1972.0234375</ele>
        <time>2019-06-12T12:07:21.383Z</time>
      </trkpt>
      <trkpt lat="44.23067" lon="6.49858">
        <ele>1971.07421875</ele>
        <time>2019-06-12T12:07:23.547Z</time>
      </trkpt>
      <trkpt lat="44.23066" lon="6.49871">
        <ele>1972.9375</ele>
        <time>2019-06-12T12:07:25.452Z</time>
      </trkpt>
      <trkpt lat="44.23067" lon="6.49881">
        <ele>1975.203125</ele>
        <time>2019-06-12T12:07:26.889Z</time>
      </trkpt>
      <trkpt lat="44.23068" lon="6.49891">
        <ele>1977.36328125</ele>
        <time>2019-06-12T12:07:28.238Z</time>
      </trkpt>
      <trkpt lat="44.23064" lon="6.49902">
        <ele>1977.6171875</ele>
        <time>2019-06-12T12:07:29.983Z</time>
      </trkpt>
      <trkpt lat="44.23062" lon="6.49915">
        <ele>1979.05078125</ele>
        <time>2019-06-12T12:07:31.946Z</time>
      </trkpt>
      <trkpt lat="44.23061" lon="6.49929">
        <ele>1981.30078125</ele>
        <time>2019-06-12T12:07:33.973Z</time>
      </trkpt>
      <trkpt lat="44.23055" lon="6.49941">
        <ele>1980.5390625</ele>
        <time>2019-06-12T12:07:36.083Z</time>
      </trkpt>
      <trkpt lat="44.23049" lon="6.49955">
        <ele>1980.66796875</ele>
        <time>2019-06-12T12:07:38.378Z</time>
      </trkpt>
      <trkpt lat="44.2304" lon="6.49969">
        <ele>1979.67578125</ele>
        <time>2019-06-12T12:07:41.015Z</time>
      </trkpt>
      <trkpt lat="44.23033" lon="6.49981">
        <ele>1978.66796875</ele>
        <time>2019-06-12T12:07:43.242Z</time>
      </trkpt>
      <trkpt lat="44.23026" lon="6.49993">
        <ele>1978.0078125</ele>
        <time>2019-06-12T12:07:45.439Z</time>
      </trkpt>
      <trkpt lat="44.23021" lon="6.50006">
        <ele>1976.28515625</ele>
        <time>2019-06-12T12:07:47.620Z</time>
      </trkpt>
      <trkpt lat="44.23014" lon="6.50023">
        <ele>1972.67578125</ele>
        <time>2019-06-12T12:07:50.415Z</time>
      </trkpt>
      <trkpt lat="44.23018" lon="6.50038">
        <ele>1976.55859375</ele>
        <time>2019-06-12T12:07:52.753Z</time>
      </trkpt>
      <trkpt lat="44.23021" lon="6.50053">
        <ele>1979.66796875</ele>
        <time>2019-06-12T12:07:54.949Z</time>
      </trkpt>
      <trkpt lat="44.23026" lon="6.50066">
        <ele>1982.32421875</ele>
        <time>2019-06-12T12:07:57.073Z</time>
      </trkpt>
      <trkpt lat="44.23029" lon="6.50076">
        <ele>1983.35546875</ele>
        <time>2019-06-12T12:07:58.706Z</time>
      </trkpt>
      <trkpt lat="44.23029" lon="6.50089">
        <ele>1982.890625</ele>
        <time>2019-06-12T12:08:00.476Z</time>
      </trkpt>
      <trkpt lat="44.23035" lon="6.50097">
        <ele>1986.33984375</ele>
        <time>2019-06-12T12:08:02.176Z</time>
      </trkpt>
      <trkpt lat="44.2304" lon="6.50112">
        <ele>1988.82421875</ele>
        <time>2019-06-12T12:08:04.447Z</time>
      </trkpt>
      <trkpt lat="44.23042" lon="6.50128">
        <ele>1988.19921875</ele>
        <time>2019-06-12T12:08:06.873Z</time>
      </trkpt>
      <trkpt lat="44.23047" lon="6.50143">
        <ele>1990.2109375</ele>
        <time>2019-06-12T12:08:09.209Z</time>
      </trkpt>
      <trkpt lat="44.23051" lon="6.50155">
        <ele>1991.640625</ele>
        <time>2019-06-12T12:08:11.151Z</time>
      </trkpt>
      <trkpt lat="44.23056" lon="6.50167">
        <ele>1995.1953125</ele>
        <time>2019-06-12T12:08:13.110Z</time>
      </trkpt>
      <trkpt lat="44.23061" lon="6.50182">
        <ele>1999.4375</ele>
        <time>2019-06-12T12:08:15.414Z</time>
      </trkpt>
      <trkpt lat="44.23066" lon="6.50196">
        <ele>2003.484375</ele>
        <time>2019-06-12T12:08:17.647Z</time>
      </trkpt>
      <trkpt lat="44.2307" lon="6.50209">
        <ele>2006.71875</ele>
        <time>2019-06-12T12:08:19.802Z</time>
      </trkpt>
      <trkpt lat="44.23071" lon="6.50224">
        <ele>2009.86328125</ele>
        <time>2019-06-12T12:08:21.906Z</time>
      </trkpt>
      <trkpt lat="44.23068" lon="6.50239">
        <ele>2012.2734375</ele>
        <time>2019-06-12T12:08:24.118Z</time>
      </trkpt>
      <trkpt lat="44.23061" lon="6.50249">
        <ele>2011.140625</ele>
        <time>2019-06-12T12:08:26.146Z</time>
      </trkpt>
      <trkpt lat="44.23052" lon="6.50259">
        <ele>2009.0234375</ele>
        <time>2019-06-12T12:08:28.364Z</time>
      </trkpt>
      <trkpt lat="44.23045" lon="6.50268">
        <ele>2008.13671875</ele>
        <time>2019-06-12T12:08:30.373Z</time>
      </trkpt>
      <trkpt lat="44.23037" lon="6.50275">
        <ele>2006.93359375</ele>
        <time>2019-06-12T12:08:32.311Z</time>
      </trkpt>
      <trkpt lat="44.23028" lon="6.50279">
        <ele>2004.37890625</ele>
        <time>2019-06-12T12:08:34.111Z</time>
      </trkpt>
      <trkpt lat="44.23021" lon="6.50286">
        <ele>2005.01171875</ele>
        <time>2019-06-12T12:08:35.986Z</time>
      </trkpt>
      <trkpt lat="44.23012" lon="6.50296">
        <ele>2006.40625</ele>
        <time>2019-06-12T12:08:38.171Z</time>
      </trkpt>
      <trkpt lat="44.23003" lon="6.50305">
        <ele>2006.91796875</ele>
        <time>2019-06-12T12:08:40.323Z</time>
      </trkpt>
      <trkpt lat="44.22994" lon="6.50311">
        <ele>2006.2890625</ele>
        <time>2019-06-12T12:08:42.437Z</time>
      </trkpt>
      <trkpt lat="44.22986" lon="6.50322">
        <ele>2007.796875</ele>
        <time>2019-06-12T12:08:44.591Z</time>
      </trkpt>
      <trkpt lat="44.2298" lon="6.50323">
        <ele>2006.125</ele>
        <time>2019-06-12T12:08:45.819Z</time>
      </trkpt>
      <trkpt lat="44.22973" lon="6.50331">
        <ele>2006.27734375</ele>
        <time>2019-06-12T12:08:47.634Z</time>
      </trkpt>
      <trkpt lat="44.22965" lon="6.50339">
        <ele>2005.7421875</ele>
        <time>2019-06-12T12:08:49.622Z</time>
      </trkpt>
      <trkpt lat="44.22957" lon="6.50347">
        <ele>2005.578125</ele>
        <time>2019-06-12T12:08:51.489Z</time>
      </trkpt>
      <trkpt lat="44.22951" lon="6.50353">
        <ele>2004.78125</ele>
        <time>2019-06-12T12:08:53.046Z</time>
      </trkpt>
      <trkpt lat="44.22942" lon="6.50359">
        <ele>2002.7421875</ele>
        <time>2019-06-12T12:08:55.094Z</time>
      </trkpt>
      <trkpt lat="44.22934" lon="6.50364">
        <ele>2000.6171875</ele>
        <time>2019-06-12T12:08:56.855Z</time>
      </trkpt>
      <trkpt lat="44.22928" lon="6.50371">
        <ele>1999.8125</ele>
        <time>2019-06-12T12:08:58.340Z</time>
      </trkpt>
      <trkpt lat="44.22928" lon="6.5038">
        <ele>2002.26953125</ele>
        <time>2019-06-12T12:08:59.697Z</time>
      </trkpt>
      <trkpt lat="44.2293" lon="6.50392">
        <ele>2002.71875</ele>
        <time>2019-06-12T12:09:01.480Z</time>
      </trkpt>
      <trkpt lat="44.22934" lon="6.504">
        <ele>2004.12890625</ele>
        <time>2019-06-12T12:09:02.903Z</time>
      </trkpt>
      <trkpt lat="44.22939" lon="6.50409">
        <ele>2005.8125</ele>
        <time>2019-06-12T12:09:04.445Z</time>
      </trkpt>
      <trkpt lat="44.22942" lon="6.50423">
        <ele>2006.484375</ele>
        <time>2019-06-12T12:09:06.489Z</time>
      </trkpt>
      <trkpt lat="44.22945" lon="6.50435">
        <ele>2007.64453125</ele>
        <time>2019-06-12T12:09:08.449Z</time>
      </trkpt>
      <trkpt lat="44.22949" lon="6.50448">
        <ele>2009.2265625</ele>
        <time>2019-06-12T12:09:10.368Z</time>
      </trkpt>
      <trkpt lat="44.22954" lon="6.50461">
        <ele>2011.4453125</ele>
        <time>2019-06-12T12:09:12.465Z</time>
      </trkpt>
      <trkpt lat="44.22957" lon="6.50474">
        <ele>2012.59765625</ele>
        <time>2019-06-12T12:09:14.440Z</time>
      </trkpt>
      <trkpt lat="44.22961" lon="6.50485">
        <ele>2014.953125</ele>
        <time>2019-06-12T12:09:16.287Z</time>
      </trkpt>
      <trkpt lat="44.22966" lon="6.50498">
        <ele>2017.92578125</ele>
        <time>2019-06-12T12:09:18.360Z</time>
      </trkpt>
      <trkpt lat="44.22968" lon="6.50511">
        <ele>2020.734375</ele>
        <time>2019-06-12T12:09:20.310Z</time>
      </trkpt>
      <trkpt lat="44.2297" lon="6.50524">
        <ele>2022.44921875</ele>
        <time>2019-06-12T12:09:22.137Z</time>
      </trkpt>
      <trkpt lat="44.22969" lon="6.50539">
        <ele>2022.69140625</ele>
        <time>2019-06-12T12:09:24.289Z</time>
      </trkpt>
      <trkpt lat="44.22965" lon="6.5055">
        <ele>2021.375</ele>
        <time>2019-06-12T12:09:26.105Z</time>
      </trkpt>
      <trkpt lat="44.2296" lon="6.50561">
        <ele>2020.04296875</ele>
        <time>2019-06-12T12:09:28.032Z</time>
      </trkpt>
      <trkpt lat="44.22953" lon="6.50571">
        <ele>2018.1640625</ele>
        <time>2019-06-12T12:09:29.990Z</time>
      </trkpt>
      <trkpt lat="44.22947" lon="6.50581">
        <ele>2017.125</ele>
        <time>2019-06-12T12:09:31.823Z</time>
      </trkpt>
      <trkpt lat="44.22942" lon="6.50591">
        <ele>2016.25390625</ele>
        <time>2019-06-12T12:09:33.666Z</time>
      </trkpt>
      <trkpt lat="44.22936" lon="6.50602">
        <ele>2015.50390625</ele>
        <time>2019-06-12T12:09:35.545Z</time>
      </trkpt>
      <trkpt lat="44.2293" lon="6.50612">
        <ele>2013.1640625</ele>
        <time>2019-06-12T12:09:37.496Z</time>
      </trkpt>
      <trkpt lat="44.22924" lon="6.50623">
        <ele>2010.90234375</ele>
        <time>2019-06-12T12:09:39.494Z</time>
      </trkpt>
      <trkpt lat="44.2292" lon="6.50635">
        <ele>2010.20703125</ele>
        <time>2019-06-12T12:09:41.406Z</time>
      </trkpt>
      <trkpt lat="44.22914" lon="6.50645">
        <ele>2008.1328125</ele>
        <time>2019-06-12T12:09:43.221Z</time>
      </trkpt>
      <trkpt lat="44.22908" lon="6.50655">
        <ele>2005.3125</ele>
        <time>2019-06-12T12:09:45.103Z</time>
      </trkpt>
      <trkpt lat="44.22905" lon="6.50667">
        <ele>2002.5859375</ele>
        <time>2019-06-12T12:09:47.003Z</time>
      </trkpt>
      <trkpt lat="44.22905" lon="6.50682">
        <ele>2000.6796875</ele>
        <time>2019-06-12T12:09:49.159Z</time>
      </trkpt>
      <trkpt lat="44.22906" lon="6.50695">
        <ele>1999.10546875</ele>
        <time>2019-06-12T12:09:50.925Z</time>
      </trkpt>
      <trkpt lat="44.22908" lon="6.50707">
        <ele>1998.28515625</ele>
        <time>2019-06-12T12:09:52.733Z</time>
      </trkpt>
      <trkpt lat="44.22911" lon="6.50719">
        <ele>1997.15625</ele>
        <time>2019-06-12T12:09:54.547Z</time>
      </trkpt>
      <trkpt lat="44.22913" lon="6.50731">
        <ele>1993.38671875</ele>
        <time>2019-06-12T12:09:56.303Z</time>
      </trkpt>
      <trkpt lat="44.22916" lon="6.50744">
        <ele>1989.36328125</ele>
        <time>2019-06-12T12:09:58.299Z</time>
      </trkpt>
      <trkpt lat="44.22923" lon="6.50753">
        <ele>1987.38671875</ele>
        <time>2019-06-12T12:10:00.204Z</time>
      </trkpt>
      <trkpt lat="44.2293" lon="6.50762">
        <ele>1986.18359375</ele>
        <time>2019-06-12T12:10:02.075Z</time>
      </trkpt>
      <trkpt lat="44.22937" lon="6.50763">
        <ele>1987.82421875</ele>
        <time>2019-06-12T12:10:03.415Z</time>
      </trkpt>
      <trkpt lat="44.22942" lon="6.50766">
        <ele>1988.2265625</ele>
        <time>2019-06-12T12:10:04.539Z</time>
      </trkpt>
      <trkpt lat="44.22952" lon="6.50775">
        <ele>1987.4453125</ele>
        <time>2019-06-12T12:10:06.979Z</time>
      </trkpt>
      <trkpt lat="44.22961" lon="6.50778">
        <ele>1989.109375</ele>
        <time>2019-06-12T12:10:08.828Z</time>
      </trkpt>
      <trkpt lat="44.22971" lon="6.50785">
        <ele>1989.2890625</ele>
        <time>2019-06-12T12:10:11.026Z</time>
      </trkpt>
      <trkpt lat="44.22979" lon="6.5079">
        <ele>1989.7578125</ele>
        <time>2019-06-12T12:10:12.885Z</time>
      </trkpt>
      <trkpt lat="44.22986" lon="6.50801">
        <ele>1987.23046875</ele>
        <time>2019-06-12T12:10:14.880Z</time>
      </trkpt>
      <trkpt lat="44.22994" lon="6.50806">
        <ele>1987.32421875</ele>
        <time>2019-06-12T12:10:16.659Z</time>
      </trkpt>
      <trkpt lat="44.23002" lon="6.50811">
        <ele>1987.125</ele>
        <time>2019-06-12T12:10:18.373Z</time>
      </trkpt>
      <trkpt lat="44.23011" lon="6.50816">
        <ele>1987.30859375</ele>
        <time>2019-06-12T12:10:20.312Z</time>
      </trkpt>
      <trkpt lat="44.2302" lon="6.50823">
        <ele>1987.3984375</ele>
        <time>2019-06-12T12:10:22.497Z</time>
      </trkpt>
      <trkpt lat="44.2303" lon="6.50827">
        <ele>1987.8984375</ele>
        <time>2019-06-12T12:10:24.502Z</time>
      </trkpt>
      <trkpt lat="44.23039" lon="6.50833">
        <ele>1987.484375</ele>
        <time>2019-06-12T12:10:26.548Z</time>
      </trkpt>
      <trkpt lat="44.23047" lon="6.5084">
        <ele>1986.25390625</ele>
        <time>2019-06-12T12:10:28.361Z</time>
      </trkpt>
      <trkpt lat="44.23053" lon="6.50847">
        <ele>1984.9140625</ele>
        <time>2019-06-12T12:10:29.974Z</time>
      </trkpt>
      <trkpt lat="44.23061" lon="6.50856">
        <ele>1983.046875</ele>
        <time>2019-06-12T12:10:32.026Z</time>
      </trkpt>
      <trkpt lat="44.23069" lon="6.50864">
        <ele>1981.33203125</ele>
        <time>2019-06-12T12:10:34.014Z</time>
      </trkpt>
      <trkpt lat="44.23078" lon="6.5087">
        <ele>1980.6953125</ele>
        <time>2019-06-12T12:10:35.888Z</time>
      </trkpt>
      <trkpt lat="44.23086" lon="6.50879">
        <ele>1978.6875</ele>
        <time>2019-06-12T12:10:37.994Z</time>
      </trkpt>
      <trkpt lat="44.23094" lon="6.50886">
        <ele>1978.03515625</ele>
        <time>2019-06-12T12:10:39.860Z</time>
      </trkpt>
      <trkpt lat="44.23101" lon="6.50888">
        <ele>1979.48046875</ele>
        <time>2019-06-12T12:10:41.296Z</time>
      </trkpt>
      <trkpt lat="44.23109" lon="6.50898">
        <ele>1978.7109375</ele>
        <time>2019-06-12T12:10:43.409Z</time>
      </trkpt>
      <trkpt lat="44.23117" lon="6.50907">
        <ele>1978.828125</ele>
        <time>2019-06-12T12:10:45.591Z</time>
      </trkpt>
      <trkpt lat="44.23126" lon="6.50917">
        <ele>1979.0703125</ele>
        <time>2019-06-12T12:10:47.922Z</time>
      </trkpt>
      <trkpt lat="44.23135" lon="6.50925">
        <ele>1980.25</ele>
        <time>2019-06-12T12:10:49.960Z</time>
      </trkpt>
      <trkpt lat="44.23142" lon="6.50935">
        <ele>1981.2265625</ele>
        <time>2019-06-12T12:10:51.879Z</time>
      </trkpt>
      <trkpt lat="44.2315" lon="6.50942">
        <ele>1985.04296875</ele>
        <time>2019-06-12T12:10:53.875Z</time>
      </trkpt>
      <trkpt lat="44.23158" lon="6.5095">
        <ele>1988.82421875</ele>
        <time>2019-06-12T12:10:55.851Z</time>
      </trkpt>
      <trkpt lat="44.23164" lon="6.50962">
        <ele>1992.08984375</ele>
        <time>2019-06-12T12:10:58.013Z</time>
      </trkpt>
      <trkpt lat="44.23165" lon="6.50976">
        <ele>1991.73828125</ele>
        <time>2019-06-12T12:11:00.033Z</time>
      </trkpt>
      <trkpt lat="44.23164" lon="6.5099">
        <ele>1990.52734375</ele>
        <time>2019-06-12T12:11:01.997Z</time>
      </trkpt>
      <trkpt lat="44.23164" lon="6.51005">
        <ele>1990.6171875</ele>
        <time>2019-06-12T12:11:04.160Z</time>
      </trkpt>
      <trkpt lat="44.23163" lon="6.51017">
        <ele>1989.78515625</ele>
        <time>2019-06-12T12:11:05.926Z</time>
      </trkpt>
      <trkpt lat="44.23162" lon="6.51032">
        <ele>1988.82421875</ele>
        <time>2019-06-12T12:11:08.013Z</time>
      </trkpt>
      <trkpt lat="44.2316" lon="6.51045">
        <ele>1987.6015625</ele>
        <time>2019-06-12T12:11:09.917Z</time>
      </trkpt>
      <trkpt lat="44.23157" lon="6.51057">
        <ele>1984.45703125</ele>
        <time>2019-06-12T12:11:11.707Z</time>
      </trkpt>
      <trkpt lat="44.23153" lon="6.5107">
        <ele>1980.42578125</ele>
        <time>2019-06-12T12:11:13.809Z</time>
      </trkpt>
      <trkpt lat="44.2315" lon="6.51083">
        <ele>1976.78515625</ele>
        <time>2019-06-12T12:11:15.787Z</time>
      </trkpt>
      <trkpt lat="44.23146" lon="6.51095">
        <ele>1972.6953125</ele>
        <time>2019-06-12T12:11:17.757Z</time>
      </trkpt>
      <trkpt lat="44.23145" lon="6.51109">
        <ele>1969.75390625</ele>
        <time>2019-06-12T12:11:19.644Z</time>
      </trkpt>
      <trkpt lat="44.23148" lon="6.51121">
        <ele>1966.99609375</ele>
        <time>2019-06-12T12:11:21.580Z</time>
      </trkpt>
      <trkpt lat="44.2315" lon="6.51133">
        <ele>1964.0703125</ele>
        <time>2019-06-12T12:11:23.222Z</time>
      </trkpt>
      <trkpt lat="44.23157" lon="6.51143">
        <ele>1964.05859375</ele>
        <time>2019-06-12T12:11:25.242Z</time>
      </trkpt>
      <trkpt lat="44.23165" lon="6.51153">
        <ele>1963.87890625</ele>
        <time>2019-06-12T12:11:27.399Z</time>
      </trkpt>
      <trkpt lat="44.23171" lon="6.51163">
        <ele>1962.796875</ele>
        <time>2019-06-12T12:11:29.226Z</time>
      </trkpt>
      <trkpt lat="44.23178" lon="6.51175">
        <ele>1961.29296875</ele>
        <time>2019-06-12T12:11:31.570Z</time>
      </trkpt>
      <trkpt lat="44.23188" lon="6.51186">
        <ele>1961.36328125</ele>
        <time>2019-06-12T12:11:34.033Z</time>
      </trkpt>
      <trkpt lat="44.23193" lon="6.51196">
        <ele>1959.2890625</ele>
        <time>2019-06-12T12:11:35.802Z</time>
      </trkpt>
      <trkpt lat="44.23201" lon="6.51204">
        <ele>1958.98046875</ele>
        <time>2019-06-12T12:11:37.781Z</time>
      </trkpt>
      <trkpt lat="44.23209" lon="6.51213">
        <ele>1958.59765625</ele>
        <time>2019-06-12T12:11:39.757Z</time>
      </trkpt>
      <trkpt lat="44.23213" lon="6.5122">
        <ele>1958.078125</ele>
        <time>2019-06-12T12:11:41.039Z</time>
      </trkpt>
      <trkpt lat="44.23222" lon="6.51227">
        <ele>1959.21484375</ele>
        <time>2019-06-12T12:11:43.132Z</time>
      </trkpt>
      <trkpt lat="44.23229" lon="6.51235">
        <ele>1960.0234375</ele>
        <time>2019-06-12T12:11:44.936Z</time>
      </trkpt>
      <trkpt lat="44.23237" lon="6.51244">
        <ele>1960.8828125</ele>
        <time>2019-06-12T12:11:47.056Z</time>
      </trkpt>
      <trkpt lat="44.23245" lon="6.51253">
        <ele>1961.73046875</ele>
        <time>2019-06-12T12:11:48.985Z</time>
      </trkpt>
      <trkpt lat="44.23251" lon="6.51264">
        <ele>1961.37890625</ele>
        <time>2019-06-12T12:11:51.060Z</time>
      </trkpt>
      <trkpt lat="44.23258" lon="6.51276">
        <ele>1965.19921875</ele>
        <time>2019-06-12T12:11:53.271Z</time>
      </trkpt>
      <trkpt lat="44.23266" lon="6.51287">
        <ele>1971.421875</ele>
        <time>2019-06-12T12:11:55.530Z</time>
      </trkpt>
      <trkpt lat="44.23273" lon="6.51298">
        <ele>1976.8359375</ele>
        <time>2019-06-12T12:11:57.563Z</time>
      </trkpt>
      <trkpt lat="44.2327" lon="6.51309">
        <ele>1976.7734375</ele>
        <time>2019-06-12T12:11:59.251Z</time>
      </trkpt>
      <trkpt lat="44.23263" lon="6.51318">
        <ele>1974.5</ele>
        <time>2019-06-12T12:12:01.202Z</time>
      </trkpt>
      <trkpt lat="44.23256" lon="6.51326">
        <ele>1971.6328125</ele>
        <time>2019-06-12T12:12:03.011Z</time>
      </trkpt>
      <trkpt lat="44.23248" lon="6.51335">
        <ele>1968.8828125</ele>
        <time>2019-06-12T12:12:05.144Z</time>
      </trkpt>
      <trkpt lat="44.23242" lon="6.51343">
        <ele>1967.3671875</ele>
        <time>2019-06-12T12:12:06.803Z</time>
      </trkpt>
      <trkpt lat="44.23236" lon="6.51353">
        <ele>1966.35546875</ele>
        <time>2019-06-12T12:12:08.703Z</time>
      </trkpt>
      <trkpt lat="44.23228" lon="6.51362">
        <ele>1964.60546875</ele>
        <time>2019-06-12T12:12:10.681Z</time>
      </trkpt>
      <trkpt lat="44.23219" lon="6.51371">
        <ele>1962.28125</ele>
        <time>2019-06-12T12:12:12.982Z</time>
      </trkpt>
      <trkpt lat="44.23211" lon="6.51379">
        <ele>1960.71484375</ele>
        <time>2019-06-12T12:12:14.928Z</time>
      </trkpt>
      <trkpt lat="44.23203" lon="6.51387">
        <ele>1957.85546875</ele>
        <time>2019-06-12T12:12:16.831Z</time>
      </trkpt>
      <trkpt lat="44.23194" lon="6.51393">
        <ele>1954.4296875</ele>
        <time>2019-06-12T12:12:18.860Z</time>
      </trkpt>
      <trkpt lat="44.23185" lon="6.51399">
        <ele>1951.3046875</ele>
        <time>2019-06-12T12:12:20.840Z</time>
      </trkpt>
      <trkpt lat="44.23177" lon="6.51405">
        <ele>1948.71875</ele>
        <time>2019-06-12T12:12:22.697Z</time>
      </trkpt>
      <trkpt lat="44.23169" lon="6.51413">
        <ele>1946.171875</ele>
        <time>2019-06-12T12:12:24.622Z</time>
      </trkpt>
      <trkpt lat="44.23162" lon="6.5142">
        <ele>1944.03515625</ele>
        <time>2019-06-12T12:12:26.397Z</time>
      </trkpt>
      <trkpt lat="44.23152" lon="6.51427">
        <ele>1941.0234375</ele>
        <time>2019-06-12T12:12:28.592Z</time>
      </trkpt>
      <trkpt lat="44.23144" lon="6.51433">
        <ele>1938.7109375</ele>
        <time>2019-06-12T12:12:30.391Z</time>
      </trkpt>
      <trkpt lat="44.23144" lon="6.51444">
        <ele>1937.72265625</ele>
        <time>2019-06-12T12:12:31.948Z</time>
      </trkpt>
      <trkpt lat="44.23153" lon="6.51453">
        <ele>1939.11328125</ele>
        <time>2019-06-12T12:12:34.114Z</time>
      </trkpt>
      <trkpt lat="44.23152" lon="6.51463">
        <ele>1937.04296875</ele>
        <time>2019-06-12T12:12:35.582Z</time>
      </trkpt>
      <trkpt lat="44.23152" lon="6.51471">
        <ele>1935.515625</ele>
        <time>2019-06-12T12:12:36.753Z</time>
      </trkpt>
      <trkpt lat="44.23155" lon="6.51481">
        <ele>1934.51953125</ele>
        <time>2019-06-12T12:12:38.352Z</time>
      </trkpt>
      <trkpt lat="44.23156" lon="6.5149">
        <ele>1933.1484375</ele>
        <time>2019-06-12T12:12:39.634Z</time>
      </trkpt>
      <trkpt lat="44.23159" lon="6.51502">
        <ele>1930.234375</ele>
        <time>2019-06-12T12:12:41.420Z</time>
      </trkpt>
      <trkpt lat="44.23163" lon="6.51513">
        <ele>1927.046875</ele>
        <time>2019-06-12T12:12:43.186Z</time>
      </trkpt>
      <trkpt lat="44.23168" lon="6.51526">
        <ele>1923.8125</ele>
        <time>2019-06-12T12:12:45.234Z</time>
      </trkpt>
      <trkpt lat="44.23178" lon="6.51528">
        <ele>1925.5078125</ele>
        <time>2019-06-12T12:12:47.261Z</time>
      </trkpt>
      <trkpt lat="44.23169" lon="6.5153">
        <ele>1922.484375</ele>
        <time>2019-06-12T12:12:49.068Z</time>
      </trkpt>
      <trkpt lat="44.2318" lon="6.5153">
        <ele>1925.421875</ele>
        <time>2019-06-12T12:12:51.330Z</time>
      </trkpt>
      <trkpt lat="44.23175" lon="6.51539">
        <ele>1920.42578125</ele>
        <time>2019-06-12T12:12:53.137Z</time>
      </trkpt>
      <trkpt lat="44.23172" lon="6.51558">
        <ele>1913.92578125</ele>
        <time>2019-06-12T12:12:55.785Z</time>
      </trkpt>
      <trkpt lat="44.23174" lon="6.5157">
        <ele>1910.60546875</ele>
        <time>2019-06-12T12:12:57.641Z</time>
      </trkpt>
      <trkpt lat="44.23174" lon="6.5158">
        <ele>1907.6640625</ele>
        <time>2019-06-12T12:12:59.060Z</time>
      </trkpt>
      <trkpt lat="44.23171" lon="6.51586">
        <ele>1905.05859375</ele>
        <time>2019-06-12T12:13:00.151Z</time>
      </trkpt>
      <trkpt lat="44.23161" lon="6.51596">
        <ele>1899.80078125</ele>
        <time>2019-06-12T12:13:02.488Z</time>
      </trkpt>
      <trkpt lat="44.23154" lon="6.51602">
        <ele>1896.30078125</ele>
        <time>2019-06-12T12:13:04.210Z</time>
      </trkpt>
      <trkpt lat="44.23148" lon="6.51606">
        <ele>1894.17578125</ele>
        <time>2019-06-12T12:13:05.568Z</time>
      </trkpt>
      <trkpt lat="44.2314" lon="6.51614">
        <ele>1891.5859375</ele>
        <time>2019-06-12T12:13:07.543Z</time>
      </trkpt>
      <trkpt lat="44.23129" lon="6.51625">
        <ele>1886.85546875</ele>
        <time>2019-06-12T12:13:10.262Z</time>
      </trkpt>
      <trkpt lat="44.2312" lon="6.51627">
        <ele>1883.61328125</ele>
        <time>2019-06-12T12:13:11.967Z</time>
      </trkpt>
      <trkpt lat="44.23114" lon="6.51633">
        <ele>1880.89453125</ele>
        <time>2019-06-12T12:13:13.416Z</time>
      </trkpt>
      <trkpt lat="44.23112" lon="6.51638">
        <ele>1879.61328125</ele>
        <time>2019-06-12T12:13:14.210Z</time>
      </trkpt>
      <trkpt lat="44.23112" lon="6.51649">
        <ele>1878.63671875</ele>
        <time>2019-06-12T12:13:15.785Z</time>
      </trkpt>
      <trkpt lat="44.23111" lon="6.51655">
        <ele>1877.4375</ele>
        <time>2019-06-12T12:13:16.771Z</time>
      </trkpt>
      <trkpt lat="44.23105" lon="6.51664">
        <ele>1876.2890625</ele>
        <time>2019-06-12T12:13:18.577Z</time>
      </trkpt>
      <trkpt lat="44.23102" lon="6.51673">
        <ele>1878.0546875</ele>
        <time>2019-06-12T12:13:19.989Z</time>
      </trkpt>
      <trkpt lat="44.23105" lon="6.5168">
        <ele>1881.3515625</ele>
        <time>2019-06-12T12:13:21.108Z</time>
      </trkpt>
      <trkpt lat="44.23097" lon="6.51684">
        <ele>1879.12890625</ele>
        <time>2019-06-12T12:13:22.843Z</time>
      </trkpt>
      <trkpt lat="44.2309" lon="6.51687">
        <ele>1876.96484375</ele>
        <time>2019-06-12T12:13:24.345Z</time>
      </trkpt>
      <trkpt lat="44.23086" lon="6.51684">
        <ele>1873.9609375</ele>
        <time>2019-06-12T12:13:25.386Z</time>
      </trkpt>
      <trkpt lat="44.23084" lon="6.51685">
        <ele>1873.6328125</ele>
        <time>2019-06-12T12:13:25.733Z</time>
      </trkpt>
      <trkpt lat="44.23073" lon="6.51684">
        <ele>1873.4296875</ele>
        <time>2019-06-12T12:13:27.909Z</time>
      </trkpt>
      <trkpt lat="44.23069" lon="6.51681">
        <ele>1872.76953125</ele>
        <time>2019-06-12T12:13:28.862Z</time>
      </trkpt>
      <trkpt lat="44.23063" lon="6.51674">
        <ele>1870.63671875</ele>
        <time>2019-06-12T12:13:30.448Z</time>
      </trkpt>
      <trkpt lat="44.23054" lon="6.51668">
        <ele>1868.671875</ele>
        <time>2019-06-12T12:13:32.455Z</time>
      </trkpt>
      <trkpt lat="44.23045" lon="6.51664">
        <ele>1867.48046875</ele>
        <time>2019-06-12T12:13:34.343Z</time>
      </trkpt>
      <trkpt lat="44.23037" lon="6.51664">
        <ele>1867.31640625</ele>
        <time>2019-06-12T12:13:35.980Z</time>
      </trkpt>
      <trkpt lat="44.23031" lon="6.51663">
        <ele>1866.90625</ele>
        <time>2019-06-12T12:13:37.056Z</time>
      </trkpt>
      <trkpt lat="44.23022" lon="6.51666">
        <ele>1869.359375</ele>
        <time>2019-06-12T12:13:39.046Z</time>
      </trkpt>
      <trkpt lat="44.23011" lon="6.51667">
        <ele>1871.87890625</ele>
        <time>2019-06-12T12:13:41.127Z</time>
      </trkpt>
      <trkpt lat="44.23004" lon="6.51669">
        <ele>1874.1171875</ele>
        <time>2019-06-12T12:13:42.524Z</time>
      </trkpt>
      <trkpt lat="44.22996" lon="6.51671">
        <ele>1876.7109375</ele>
        <time>2019-06-12T12:13:44.170Z</time>
      </trkpt>
      <trkpt lat="44.22988" lon="6.51673">
        <ele>1879.41796875</ele>
        <time>2019-06-12T12:13:45.950Z</time>
      </trkpt>
      <trkpt lat="44.22981" lon="6.51672">
        <ele>1880.3671875</ele>
        <time>2019-06-12T12:13:47.354Z</time>
      </trkpt>
      <trkpt lat="44.22973" lon="6.51673">
        <ele>1882.60546875</ele>
        <time>2019-06-12T12:13:48.984Z</time>
      </trkpt>
      <trkpt lat="44.22963" lon="6.51676">
        <ele>1885.37890625</ele>
        <time>2019-06-12T12:13:50.909Z</time>
      </trkpt>
      <trkpt lat="44.22955" lon="6.51674">
        <ele>1885.82421875</ele>
        <time>2019-06-12T12:13:52.567Z</time>
      </trkpt>
      <trkpt lat="44.22947" lon="6.51672">
        <ele>1886.09375</ele>
        <time>2019-06-12T12:13:54.209Z</time>
      </trkpt>
      <trkpt lat="44.22938" lon="6.51668">
        <ele>1885.68359375</ele>
        <time>2019-06-12T12:13:56.147Z</time>
      </trkpt>
      <trkpt lat="44.22929" lon="6.51664">
        <ele>1885.57421875</ele>
        <time>2019-06-12T12:13:57.970Z</time>
      </trkpt>
      <trkpt lat="44.22921" lon="6.51664">
        <ele>1886.5546875</ele>
        <time>2019-06-12T12:13:59.592Z</time>
      </trkpt>
      <trkpt lat="44.22912" lon="6.51665">
        <ele>1888.390625</ele>
        <time>2019-06-12T12:14:01.362Z</time>
      </trkpt>
      <trkpt lat="44.22902" lon="6.51664">
        <ele>1889.42578125</ele>
        <time>2019-06-12T12:14:03.275Z</time>
      </trkpt>
      <trkpt lat="44.22893" lon="6.51662">
        <ele>1890.15625</ele>
        <time>2019-06-12T12:14:05.087Z</time>
      </trkpt>
      <trkpt lat="44.22885" lon="6.51656">
        <ele>1888.890625</ele>
        <time>2019-06-12T12:14:06.965Z</time>
      </trkpt>
      <trkpt lat="44.22877" lon="6.51649">
        <ele>1887.57421875</ele>
        <time>2019-06-12T12:14:08.922Z</time>
      </trkpt>
      <trkpt lat="44.22868" lon="6.51644">
        <ele>1887.4921875</ele>
        <time>2019-06-12T12:14:10.786Z</time>
      </trkpt>
      <trkpt lat="44.22861" lon="6.51638">
        <ele>1886.85546875</ele>
        <time>2019-06-12T12:14:12.544Z</time>
      </trkpt>
      <trkpt lat="44.22852" lon="6.51633">
        <ele>1886.00390625</ele>
        <time>2019-06-12T12:14:14.460Z</time>
      </trkpt>
      <trkpt lat="44.22843" lon="6.51627">
        <ele>1885.375</ele>
        <time>2019-06-12T12:14:16.432Z</time>
      </trkpt>
      <trkpt lat="44.22835" lon="6.51622">
        <ele>1885.0546875</ele>
        <time>2019-06-12T12:14:18.061Z</time>
      </trkpt>
      <trkpt lat="44.22828" lon="6.51615">
        <ele>1884.41796875</ele>
        <time>2019-06-12T12:14:19.886Z</time>
      </trkpt>
      <trkpt lat="44.22819" lon="6.5161">
        <ele>1884.70703125</ele>
        <time>2019-06-12T12:14:21.834Z</time>
      </trkpt>
      <trkpt lat="44.2281" lon="6.51607">
        <ele>1885.69921875</ele>
        <time>2019-06-12T12:14:23.580Z</time>
      </trkpt>
      <trkpt lat="44.22805" lon="6.51605">
        <ele>1886.28515625</ele>
        <time>2019-06-12T12:14:24.667Z</time>
      </trkpt>
      <trkpt lat="44.22794" lon="6.51604">
        <ele>1883.88671875</ele>
        <time>2019-06-12T12:14:26.988Z</time>
      </trkpt>
      <trkpt lat="44.22783" lon="6.51605">
        <ele>1881.875</ele>
        <time>2019-06-12T12:14:29.053Z</time>
      </trkpt>
      <trkpt lat="44.22773" lon="6.51607">
        <ele>1879.8671875</ele>
        <time>2019-06-12T12:14:31.117Z</time>
      </trkpt>
      <trkpt lat="44.22773" lon="6.51619">
        <ele>1880.578125</ele>
        <time>2019-06-12T12:14:32.884Z</time>
      </trkpt>
      <trkpt lat="44.22773" lon="6.51631">
        <ele>1881.23046875</ele>
        <time>2019-06-12T12:14:34.579Z</time>
      </trkpt>
      <trkpt lat="44.22774" lon="6.51645">
        <ele>1882.3828125</ele>
        <time>2019-06-12T12:14:36.568Z</time>
      </trkpt>
      <trkpt lat="44.22776" lon="6.51657">
        <ele>1883.6640625</ele>
        <time>2019-06-12T12:14:38.321Z</time>
      </trkpt>
      <trkpt lat="44.22778" lon="6.5167">
        <ele>1885.27734375</ele>
        <time>2019-06-12T12:14:40.292Z</time>
      </trkpt>
      <trkpt lat="44.2278" lon="6.51683">
        <ele>1887.03125</ele>
        <time>2019-06-12T12:14:42.170Z</time>
      </trkpt>
      <trkpt lat="44.22781" lon="6.51696">
        <ele>1888.51953125</ele>
        <time>2019-06-12T12:14:44.047Z</time>
      </trkpt>
      <trkpt lat="44.22783" lon="6.51708">
        <ele>1889.99609375</ele>
        <time>2019-06-12T12:14:45.726Z</time>
      </trkpt>
      <trkpt lat="44.22784" lon="6.51721">
        <ele>1891.359375</ele>
        <time>2019-06-12T12:14:47.599Z</time>
      </trkpt>
      <trkpt lat="44.22782" lon="6.51731">
        <ele>1891.12109375</ele>
        <time>2019-06-12T12:14:49.096Z</time>
      </trkpt>
      <trkpt lat="44.22782" lon="6.5174">
        <ele>1891.546875</ele>
        <time>2019-06-12T12:14:50.354Z</time>
      </trkpt>
      <trkpt lat="44.22782" lon="6.51753">
        <ele>1891.94921875</ele>
        <time>2019-06-12T12:14:52.298Z</time>
      </trkpt>
      <trkpt lat="44.22784" lon="6.51767">
        <ele>1893.94921875</ele>
        <time>2019-06-12T12:14:54.340Z</time>
      </trkpt>
      <trkpt lat="44.22785" lon="6.5178">
        <ele>1895.23046875</ele>
        <time>2019-06-12T12:14:56.243Z</time>
      </trkpt>
      <trkpt lat="44.22781" lon="6.51792">
        <ele>1893.4765625</ele>
        <time>2019-06-12T12:14:58.128Z</time>
      </trkpt>
      <trkpt lat="44.22778" lon="6.51803">
        <ele>1892.34765625</ele>
        <time>2019-06-12T12:14:59.691Z</time>
      </trkpt>
      <trkpt lat="44.22777" lon="6.51813">
        <ele>1892.29296875</ele>
        <time>2019-06-12T12:15:01.130Z</time>
      </trkpt>
      <trkpt lat="44.22778" lon="6.51826">
        <ele>1893.09375</ele>
        <time>2019-06-12T12:15:03.012Z</time>
      </trkpt>
      <trkpt lat="44.22777" lon="6.51837">
        <ele>1893.44140625</ele>
        <time>2019-06-12T12:15:04.640Z</time>
      </trkpt>
      <trkpt lat="44.22774" lon="6.51849">
        <ele>1892.109375</ele>
        <time>2019-06-12T12:15:06.448Z</time>
      </trkpt>
      <trkpt lat="44.22772" lon="6.51861">
        <ele>1891.0625</ele>
        <time>2019-06-12T12:15:08.318Z</time>
      </trkpt>
      <trkpt lat="44.22768" lon="6.51874">
        <ele>1889.6640625</ele>
        <time>2019-06-12T12:15:10.265Z</time>
      </trkpt>
      <trkpt lat="44.22767" lon="6.51886">
        <ele>1889.1875</ele>
        <time>2019-06-12T12:15:11.926Z</time>
      </trkpt>
      <trkpt lat="44.22764" lon="6.51898">
        <ele>1888.25390625</ele>
        <time>2019-06-12T12:15:13.760Z</time>
      </trkpt>
      <trkpt lat="44.22762" lon="6.5191">
        <ele>1887.11328125</ele>
        <time>2019-06-12T12:15:15.589Z</time>
      </trkpt>
      <trkpt lat="44.22758" lon="6.51923">
        <ele>1885.50390625</ele>
        <time>2019-06-12T12:15:17.549Z</time>
      </trkpt>
      <trkpt lat="44.2276" lon="6.51934">
        <ele>1886.83984375</ele>
        <time>2019-06-12T12:15:19.163Z</time>
      </trkpt>
      <trkpt lat="44.22758" lon="6.51946">
        <ele>1887.20703125</ele>
        <time>2019-06-12T12:15:20.994Z</time>
      </trkpt>
      <trkpt lat="44.22751" lon="6.51955">
        <ele>1885.27734375</ele>
        <time>2019-06-12T12:15:22.774Z</time>
      </trkpt>
      <trkpt lat="44.22749" lon="6.51956">
        <ele>1884.76171875</ele>
        <time>2019-06-12T12:15:23.316Z</time>
      </trkpt>
      <trkpt lat="44.22741" lon="6.51949">
        <ele>1885.0546875</ele>
        <time>2019-06-12T12:15:25.160Z</time>
      </trkpt>
      <trkpt lat="44.22735" lon="6.51939">
        <ele>1884.01953125</ele>
        <time>2019-06-12T12:15:26.963Z</time>
      </trkpt>
      <trkpt lat="44.22731" lon="6.51928">
        <ele>1883.1171875</ele>
        <time>2019-06-12T12:15:28.753Z</time>
      </trkpt>
      <trkpt lat="44.22727" lon="6.51919">
        <ele>1882.3046875</ele>
        <time>2019-06-12T12:15:30.340Z</time>
      </trkpt>
      <trkpt lat="44.2273" lon="6.51907">
        <ele>1880.49609375</ele>
        <time>2019-06-12T12:15:32.224Z</time>
      </trkpt>
      <trkpt lat="44.22723" lon="6.51894">
        <ele>1878.66015625</ele>
        <time>2019-06-12T12:15:34.619Z</time>
      </trkpt>
      <trkpt lat="44.22716" lon="6.51884">
        <ele>1876.58984375</ele>
        <time>2019-06-12T12:15:36.584Z</time>
      </trkpt>
      <trkpt lat="44.2271" lon="6.51875">
        <ele>1874.125</ele>
        <time>2019-06-12T12:15:38.385Z</time>
      </trkpt>
      <trkpt lat="44.22703" lon="6.51863">
        <ele>1870.390625</ele>
        <time>2019-06-12T12:15:40.538Z</time>
      </trkpt>
      <trkpt lat="44.22696" lon="6.51856">
        <ele>1867.3671875</ele>
        <time>2019-06-12T12:15:42.178Z</time>
      </trkpt>
      <trkpt lat="44.2269" lon="6.5185">
        <ele>1867.171875</ele>
        <time>2019-06-12T12:15:43.749Z</time>
      </trkpt>
      <trkpt lat="44.22683" lon="6.51844">
        <ele>1869.0859375</ele>
        <time>2019-06-12T12:15:45.372Z</time>
      </trkpt>
      <trkpt lat="44.22678" lon="6.51838">
        <ele>1869.67578125</ele>
        <time>2019-06-12T12:15:46.758Z</time>
      </trkpt>
      <trkpt lat="44.2267" lon="6.51832">
        <ele>1871.34765625</ele>
        <time>2019-06-12T12:15:48.465Z</time>
      </trkpt>
      <trkpt lat="44.22662" lon="6.51828">
        <ele>1873.890625</ele>
        <time>2019-06-12T12:15:50.178Z</time>
      </trkpt>
      <trkpt lat="44.22654" lon="6.51828">
        <ele>1877.8125</ele>
        <time>2019-06-12T12:15:51.905Z</time>
      </trkpt>
      <trkpt lat="44.22644" lon="6.51826">
        <ele>1881.87109375</ele>
        <time>2019-06-12T12:15:53.868Z</time>
      </trkpt>
      <trkpt lat="44.22635" lon="6.51827">
        <ele>1886.21875</ele>
        <time>2019-06-12T12:15:55.742Z</time>
      </trkpt>
      <trkpt lat="44.22626" lon="6.51824">
        <ele>1888.84375</ele>
        <time>2019-06-12T12:15:57.550Z</time>
      </trkpt>
      <trkpt lat="44.22617" lon="6.51821">
        <ele>1891.18359375</ele>
        <time>2019-06-12T12:15:59.311Z</time>
      </trkpt>
      <trkpt lat="44.2261" lon="6.51813">
        <ele>1891.37109375</ele>
        <time>2019-06-12T12:16:01.101Z</time>
      </trkpt>
      <trkpt lat="44.22603" lon="6.51804">
        <ele>1891.04296875</ele>
        <time>2019-06-12T12:16:03.094Z</time>
      </trkpt>
      <trkpt lat="44.22596" lon="6.51796">
        <ele>1891.08203125</ele>
        <time>2019-06-12T12:16:04.866Z</time>
      </trkpt>
      <trkpt lat="44.22588" lon="6.51792">
        <ele>1893.13671875</ele>
        <time>2019-06-12T12:16:06.499Z</time>
      </trkpt>
      <trkpt lat="44.2258" lon="6.51789">
        <ele>1895.41796875</ele>
        <time>2019-06-12T12:16:08.236Z</time>
      </trkpt>
      <trkpt lat="44.22576" lon="6.51776">
        <ele>1892.46875</ele>
        <time>2019-06-12T12:16:10.235Z</time>
      </trkpt>
      <trkpt lat="44.22571" lon="6.51765">
        <ele>1890.96484375</ele>
        <time>2019-06-12T12:16:12.075Z</time>
      </trkpt>
      <trkpt lat="44.22563" lon="6.51759">
        <ele>1892.53515625</ele>
        <time>2019-06-12T12:16:14.009Z</time>
      </trkpt>
      <trkpt lat="44.22554" lon="6.51756">
        <ele>1896.06640625</ele>
        <time>2019-06-12T12:16:15.851Z</time>
      </trkpt>
      <trkpt lat="44.2255" lon="6.51744">
        <ele>1894.16796875</ele>
        <time>2019-06-12T12:16:17.703Z</time>
      </trkpt>
      <trkpt lat="44.22542" lon="6.51737">
        <ele>1896.09375</ele>
        <time>2019-06-12T12:16:19.639Z</time>
      </trkpt>
      <trkpt lat="44.22535" lon="6.51728">
        <ele>1897.52734375</ele>
        <time>2019-06-12T12:16:21.551Z</time>
      </trkpt>
      <trkpt lat="44.22528" lon="6.51715">
        <ele>1898.046875</ele>
        <time>2019-06-12T12:16:23.846Z</time>
      </trkpt>
      <trkpt lat="44.2252" lon="6.51706">
        <ele>1899.23828125</ele>
        <time>2019-06-12T12:16:25.812Z</time>
      </trkpt>
      <trkpt lat="44.22515" lon="6.51695">
        <ele>1899.15625</ele>
        <time>2019-06-12T12:16:27.807Z</time>
      </trkpt>
      <trkpt lat="44.22506" lon="6.51689">
        <ele>1901.765625</ele>
        <time>2019-06-12T12:16:29.713Z</time>
      </trkpt>
      <trkpt lat="44.22499" lon="6.51682">
        <ele>1904.1328125</ele>
        <time>2019-06-12T12:16:31.449Z</time>
      </trkpt>
      <trkpt lat="44.22493" lon="6.51672">
        <ele>1905.34375</ele>
        <time>2019-06-12T12:16:33.375Z</time>
      </trkpt>
      <trkpt lat="44.22483" lon="6.51661">
        <ele>1908.90625</ele>
        <time>2019-06-12T12:16:35.824Z</time>
      </trkpt>
      <trkpt lat="44.22476" lon="6.51653">
        <ele>1911.75</ele>
        <time>2019-06-12T12:16:37.772Z</time>
      </trkpt>
      <trkpt lat="44.22468" lon="6.51642">
        <ele>1912.83984375</ele>
        <time>2019-06-12T12:16:39.878Z</time>
      </trkpt>
      <trkpt lat="44.22459" lon="6.51635">
        <ele>1913.58984375</ele>
        <time>2019-06-12T12:16:41.982Z</time>
      </trkpt>
      <trkpt lat="44.22452" lon="6.51626">
        <ele>1914.08984375</ele>
        <time>2019-06-12T12:16:43.958Z</time>
      </trkpt>
      <trkpt lat="44.22444" lon="6.51617">
        <ele>1915.04296875</ele>
        <time>2019-06-12T12:16:45.951Z</time>
      </trkpt>
      <trkpt lat="44.22439" lon="6.51616">
        <ele>1916.26171875</ele>
        <time>2019-06-12T12:16:46.899Z</time>
      </trkpt>
      <trkpt lat="44.22436" lon="6.51626">
        <ele>1917.98046875</ele>
        <time>2019-06-12T12:16:48.407Z</time>
      </trkpt>
      <trkpt lat="44.22433" lon="6.51628">
        <ele>1918.9921875</ele>
        <time>2019-06-12T12:16:49.157Z</time>
      </trkpt>
      <trkpt lat="44.2243" lon="6.51637">
        <ele>1920.39453125</ele>
        <time>2019-06-12T12:16:50.570Z</time>
      </trkpt>
      <trkpt lat="44.22434" lon="6.51624">
        <ele>1918.359375</ele>
        <time>2019-06-12T12:16:52.581Z</time>
      </trkpt>
      <trkpt lat="44.22437" lon="6.5164">
        <ele>1919.12109375</ele>
        <time>2019-06-12T12:16:54.902Z</time>
      </trkpt>
      <trkpt lat="44.22438" lon="6.51654">
        <ele>1920.0859375</ele>
        <time>2019-06-12T12:16:56.931Z</time>
      </trkpt>
      <trkpt lat="44.22439" lon="6.51665">
        <ele>1920.6171875</ele>
        <time>2019-06-12T12:16:58.460Z</time>
      </trkpt>
      <trkpt lat="44.22441" lon="6.51678">
        <ele>1921.09375</ele>
        <time>2019-06-12T12:17:00.374Z</time>
      </trkpt>
      <trkpt lat="44.22444" lon="6.51691">
        <ele>1921.6015625</ele>
        <time>2019-06-12T12:17:02.318Z</time>
      </trkpt>
      <trkpt lat="44.2244" lon="6.51699">
        <ele>1922.37890625</ele>
        <time>2019-06-12T12:17:03.739Z</time>
      </trkpt>
      <trkpt lat="44.22434" lon="6.51708">
        <ele>1923.140625</ele>
        <time>2019-06-12T12:17:05.476Z</time>
      </trkpt>
      <trkpt lat="44.22434" lon="6.5172">
        <ele>1923.53515625</ele>
        <time>2019-06-12T12:17:07.248Z</time>
      </trkpt>
      <trkpt lat="44.22432" lon="6.51732">
        <ele>1923.8359375</ele>
        <time>2019-06-12T12:17:09.042Z</time>
      </trkpt>
      <trkpt lat="44.22428" lon="6.51747">
        <ele>1923.9921875</ele>
        <time>2019-06-12T12:17:11.292Z</time>
      </trkpt>
      <trkpt lat="44.22426" lon="6.51761">
        <ele>1924</ele>
        <time>2019-06-12T12:17:13.327Z</time>
      </trkpt>
      <trkpt lat="44.2243" lon="6.51774">
        <ele>1924.48828125</ele>
        <time>2019-06-12T12:17:15.226Z</time>
      </trkpt>
      <trkpt lat="44.22429" lon="6.51786">
        <ele>1924.6953125</ele>
        <time>2019-06-12T12:17:17.047Z</time>
      </trkpt>
      <trkpt lat="44.22426" lon="6.51802">
        <ele>1924.25390625</ele>
        <time>2019-06-12T12:17:19.473Z</time>
      </trkpt>
      <trkpt lat="44.22423" lon="6.51817">
        <ele>1923.77734375</ele>
        <time>2019-06-12T12:17:21.652Z</time>
      </trkpt>
      <trkpt lat="44.22423" lon="6.51831">
        <ele>1923.87109375</ele>
        <time>2019-06-12T12:17:23.610Z</time>
      </trkpt>
      <trkpt lat="44.22421" lon="6.51839">
        <ele>1923.4765625</ele>
        <time>2019-06-12T12:17:24.803Z</time>
      </trkpt>
      <trkpt lat="44.22419" lon="6.51853">
        <ele>1923.25</ele>
        <time>2019-06-12T12:17:26.974Z</time>
      </trkpt>
      <trkpt lat="44.22416" lon="6.51866">
        <ele>1922.43359375</ele>
        <time>2019-06-12T12:17:28.873Z</time>
      </trkpt>
      <trkpt lat="44.22414" lon="6.51878">
        <ele>1921.58203125</ele>
        <time>2019-06-12T12:17:30.658Z</time>
      </trkpt>
      <trkpt lat="44.22413" lon="6.5189">
        <ele>1921.5234375</ele>
        <time>2019-06-12T12:17:32.371Z</time>
      </trkpt>
      <trkpt lat="44.22411" lon="6.51902">
        <ele>1921.16796875</ele>
        <time>2019-06-12T12:17:34.150Z</time>
      </trkpt>
      <trkpt lat="44.22417" lon="6.51911">
        <ele>1924.58984375</ele>
        <time>2019-06-12T12:17:35.762Z</time>
      </trkpt>
      <trkpt lat="44.22418" lon="6.51923">
        <ele>1926.2265625</ele>
        <time>2019-06-12T12:17:37.498Z</time>
      </trkpt>
      <trkpt lat="44.22419" lon="6.51934">
        <ele>1927.46875</ele>
        <time>2019-06-12T12:17:39.134Z</time>
      </trkpt>
      <trkpt lat="44.22418" lon="6.51947">
        <ele>1928.453125</ele>
        <time>2019-06-12T12:17:41.016Z</time>
      </trkpt>
      <trkpt lat="44.22413" lon="6.51962">
        <ele>1927.546875</ele>
        <time>2019-06-12T12:17:43.403Z</time>
      </trkpt>
      <trkpt lat="44.22411" lon="6.51974">
        <ele>1928.015625</ele>
        <time>2019-06-12T12:17:45.189Z</time>
      </trkpt>
      <trkpt lat="44.2241" lon="6.51987">
        <ele>1929.046875</ele>
        <time>2019-06-12T12:17:47.048Z</time>
      </trkpt>
      <trkpt lat="44.22408" lon="6.52001">
        <ele>1930.703125</ele>
        <time>2019-06-12T12:17:49.040Z</time>
      </trkpt>
      <trkpt lat="44.22404" lon="6.52011">
        <ele>1930.203125</ele>
        <time>2019-06-12T12:17:50.748Z</time>
      </trkpt>
      <trkpt lat="44.22401" lon="6.52022">
        <ele>1931.06640625</ele>
        <time>2019-06-12T12:17:52.421Z</time>
      </trkpt>
      <trkpt lat="44.22397" lon="6.52032">
        <ele>1930.5390625</ele>
        <time>2019-06-12T12:17:54.083Z</time>
      </trkpt>
      <trkpt lat="44.22394" lon="6.52042">
        <ele>1930.85546875</ele>
        <time>2019-06-12T12:17:55.648Z</time>
      </trkpt>
      <trkpt lat="44.22389" lon="6.52053">
        <ele>1929.671875</ele>
        <time>2019-06-12T12:17:57.459Z</time>
      </trkpt>
      <trkpt lat="44.22384" lon="6.52063">
        <ele>1929.13671875</ele>
        <time>2019-06-12T12:17:59.164Z</time>
      </trkpt>
      <trkpt lat="44.22378" lon="6.52073">
        <ele>1927.6640625</ele>
        <time>2019-06-12T12:18:01.115Z</time>
      </trkpt>
      <trkpt lat="44.22373" lon="6.52084">
        <ele>1926.37109375</ele>
        <time>2019-06-12T12:18:03.001Z</time>
      </trkpt>
      <trkpt lat="44.22368" lon="6.52095">
        <ele>1925.875</ele>
        <time>2019-06-12T12:18:04.784Z</time>
      </trkpt>
      <trkpt lat="44.22361" lon="6.52107">
        <ele>1923.5625</ele>
        <time>2019-06-12T12:18:07.091Z</time>
      </trkpt>
      <trkpt lat="44.22353" lon="6.52117">
        <ele>1922.96875</ele>
        <time>2019-06-12T12:18:09.185Z</time>
      </trkpt>
      <trkpt lat="44.22348" lon="6.52128">
        <ele>1922.96875</ele>
        <time>2019-06-12T12:18:11.154Z</time>
      </trkpt>
      <trkpt lat="44.22341" lon="6.5214">
        <ele>1923.015625</ele>
        <time>2019-06-12T12:18:13.311Z</time>
      </trkpt>
      <trkpt lat="44.22334" lon="6.5215">
        <ele>1922.38671875</ele>
        <time>2019-06-12T12:18:15.361Z</time>
      </trkpt>
      <trkpt lat="44.2233" lon="6.52162">
        <ele>1923.53515625</ele>
        <time>2019-06-12T12:18:17.247Z</time>
      </trkpt>
      <trkpt lat="44.22323" lon="6.52173">
        <ele>1923.28125</ele>
        <time>2019-06-12T12:18:19.299Z</time>
      </trkpt>
      <trkpt lat="44.22315" lon="6.52181">
        <ele>1921.91015625</ele>
        <time>2019-06-12T12:18:21.189Z</time>
      </trkpt>
      <trkpt lat="44.22307" lon="6.5219">
        <ele>1920.5703125</ele>
        <time>2019-06-12T12:18:23.384Z</time>
      </trkpt>
      <trkpt lat="44.22298" lon="6.52188">
        <ele>1918.82421875</ele>
        <time>2019-06-12T12:18:25.078Z</time>
      </trkpt>
      <trkpt lat="44.22289" lon="6.52185">
        <ele>1917.0390625</ele>
        <time>2019-06-12T12:18:27.056Z</time>
      </trkpt>
      <trkpt lat="44.22279" lon="6.5218">
        <ele>1914.59375</ele>
        <time>2019-06-12T12:18:29.136Z</time>
      </trkpt>
      <trkpt lat="44.2227" lon="6.52177">
        <ele>1912.71875</ele>
        <time>2019-06-12T12:18:30.959Z</time>
      </trkpt>
      <trkpt lat="44.2226" lon="6.52175">
        <ele>1910.9609375</ele>
        <time>2019-06-12T12:18:32.911Z</time>
      </trkpt>
      <trkpt lat="44.22253" lon="6.52168">
        <ele>1908.43359375</ele>
        <time>2019-06-12T12:18:34.734Z</time>
      </trkpt>
      <trkpt lat="44.22244" lon="6.52168">
        <ele>1907.171875</ele>
        <time>2019-06-12T12:18:36.553Z</time>
      </trkpt>
      <trkpt lat="44.22233" lon="6.52166">
        <ele>1905.38671875</ele>
        <time>2019-06-12T12:18:38.596Z</time>
      </trkpt>
      <trkpt lat="44.22227" lon="6.52172">
        <ele>1905.74609375</ele>
        <time>2019-06-12T12:18:40.082Z</time>
      </trkpt>
      <trkpt lat="44.22227" lon="6.52176">
        <ele>1906.640625</ele>
        <time>2019-06-12T12:18:40.672Z</time>
      </trkpt>
      <trkpt lat="44.22228" lon="6.52188">
        <ele>1909.3515625</ele>
        <time>2019-06-12T12:18:42.360Z</time>
      </trkpt>
      <trkpt lat="44.22229" lon="6.522">
        <ele>1912.26953125</ele>
        <time>2019-06-12T12:18:44.158Z</time>
      </trkpt>
      <trkpt lat="44.22228" lon="6.52215">
        <ele>1915.34765625</ele>
        <time>2019-06-12T12:18:46.289Z</time>
      </trkpt>
      <trkpt lat="44.22229" lon="6.52229">
        <ele>1917.52734375</ele>
        <time>2019-06-12T12:18:48.336Z</time>
      </trkpt>
      <trkpt lat="44.22228" lon="6.5224">
        <ele>1918.9375</ele>
        <time>2019-06-12T12:18:49.843Z</time>
      </trkpt>
      <trkpt lat="44.22223" lon="6.52251">
        <ele>1919.93359375</ele>
        <time>2019-06-12T12:18:51.739Z</time>
      </trkpt>
      <trkpt lat="44.2222" lon="6.5226">
        <ele>1920.86328125</ele>
        <time>2019-06-12T12:18:53.140Z</time>
      </trkpt>
      <trkpt lat="44.2222" lon="6.52269">
        <ele>1922.16796875</ele>
        <time>2019-06-12T12:18:54.414Z</time>
      </trkpt>
      <trkpt lat="44.22226" lon="6.52277">
        <ele>1924.91015625</ele>
        <time>2019-06-12T12:18:56.144Z</time>
      </trkpt>
      <trkpt lat="44.22222" lon="6.523">
        <ele>1929.89453125</ele>
        <time>2019-06-12T12:18:59.480Z</time>
      </trkpt>
      <trkpt lat="44.22217" lon="6.52305">
        <ele>1930.98046875</ele>
        <time>2019-06-12T12:19:00.737Z</time>
      </trkpt>
      <trkpt lat="44.22206" lon="6.52295">
        <ele>1927.74609375</ele>
        <time>2019-06-12T12:19:03.310Z</time>
      </trkpt>
      <trkpt lat="44.22192" lon="6.52278">
        <ele>1921.765625</ele>
        <time>2019-06-12T12:19:07.056Z</time>
      </trkpt>
      <trkpt lat="44.22183" lon="6.52274">
        <ele>1920.93359375</ele>
        <time>2019-06-12T12:19:09.013Z</time>
      </trkpt>
      <trkpt lat="44.22177" lon="6.5227">
        <ele>1920.01171875</ele>
        <time>2019-06-12T12:19:10.326Z</time>
      </trkpt>
      <trkpt lat="44.2217" lon="6.52264">
        <ele>1919.0390625</ele>
        <time>2019-06-12T12:19:11.918Z</time>
      </trkpt>
      <trkpt lat="44.22165" lon="6.52255">
        <ele>1917.5078125</ele>
        <time>2019-06-12T12:19:13.603Z</time>
      </trkpt>
      <trkpt lat="44.22163" lon="6.52244">
        <ele>1915.7421875</ele>
        <time>2019-06-12T12:19:15.143Z</time>
      </trkpt>
      <trkpt lat="44.22157" lon="6.52236">
        <ele>1914.32421875</ele>
        <time>2019-06-12T12:19:16.905Z</time>
      </trkpt>
      <trkpt lat="44.2215" lon="6.52226">
        <ele>1912.5390625</ele>
        <time>2019-06-12T12:19:18.877Z</time>
      </trkpt>
      <trkpt lat="44.22143" lon="6.52218">
        <ele>1910.828125</ele>
        <time>2019-06-12T12:19:20.662Z</time>
      </trkpt>
      <trkpt lat="44.22139" lon="6.52208">
        <ele>1908.7734375</ele>
        <time>2019-06-12T12:19:22.332Z</time>
      </trkpt>
      <trkpt lat="44.22137" lon="6.52194">
        <ele>1906.62109375</ele>
        <time>2019-06-12T12:19:24.301Z</time>
      </trkpt>
      <trkpt lat="44.22137" lon="6.52179">
        <ele>1903.80859375</ele>
        <time>2019-06-12T12:19:26.439Z</time>
      </trkpt>
      <trkpt lat="44.22135" lon="6.52166">
        <ele>1901.92578125</ele>
        <time>2019-06-12T12:19:28.360Z</time>
      </trkpt>
      <trkpt lat="44.22128" lon="6.52168">
        <ele>1904.32421875</ele>
        <time>2019-06-12T12:19:29.681Z</time>
      </trkpt>
      <trkpt lat="44.2213" lon="6.52182">
        <ele>1906.4921875</ele>
        <time>2019-06-12T12:19:31.803Z</time>
      </trkpt>
      <trkpt lat="44.22125" lon="6.52191">
        <ele>1909.7265625</ele>
        <time>2019-06-12T12:19:33.420Z</time>
      </trkpt>
      <trkpt lat="44.22121" lon="6.52202">
        <ele>1913.01171875</ele>
        <time>2019-06-12T12:19:35.192Z</time>
      </trkpt>
      <trkpt lat="44.22122" lon="6.52216">
        <ele>1915.16796875</ele>
        <time>2019-06-12T12:19:37.221Z</time>
      </trkpt>
      <trkpt lat="44.22123" lon="6.5223">
        <ele>1917.55078125</ele>
        <time>2019-06-12T12:19:39.263Z</time>
      </trkpt>
      <trkpt lat="44.22116" lon="6.52223">
        <ele>1918.37109375</ele>
        <time>2019-06-12T12:19:41.067Z</time>
      </trkpt>
      <trkpt lat="44.2211" lon="6.52233">
        <ele>1921.62109375</ele>
        <time>2019-06-12T12:19:42.881Z</time>
      </trkpt>
      <trkpt lat="44.22105" lon="6.52242">
        <ele>1924.54296875</ele>
        <time>2019-06-12T12:19:44.554Z</time>
      </trkpt>
      <trkpt lat="44.22098" lon="6.52248">
        <ele>1927.265625</ele>
        <time>2019-06-12T12:19:46.160Z</time>
      </trkpt>
      <trkpt lat="44.22092" lon="6.52241">
        <ele>1927.796875</ele>
        <time>2019-06-12T12:19:47.788Z</time>
      </trkpt>
      <trkpt lat="44.22087" lon="6.52231">
        <ele>1927.5625</ele>
        <time>2019-06-12T12:19:49.492Z</time>
      </trkpt>
      <trkpt lat="44.22082" lon="6.52225">
        <ele>1928.39453125</ele>
        <time>2019-06-12T12:19:50.874Z</time>
      </trkpt>
      <trkpt lat="44.22077" lon="6.52231">
        <ele>1931.1796875</ele>
        <time>2019-06-12T12:19:52.154Z</time>
      </trkpt>
      <trkpt lat="44.22071" lon="6.52242">
        <ele>1934.88671875</ele>
        <time>2019-06-12T12:19:54.139Z</time>
      </trkpt>
      <trkpt lat="44.22068" lon="6.52253">
        <ele>1937.38671875</ele>
        <time>2019-06-12T12:19:55.778Z</time>
      </trkpt>
      <trkpt lat="44.22062" lon="6.52261">
        <ele>1940.76171875</ele>
        <time>2019-06-12T12:19:57.477Z</time>
      </trkpt>
      <trkpt lat="44.22056" lon="6.52267">
        <ele>1943.64453125</ele>
        <time>2019-06-12T12:19:58.953Z</time>
      </trkpt>
      <trkpt lat="44.22051" lon="6.52259">
        <ele>1944.53515625</ele>
        <time>2019-06-12T12:20:00.452Z</time>
      </trkpt>
      <trkpt lat="44.22049" lon="6.5227">
        <ele>1946.43359375</ele>
        <time>2019-06-12T12:20:02.048Z</time>
      </trkpt>
      <trkpt lat="44.22041" lon="6.52275">
        <ele>1950.21875</ele>
        <time>2019-06-12T12:20:03.880Z</time>
      </trkpt>
      <trkpt lat="44.22033" lon="6.52282">
        <ele>1953.84375</ele>
        <time>2019-06-12T12:20:05.643Z</time>
      </trkpt>
      <trkpt lat="44.22027" lon="6.52287">
        <ele>1957</ele>
        <time>2019-06-12T12:20:07.139Z</time>
      </trkpt>
      <trkpt lat="44.22019" lon="6.52293">
        <ele>1961.6484375</ele>
        <time>2019-06-12T12:20:08.945Z</time>
      </trkpt>
      <trkpt lat="44.22012" lon="6.52299">
        <ele>1965.68359375</ele>
        <time>2019-06-12T12:20:10.533Z</time>
      </trkpt>
      <trkpt lat="44.22005" lon="6.52305">
        <ele>1969.875</ele>
        <time>2019-06-12T12:20:12.228Z</time>
      </trkpt>
      <trkpt lat="44.21998" lon="6.52312">
        <ele>1974.26171875</ele>
        <time>2019-06-12T12:20:14.071Z</time>
      </trkpt>
      <trkpt lat="44.21995" lon="6.52321">
        <ele>1976.5625</ele>
        <time>2019-06-12T12:20:15.469Z</time>
      </trkpt>
      <trkpt lat="44.21986" lon="6.52327">
        <ele>1981.1328125</ele>
        <time>2019-06-12T12:20:17.299Z</time>
      </trkpt>
      <trkpt lat="44.2198" lon="6.52335">
        <ele>1986.25</ele>
        <time>2019-06-12T12:20:19.140Z</time>
      </trkpt>
      <trkpt lat="44.21974" lon="6.52343">
        <ele>1990.74609375</ele>
        <time>2019-06-12T12:20:20.782Z</time>
      </trkpt>
      <trkpt lat="44.21967" lon="6.52351">
        <ele>1995.41015625</ele>
        <time>2019-06-12T12:20:22.593Z</time>
      </trkpt>
      <trkpt lat="44.2196" lon="6.52359">
        <ele>1999.68359375</ele>
        <time>2019-06-12T12:20:24.363Z</time>
      </trkpt>
      <trkpt lat="44.21953" lon="6.52366">
        <ele>2003.5703125</ele>
        <time>2019-06-12T12:20:26.065Z</time>
      </trkpt>
      <trkpt lat="44.21946" lon="6.52375">
        <ele>2007.68359375</ele>
        <time>2019-06-12T12:20:27.987Z</time>
      </trkpt>
      <trkpt lat="44.21939" lon="6.52382">
        <ele>2011.1015625</ele>
        <time>2019-06-12T12:20:29.669Z</time>
      </trkpt>
      <trkpt lat="44.21937" lon="6.52383">
        <ele>2011.9609375</ele>
        <time>2019-06-12T12:20:30.102Z</time>
      </trkpt>
      <trkpt lat="44.21939" lon="6.5238">
        <ele>2010.84765625</ele>
        <time>2019-06-12T12:20:30.647Z</time>
      </trkpt>
      <trkpt lat="44.21931" lon="6.52384">
        <ele>2014.2578125</ele>
        <time>2019-06-12T12:20:32.421Z</time>
      </trkpt>
      <trkpt lat="44.21922" lon="6.52388">
        <ele>2017.56640625</ele>
        <time>2019-06-12T12:20:34.155Z</time>
      </trkpt>
      <trkpt lat="44.21917" lon="6.52393">
        <ele>2020</ele>
        <time>2019-06-12T12:20:35.407Z</time>
      </trkpt>
      <trkpt lat="44.2191" lon="6.52402">
        <ele>2023.55078125</ele>
        <time>2019-06-12T12:20:37.332Z</time>
      </trkpt>
      <trkpt lat="44.21904" lon="6.5241">
        <ele>2026.64453125</ele>
        <time>2019-06-12T12:20:39.047Z</time>
      </trkpt>
      <trkpt lat="44.21895" lon="6.52413">
        <ele>2029.5859375</ele>
        <time>2019-06-12T12:20:40.869Z</time>
      </trkpt>
      <trkpt lat="44.21887" lon="6.52408">
        <ele>2031.1484375</ele>
        <time>2019-06-12T12:20:42.580Z</time>
      </trkpt>
      <trkpt lat="44.21881" lon="6.52399">
        <ele>2031.43359375</ele>
        <time>2019-06-12T12:20:44.316Z</time>
      </trkpt>
      <trkpt lat="44.21875" lon="6.52387">
        <ele>2031.80078125</ele>
        <time>2019-06-12T12:20:46.490Z</time>
      </trkpt>
      <trkpt lat="44.21866" lon="6.5238">
        <ele>2033.4609375</ele>
        <time>2019-06-12T12:20:48.456Z</time>
      </trkpt>
      <trkpt lat="44.21866" lon="6.52381">
        <ele>2033.53515625</ele>
        <time>2019-06-12T12:20:48.636Z</time>
      </trkpt>
      <trkpt lat="44.21867" lon="6.52365">
        <ele>2032.06640625</ele>
        <time>2019-06-12T12:20:50.914Z</time>
      </trkpt>
      <trkpt lat="44.21865" lon="6.5235">
        <ele>2031.69140625</ele>
        <time>2019-06-12T12:20:53.084Z</time>
      </trkpt>
      <trkpt lat="44.2187" lon="6.52339">
        <ele>2029.1640625</ele>
        <time>2019-06-12T12:20:54.959Z</time>
      </trkpt>
      <trkpt lat="44.21874" lon="6.52327">
        <ele>2027.0078125</ele>
        <time>2019-06-12T12:20:56.814Z</time>
      </trkpt>
      <trkpt lat="44.21874" lon="6.52314">
        <ele>2025.7734375</ele>
        <time>2019-06-12T12:20:58.721Z</time>
      </trkpt>
      <trkpt lat="44.21876" lon="6.52301">
        <ele>2024.3359375</ele>
        <time>2019-06-12T12:21:00.649Z</time>
      </trkpt>
      <trkpt lat="44.21877" lon="6.52288">
        <ele>2022.95703125</ele>
        <time>2019-06-12T12:21:02.484Z</time>
      </trkpt>
      <trkpt lat="44.21879" lon="6.52275">
        <ele>2021.3359375</ele>
        <time>2019-06-12T12:21:04.454Z</time>
      </trkpt>
      <trkpt lat="44.21882" lon="6.52263">
        <ele>2019.4921875</ele>
        <time>2019-06-12T12:21:06.299Z</time>
      </trkpt>
      <trkpt lat="44.21883" lon="6.5225">
        <ele>2018.20703125</ele>
        <time>2019-06-12T12:21:08.075Z</time>
      </trkpt>
      <trkpt lat="44.21881" lon="6.52238">
        <ele>2017.4921875</ele>
        <time>2019-06-12T12:21:09.879Z</time>
      </trkpt>
      <trkpt lat="44.21883" lon="6.52224">
        <ele>2015.953125</ele>
        <time>2019-06-12T12:21:11.875Z</time>
      </trkpt>
      <trkpt lat="44.2188" lon="6.52212">
        <ele>2015.41015625</ele>
        <time>2019-06-12T12:21:13.697Z</time>
      </trkpt>
      <trkpt lat="44.21877" lon="6.52199">
        <ele>2015.3671875</ele>
        <time>2019-06-12T12:21:15.643Z</time>
      </trkpt>
      <trkpt lat="44.21875" lon="6.52186">
        <ele>2015.01171875</ele>
        <time>2019-06-12T12:21:17.603Z</time>
      </trkpt>
      <trkpt lat="44.21871" lon="6.52173">
        <ele>2015.0546875</ele>
        <time>2019-06-12T12:21:19.531Z</time>
      </trkpt>
      <trkpt lat="44.21868" lon="6.52165">
        <ele>2014.953125</ele>
        <time>2019-06-12T12:21:20.852Z</time>
      </trkpt>
      <trkpt lat="44.21862" lon="6.52154">
        <ele>2015.86328125</ele>
        <time>2019-06-12T12:21:22.950Z</time>
      </trkpt>
      <trkpt lat="44.21854" lon="6.52146">
        <ele>2014.9140625</ele>
        <time>2019-06-12T12:21:24.887Z</time>
      </trkpt>
      <trkpt lat="44.21846" lon="6.52139">
        <ele>2013.9375</ele>
        <time>2019-06-12T12:21:26.636Z</time>
      </trkpt>
      <trkpt lat="44.21839" lon="6.52146">
        <ele>2013.265625</ele>
        <time>2019-06-12T12:21:28.425Z</time>
      </trkpt>
      <trkpt lat="44.21838" lon="6.5216">
        <ele>2013.66015625</ele>
        <time>2019-06-12T12:21:30.442Z</time>
      </trkpt>
      <trkpt lat="44.21836" lon="6.52175">
        <ele>2015.02734375</ele>
        <time>2019-06-12T12:21:32.563Z</time>
      </trkpt>
      <trkpt lat="44.21836" lon="6.52187">
        <ele>2016.21875</ele>
        <time>2019-06-12T12:21:34.239Z</time>
      </trkpt>
      <trkpt lat="44.21832" lon="6.52199">
        <ele>2017.27734375</ele>
        <time>2019-06-12T12:21:36.212Z</time>
      </trkpt>
      <trkpt lat="44.21825" lon="6.5221">
        <ele>2018.28125</ele>
        <time>2019-06-12T12:21:38.337Z</time>
      </trkpt>
      <trkpt lat="44.21818" lon="6.52223">
        <ele>2019.50390625</ele>
        <time>2019-06-12T12:21:40.551Z</time>
      </trkpt>
      <trkpt lat="44.21811" lon="6.52234">
        <ele>2020.65234375</ele>
        <time>2019-06-12T12:21:42.678Z</time>
      </trkpt>
      <trkpt lat="44.21802" lon="6.52243">
        <ele>2021.09765625</ele>
        <time>2019-06-12T12:21:44.844Z</time>
      </trkpt>
      <trkpt lat="44.21795" lon="6.5225">
        <ele>2020.875</ele>
        <time>2019-06-12T12:21:46.691Z</time>
      </trkpt>
      <trkpt lat="44.21786" lon="6.52258">
        <ele>2020.3515625</ele>
        <time>2019-06-12T12:21:48.689Z</time>
      </trkpt>
      <trkpt lat="44.21778" lon="6.52264">
        <ele>2019.49609375</ele>
        <time>2019-06-12T12:21:50.623Z</time>
      </trkpt>
      <trkpt lat="44.21769" lon="6.5226">
        <ele>2017.6171875</ele>
        <time>2019-06-12T12:21:52.532Z</time>
      </trkpt>
      <trkpt lat="44.2176" lon="6.52257">
        <ele>2015.86328125</ele>
        <time>2019-06-12T12:21:54.408Z</time>
      </trkpt>
      <trkpt lat="44.21754" lon="6.5226">
        <ele>2015.078125</ele>
        <time>2019-06-12T12:21:55.719Z</time>
      </trkpt>
      <trkpt lat="44.21747" lon="6.52269">
        <ele>2014.11328125</ele>
        <time>2019-06-12T12:21:57.562Z</time>
      </trkpt>
      <trkpt lat="44.2174" lon="6.52278">
        <ele>2012.9609375</ele>
        <time>2019-06-12T12:21:59.382Z</time>
      </trkpt>
      <trkpt lat="44.21734" lon="6.5229">
        <ele>2011.81640625</ele>
        <time>2019-06-12T12:22:01.583Z</time>
      </trkpt>
      <trkpt lat="44.21725" lon="6.52303">
        <ele>2009.99609375</ele>
        <time>2019-06-12T12:22:04.036Z</time>
      </trkpt>
      <trkpt lat="44.21714" lon="6.52324">
        <ele>2007.234375</ele>
        <time>2019-06-12T12:22:07.792Z</time>
      </trkpt>
      <trkpt lat="44.21705" lon="6.52349">
        <ele>2008.92578125</ele>
        <time>2019-06-12T12:22:11.917Z</time>
      </trkpt>
      <trkpt lat="44.21704" lon="6.52357">
        <ele>2010.19140625</ele>
        <time>2019-06-12T12:22:12.973Z</time>
      </trkpt>
      <trkpt lat="44.21694" lon="6.52355">
        <ele>2006.87890625</ele>
        <time>2019-06-12T12:22:14.998Z</time>
      </trkpt>
      <trkpt lat="44.21685" lon="6.52357">
        <ele>2004.94921875</ele>
        <time>2019-06-12T12:22:16.961Z</time>
      </trkpt>
      <trkpt lat="44.21677" lon="6.52345">
        <ele>2000.59765625</ele>
        <time>2019-06-12T12:22:19.245Z</time>
      </trkpt>
      <trkpt lat="44.21666" lon="6.52347">
        <ele>1998.546875</ele>
        <time>2019-06-12T12:22:21.308Z</time>
      </trkpt>
      <trkpt lat="44.21656" lon="6.52344">
        <ele>1995.1640625</ele>
        <time>2019-06-12T12:22:23.493Z</time>
      </trkpt>
      <trkpt lat="44.21648" lon="6.52346">
        <ele>1993.84375</ele>
        <time>2019-06-12T12:22:25.089Z</time>
      </trkpt>
      <trkpt lat="44.21641" lon="6.52351">
        <ele>1993.44140625</ele>
        <time>2019-06-12T12:22:26.630Z</time>
      </trkpt>
      <trkpt lat="44.21634" lon="6.52357">
        <ele>1994.2109375</ele>
        <time>2019-06-12T12:22:28.278Z</time>
      </trkpt>
      <trkpt lat="44.21627" lon="6.52366">
        <ele>1995.65234375</ele>
        <time>2019-06-12T12:22:30.149Z</time>
      </trkpt>
      <trkpt lat="44.21621" lon="6.52372">
        <ele>1996.93359375</ele>
        <time>2019-06-12T12:22:31.736Z</time>
      </trkpt>
      <trkpt lat="44.21612" lon="6.52376">
        <ele>1997.3515625</ele>
        <time>2019-06-12T12:22:33.512Z</time>
      </trkpt>
      <trkpt lat="44.21605" lon="6.52365">
        <ele>1993.23046875</ele>
        <time>2019-06-12T12:22:35.605Z</time>
      </trkpt>
      <trkpt lat="44.21599" lon="6.5236">
        <ele>1990.83203125</ele>
        <time>2019-06-12T12:22:37.096Z</time>
      </trkpt>
      <trkpt lat="44.21592" lon="6.52364">
        <ele>1991.22265625</ele>
        <time>2019-06-12T12:22:38.603Z</time>
      </trkpt>
      <trkpt lat="44.21585" lon="6.52369">
        <ele>1992.3359375</ele>
        <time>2019-06-12T12:22:40.169Z</time>
      </trkpt>
      <trkpt lat="44.21576" lon="6.52373">
        <ele>1993.77734375</ele>
        <time>2019-06-12T12:22:42.131Z</time>
      </trkpt>
      <trkpt lat="44.21568" lon="6.52363">
        <ele>1990.9921875</ele>
        <time>2019-06-12T12:22:44.109Z</time>
      </trkpt>
      <trkpt lat="44.21565" lon="6.52354">
        <ele>1988.12890625</ele>
        <time>2019-06-12T12:22:45.595Z</time>
      </trkpt>
      <trkpt lat="44.21559" lon="6.52354">
        <ele>1988.19140625</ele>
        <time>2019-06-12T12:22:46.799Z</time>
      </trkpt>
      <trkpt lat="44.2155" lon="6.52349">
        <ele>1987.19921875</ele>
        <time>2019-06-12T12:22:48.652Z</time>
      </trkpt>
      <trkpt lat="44.2154" lon="6.52347">
        <ele>1986.95703125</ele>
        <time>2019-06-12T12:22:50.593Z</time>
      </trkpt>
      <trkpt lat="44.2153" lon="6.52351">
        <ele>1988.98828125</ele>
        <time>2019-06-12T12:22:52.744Z</time>
      </trkpt>
      <trkpt lat="44.21519" lon="6.52351">
        <ele>1989.4921875</ele>
        <time>2019-06-12T12:22:55.017Z</time>
      </trkpt>
      <trkpt lat="44.21509" lon="6.5235">
        <ele>1989.66796875</ele>
        <time>2019-06-12T12:22:56.981Z</time>
      </trkpt>
      <trkpt lat="44.21499" lon="6.5235">
        <ele>1989.97265625</ele>
        <time>2019-06-12T12:22:58.952Z</time>
      </trkpt>
      <trkpt lat="44.2149" lon="6.52348">
        <ele>1990.0234375</ele>
        <time>2019-06-12T12:23:00.772Z</time>
      </trkpt>
      <trkpt lat="44.21482" lon="6.52344">
        <ele>1989.3125</ele>
        <time>2019-06-12T12:23:02.488Z</time>
      </trkpt>
      <trkpt lat="44.21475" lon="6.52343">
        <ele>1989.5390625</ele>
        <time>2019-06-12T12:23:03.937Z</time>
      </trkpt>
      <trkpt lat="44.21467" lon="6.52344">
        <ele>1989.03125</ele>
        <time>2019-06-12T12:23:05.514Z</time>
      </trkpt>
      <trkpt lat="44.21464" lon="6.52359">
        <ele>1992.21875</ele>
        <time>2019-06-12T12:23:07.716Z</time>
      </trkpt>
      <trkpt lat="44.2146" lon="6.52372">
        <ele>1994.5859375</ele>
        <time>2019-06-12T12:23:09.703Z</time>
      </trkpt>
      <trkpt lat="44.21454" lon="6.52382">
        <ele>1996.05078125</ele>
        <time>2019-06-12T12:23:11.481Z</time>
      </trkpt>
      <trkpt lat="44.21444" lon="6.52382">
        <ele>1994.26171875</ele>
        <time>2019-06-12T12:23:13.572Z</time>
      </trkpt>
      <trkpt lat="44.21435" lon="6.5238">
        <ele>1992.21484375</ele>
        <time>2019-06-12T12:23:15.400Z</time>
      </trkpt>
      <trkpt lat="44.21427" lon="6.52386">
        <ele>1992.1796875</ele>
        <time>2019-06-12T12:23:17.198Z</time>
      </trkpt>
      <trkpt lat="44.21425" lon="6.52399">
        <ele>1995.0703125</ele>
        <time>2019-06-12T12:23:19.040Z</time>
      </trkpt>
      <trkpt lat="44.21418" lon="6.52406">
        <ele>1995.73828125</ele>
        <time>2019-06-12T12:23:20.845Z</time>
      </trkpt>
      <trkpt lat="44.21408" lon="6.52407">
        <ele>1994.33984375</ele>
        <time>2019-06-12T12:23:22.886Z</time>
      </trkpt>
      <trkpt lat="44.21398" lon="6.52404">
        <ele>1992.171875</ele>
        <time>2019-06-12T12:23:24.909Z</time>
      </trkpt>
      <trkpt lat="44.2139" lon="6.52398">
        <ele>1989.203125</ele>
        <time>2019-06-12T12:23:26.784Z</time>
      </trkpt>
      <trkpt lat="44.21383" lon="6.52392">
        <ele>1986.60546875</ele>
        <time>2019-06-12T12:23:28.335Z</time>
      </trkpt>
      <trkpt lat="44.21374" lon="6.52393">
        <ele>1985.3828125</ele>
        <time>2019-06-12T12:23:30.314Z</time>
      </trkpt>
      <trkpt lat="44.21362" lon="6.52392">
        <ele>1983.35546875</ele>
        <time>2019-06-12T12:23:32.541Z</time>
      </trkpt>
      <trkpt lat="44.21354" lon="6.52391">
        <ele>1982.44921875</ele>
        <time>2019-06-12T12:23:34.200Z</time>
      </trkpt>
      <trkpt lat="44.21346" lon="6.52397">
        <ele>1983.76171875</ele>
        <time>2019-06-12T12:23:36.021Z</time>
      </trkpt>
      <trkpt lat="44.21342" lon="6.524">
        <ele>1984.08203125</ele>
        <time>2019-06-12T12:23:37.050Z</time>
      </trkpt>
      <trkpt lat="44.21335" lon="6.52401">
        <ele>1983.9765625</ele>
        <time>2019-06-12T12:23:38.357Z</time>
      </trkpt>
      <trkpt lat="44.21325" lon="6.52402">
        <ele>1983.55078125</ele>
        <time>2019-06-12T12:23:40.337Z</time>
      </trkpt>
      <trkpt lat="44.2132" lon="6.52389">
        <ele>1979.453125</ele>
        <time>2019-06-12T12:23:42.449Z</time>
      </trkpt>
      <trkpt lat="44.21312" lon="6.5238">
        <ele>1976.2578125</ele>
        <time>2019-06-12T12:23:44.493Z</time>
      </trkpt>
      <trkpt lat="44.21304" lon="6.52377">
        <ele>1974.94140625</ele>
        <time>2019-06-12T12:23:46.167Z</time>
      </trkpt>
      <trkpt lat="44.21295" lon="6.52379">
        <ele>1974.625</ele>
        <time>2019-06-12T12:23:48.061Z</time>
      </trkpt>
      <trkpt lat="44.21289" lon="6.52384">
        <ele>1975.359375</ele>
        <time>2019-06-12T12:23:49.507Z</time>
      </trkpt>
      <trkpt lat="44.21283" lon="6.52389">
        <ele>1976.39453125</ele>
        <time>2019-06-12T12:23:50.824Z</time>
      </trkpt>
      <trkpt lat="44.21274" lon="6.52399">
        <ele>1978.4296875</ele>
        <time>2019-06-12T12:23:53.215Z</time>
      </trkpt>
      <trkpt lat="44.21268" lon="6.52407">
        <ele>1980.05078125</ele>
        <time>2019-06-12T12:23:54.890Z</time>
      </trkpt>
      <trkpt lat="44.21262" lon="6.52419">
        <ele>1982.765625</ele>
        <time>2019-06-12T12:23:56.926Z</time>
      </trkpt>
      <trkpt lat="44.21254" lon="6.52425">
        <ele>1983.30078125</ele>
        <time>2019-06-12T12:23:58.762Z</time>
      </trkpt>
      <trkpt lat="44.21246" lon="6.52428">
        <ele>1983.796875</ele>
        <time>2019-06-12T12:24:00.435Z</time>
      </trkpt>
      <trkpt lat="44.21239" lon="6.52417">
        <ele>1980.546875</ele>
        <time>2019-06-12T12:24:02.526Z</time>
      </trkpt>
      <trkpt lat="44.21232" lon="6.52411">
        <ele>1978.734375</ele>
        <time>2019-06-12T12:24:04.220Z</time>
      </trkpt>
      <trkpt lat="44.21224" lon="6.52409">
        <ele>1977.69921875</ele>
        <time>2019-06-12T12:24:05.931Z</time>
      </trkpt>
      <trkpt lat="44.21218" lon="6.5241">
        <ele>1977.75390625</ele>
        <time>2019-06-12T12:24:07.060Z</time>
      </trkpt>
      <trkpt lat="44.21208" lon="6.52411">
        <ele>1977.671875</ele>
        <time>2019-06-12T12:24:09.057Z</time>
      </trkpt>
      <trkpt lat="44.21201" lon="6.52402">
        <ele>1975.0546875</ele>
        <time>2019-06-12T12:24:10.931Z</time>
      </trkpt>
      <trkpt lat="44.21195" lon="6.52398">
        <ele>1973.75</ele>
        <time>2019-06-12T12:24:12.263Z</time>
      </trkpt>
      <trkpt lat="44.21189" lon="6.5239">
        <ele>1972.15234375</ele>
        <time>2019-06-12T12:24:13.956Z</time>
      </trkpt>
      <trkpt lat="44.21184" lon="6.5239">
        <ele>1972.6640625</ele>
        <time>2019-06-12T12:24:14.974Z</time>
      </trkpt>
      <trkpt lat="44.21176" lon="6.52385">
        <ele>1971.80078125</ele>
        <time>2019-06-12T12:24:16.761Z</time>
      </trkpt>
      <trkpt lat="44.21168" lon="6.5238">
        <ele>1970.97265625</ele>
        <time>2019-06-12T12:24:18.439Z</time>
      </trkpt>
      <trkpt lat="44.21159" lon="6.52373">
        <ele>1969.1328125</ele>
        <time>2019-06-12T12:24:20.578Z</time>
      </trkpt>
      <trkpt lat="44.21151" lon="6.52366">
        <ele>1967.390625</ele>
        <time>2019-06-12T12:24:22.402Z</time>
      </trkpt>
      <trkpt lat="44.21144" lon="6.52367">
        <ele>1968.00390625</ele>
        <time>2019-06-12T12:24:23.794Z</time>
      </trkpt>
      <trkpt lat="44.21136" lon="6.52369">
        <ele>1969.2734375</ele>
        <time>2019-06-12T12:24:25.457Z</time>
      </trkpt>
      <trkpt lat="44.21127" lon="6.5237">
        <ele>1969.953125</ele>
        <time>2019-06-12T12:24:27.251Z</time>
      </trkpt>
      <trkpt lat="44.21116" lon="6.52374">
        <ele>1971.890625</ele>
        <time>2019-06-12T12:24:29.585Z</time>
      </trkpt>
      <trkpt lat="44.21106" lon="6.52377">
        <ele>1973.234375</ele>
        <time>2019-06-12T12:24:31.524Z</time>
      </trkpt>
      <trkpt lat="44.21098" lon="6.52375">
        <ele>1972.96875</ele>
        <time>2019-06-12T12:24:33.121Z</time>
      </trkpt>
      <trkpt lat="44.21097" lon="6.52359">
        <ele>1968.859375</ele>
        <time>2019-06-12T12:24:35.394Z</time>
      </trkpt>
      <trkpt lat="44.21106" lon="6.52347">
        <ele>1964.80859375</ele>
        <time>2019-06-12T12:24:37.799Z</time>
      </trkpt>
      <trkpt lat="44.21108" lon="6.52329">
        <ele>1959.48046875</ele>
        <time>2019-06-12T12:24:40.378Z</time>
      </trkpt>
      <trkpt lat="44.21102" lon="6.52332">
        <ele>1961.03515625</ele>
        <time>2019-06-12T12:24:41.658Z</time>
      </trkpt>
      <trkpt lat="44.21095" lon="6.52334">
        <ele>1962.78125</ele>
        <time>2019-06-12T12:24:43.103Z</time>
      </trkpt>
      <trkpt lat="44.21088" lon="6.5234">
        <ele>1964.9609375</ele>
        <time>2019-06-12T12:24:44.635Z</time>
      </trkpt>
      <trkpt lat="44.21082" lon="6.52344">
        <ele>1967.3046875</ele>
        <time>2019-06-12T12:24:46.042Z</time>
      </trkpt>
      <trkpt lat="44.21072" lon="6.52344">
        <ele>1970.43359375</ele>
        <time>2019-06-12T12:24:48.052Z</time>
      </trkpt>
      <trkpt lat="44.21075" lon="6.52341">
        <ele>1968.78515625</ele>
        <time>2019-06-12T12:24:48.846Z</time>
      </trkpt>
      <trkpt lat="44.21069" lon="6.52339">
        <ele>1970.41796875</ele>
        <time>2019-06-12T12:24:50.063Z</time>
      </trkpt>
      <trkpt lat="44.21052" lon="6.52343">
        <ele>1976.38671875</ele>
        <time>2019-06-12T12:24:53.403Z</time>
      </trkpt>
      <trkpt lat="44.2104" lon="6.52351">
        <ele>1980.83984375</ele>
        <time>2019-06-12T12:24:56.221Z</time>
      </trkpt>
      <trkpt lat="44.21031" lon="6.52344">
        <ele>1983.25390625</ele>
        <time>2019-06-12T12:24:58.310Z</time>
      </trkpt>
      <trkpt lat="44.21027" lon="6.52334">
        <ele>1984.76171875</ele>
        <time>2019-06-12T12:24:59.866Z</time>
      </trkpt>
      <trkpt lat="44.21021" lon="6.52326">
        <ele>1988.06640625</ele>
        <time>2019-06-12T12:25:01.552Z</time>
      </trkpt>
      <trkpt lat="44.21012" lon="6.52326">
        <ele>1992.84765625</ele>
        <time>2019-06-12T12:25:03.387Z</time>
      </trkpt>
      <trkpt lat="44.21005" lon="6.52326">
        <ele>1996.53515625</ele>
        <time>2019-06-12T12:25:04.803Z</time>
      </trkpt>
      <trkpt lat="44.21001" lon="6.52317">
        <ele>1999.2421875</ele>
        <time>2019-06-12T12:25:06.364Z</time>
      </trkpt>
      <trkpt lat="44.20997" lon="6.52305">
        <ele>2001.90234375</ele>
        <time>2019-06-12T12:25:08.240Z</time>
      </trkpt>
      <trkpt lat="44.20997" lon="6.52292">
        <ele>2003.04296875</ele>
        <time>2019-06-12T12:25:10.095Z</time>
      </trkpt>
      <trkpt lat="44.20991" lon="6.52282">
        <ele>2006.8515625</ele>
        <time>2019-06-12T12:25:11.917Z</time>
      </trkpt>
      <trkpt lat="44.20984" lon="6.52272">
        <ele>2011.109375</ele>
        <time>2019-06-12T12:25:13.895Z</time>
      </trkpt>
      <trkpt lat="44.20976" lon="6.52264">
        <ele>2015.91015625</ele>
        <time>2019-06-12T12:25:15.907Z</time>
      </trkpt>
      <trkpt lat="44.20971" lon="6.52254">
        <ele>2019.42578125</ele>
        <time>2019-06-12T12:25:17.682Z</time>
      </trkpt>
      <trkpt lat="44.20967" lon="6.52241">
        <ele>2022.6328125</ele>
        <time>2019-06-12T12:25:19.763Z</time>
      </trkpt>
      <trkpt lat="44.20972" lon="6.5222">
        <ele>2021.87109375</ele>
        <time>2019-06-12T12:25:22.973Z</time>
      </trkpt>
      <trkpt lat="44.2097" lon="6.52205">
        <ele>2024.48828125</ele>
        <time>2019-06-12T12:25:25.105Z</time>
      </trkpt>
      <trkpt lat="44.20963" lon="6.52198">
        <ele>2027.875</ele>
        <time>2019-06-12T12:25:26.720Z</time>
      </trkpt>
      <trkpt lat="44.20956" lon="6.52193">
        <ele>2031.1328125</ele>
        <time>2019-06-12T12:25:28.286Z</time>
      </trkpt>
      <trkpt lat="44.20949" lon="6.52184">
        <ele>2034.5703125</ele>
        <time>2019-06-12T12:25:30.185Z</time>
      </trkpt>
      <trkpt lat="44.20943" lon="6.52174">
        <ele>2037.671875</ele>
        <time>2019-06-12T12:25:32.125Z</time>
      </trkpt>
      <trkpt lat="44.20936" lon="6.52169">
        <ele>2040.515625</ele>
        <time>2019-06-12T12:25:33.742Z</time>
      </trkpt>
      <trkpt lat="44.20928" lon="6.52167">
        <ele>2043.43359375</ele>
        <time>2019-06-12T12:25:35.414Z</time>
      </trkpt>
      <trkpt lat="44.20921" lon="6.52159">
        <ele>2045.77734375</ele>
        <time>2019-06-12T12:25:37.087Z</time>
      </trkpt>
      <trkpt lat="44.20915" lon="6.52152">
        <ele>2047.125</ele>
        <time>2019-06-12T12:25:38.829Z</time>
      </trkpt>
      <trkpt lat="44.20912" lon="6.5214">
        <ele>2046.8984375</ele>
        <time>2019-06-12T12:25:40.572Z</time>
      </trkpt>
      <trkpt lat="44.2091" lon="6.52132">
        <ele>2046.55078125</ele>
        <time>2019-06-12T12:25:41.823Z</time>
      </trkpt>
      <trkpt lat="44.20909" lon="6.52134">
        <ele>2046.69140625</ele>
        <time>2019-06-12T12:25:42.263Z</time>
      </trkpt>
      <trkpt lat="44.2091" lon="6.52134">
        <ele>2046.68359375</ele>
        <time>2019-06-12T12:25:42.286Z</time>
      </trkpt>
      <trkpt lat="44.20897" lon="6.52121">
        <ele>2045.5078125</ele>
        <time>2019-06-12T12:25:45.548Z</time>
      </trkpt>
      <trkpt lat="44.2089" lon="6.52117">
        <ele>2044.8671875</ele>
        <time>2019-06-12T12:25:46.879Z</time>
      </trkpt>
      <trkpt lat="44.20882" lon="6.52121">
        <ele>2045.0390625</ele>
        <time>2019-06-12T12:25:48.661Z</time>
      </trkpt>
      <trkpt lat="44.20861" lon="6.52126">
        <ele>2045.1640625</ele>
        <time>2019-06-12T12:25:52.842Z</time>
      </trkpt>
      <trkpt lat="44.20848" lon="6.52129">
        <ele>2043.05859375</ele>
        <time>2019-06-12T12:25:55.461Z</time>
      </trkpt>
      <trkpt lat="44.20838" lon="6.52138">
        <ele>2043.10546875</ele>
        <time>2019-06-12T12:25:57.902Z</time>
      </trkpt>
      <trkpt lat="44.20823" lon="6.52141">
        <ele>2040.80859375</ele>
        <time>2019-06-12T12:26:00.864Z</time>
      </trkpt>
      <trkpt lat="44.20809" lon="6.52142">
        <ele>2038.5078125</ele>
        <time>2019-06-12T12:26:03.700Z</time>
      </trkpt>
      <trkpt lat="44.20798" lon="6.52135">
        <ele>2032.9765625</ele>
        <time>2019-06-12T12:26:06.092Z</time>
      </trkpt>
      <trkpt lat="44.20789" lon="6.52123">
        <ele>2025.8671875</ele>
        <time>2019-06-12T12:26:08.697Z</time>
      </trkpt>
      <trkpt lat="44.20782" lon="6.52117">
        <ele>2021.9375</ele>
        <time>2019-06-12T12:26:10.287Z</time>
      </trkpt>
      <trkpt lat="44.20776" lon="6.52115">
        <ele>2019.3984375</ele>
        <time>2019-06-12T12:26:11.540Z</time>
      </trkpt>
      <trkpt lat="44.2077" lon="6.52113">
        <ele>2017.2421875</ele>
        <time>2019-06-12T12:26:12.767Z</time>
      </trkpt>
      <trkpt lat="44.20767" lon="6.52104">
        <ele>2013.58203125</ele>
        <time>2019-06-12T12:26:14.120Z</time>
      </trkpt>
      <trkpt lat="44.20762" lon="6.52096">
        <ele>2008.4609375</ele>
        <time>2019-06-12T12:26:15.694Z</time>
      </trkpt>
      <trkpt lat="44.20755" lon="6.52095">
        <ele>2006.37890625</ele>
        <time>2019-06-12T12:26:17.158Z</time>
      </trkpt>
      <trkpt lat="44.20746" lon="6.52093">
        <ele>2002.32421875</ele>
        <time>2019-06-12T12:26:18.881Z</time>
      </trkpt>
      <trkpt lat="44.20736" lon="6.52091">
        <ele>1997.8515625</ele>
        <time>2019-06-12T12:26:20.872Z</time>
      </trkpt>
      <trkpt lat="44.20734" lon="6.52089">
        <ele>1996.16015625</ele>
        <time>2019-06-12T12:26:21.466Z</time>
      </trkpt>
      <trkpt lat="44.20732" lon="6.52076">
        <ele>1990.10546875</ele>
        <time>2019-06-12T12:26:23.303Z</time>
      </trkpt>
      <trkpt lat="44.20737" lon="6.52068">
        <ele>1987.69140625</ele>
        <time>2019-06-12T12:26:24.897Z</time>
      </trkpt>
      <trkpt lat="44.20736" lon="6.5207">
        <ele>1988.66796875</ele>
        <time>2019-06-12T12:26:25.317Z</time>
      </trkpt>
      <trkpt lat="44.20732" lon="6.52059">
        <ele>1982.1953125</ele>
        <time>2019-06-12T12:26:27.212Z</time>
      </trkpt>
      <trkpt lat="44.20729" lon="6.52054">
        <ele>1979.37109375</ele>
        <time>2019-06-12T12:26:28.079Z</time>
      </trkpt>
      <trkpt lat="44.20724" lon="6.52052">
        <ele>1977.21484375</ele>
        <time>2019-06-12T12:26:29.089Z</time>
      </trkpt>
      <trkpt lat="44.20718" lon="6.5205">
        <ele>1974.8671875</ele>
        <time>2019-06-12T12:26:30.392Z</time>
      </trkpt>
      <trkpt lat="44.20714" lon="6.5204">
        <ele>1969.265625</ele>
        <time>2019-06-12T12:26:32.052Z</time>
      </trkpt>
      <trkpt lat="44.2071" lon="6.52032">
        <ele>1964.2578125</ele>
        <time>2019-06-12T12:26:33.480Z</time>
      </trkpt>
      <trkpt lat="44.20711" lon="6.52023">
        <ele>1960.2578125</ele>
        <time>2019-06-12T12:26:34.729Z</time>
      </trkpt>
      <trkpt lat="44.20709" lon="6.52019">
        <ele>1957.9140625</ele>
        <time>2019-06-12T12:26:35.395Z</time>
      </trkpt>
      <trkpt lat="44.20703" lon="6.52013">
        <ele>1953.8515625</ele>
        <time>2019-06-12T12:26:36.881Z</time>
      </trkpt>
      <trkpt lat="44.20695" lon="6.52012">
        <ele>1951.44921875</ele>
        <time>2019-06-12T12:26:38.527Z</time>
      </trkpt>
      <trkpt lat="44.20695" lon="6.52002">
        <ele>1946.49609375</ele>
        <time>2019-06-12T12:26:40.006Z</time>
      </trkpt>
      <trkpt lat="44.2069" lon="6.51996">
        <ele>1941.6953125</ele>
        <time>2019-06-12T12:26:41.352Z</time>
      </trkpt>
      <trkpt lat="44.20691" lon="6.51984">
        <ele>1937.1484375</ele>
        <time>2019-06-12T12:26:43.115Z</time>
      </trkpt>
      <trkpt lat="44.20686" lon="6.51975">
        <ele>1931.83984375</ele>
        <time>2019-06-12T12:26:44.770Z</time>
      </trkpt>
      <trkpt lat="44.20685" lon="6.51964">
        <ele>1927.48828125</ele>
        <time>2019-06-12T12:26:46.277Z</time>
      </trkpt>
      <trkpt lat="44.20682" lon="6.51955">
        <ele>1923.3515625</ele>
        <time>2019-06-12T12:26:47.633Z</time>
      </trkpt>
      <trkpt lat="44.20676" lon="6.51946">
        <ele>1918.33203125</ele>
        <time>2019-06-12T12:26:49.407Z</time>
      </trkpt>
      <trkpt lat="44.2067" lon="6.51934">
        <ele>1912.36328125</ele>
        <time>2019-06-12T12:26:51.638Z</time>
      </trkpt>
      <trkpt lat="44.20669" lon="6.51921">
        <ele>1908.6328125</ele>
        <time>2019-06-12T12:26:53.526Z</time>
      </trkpt>
      <trkpt lat="44.20664" lon="6.5191">
        <ele>1904.62890625</ele>
        <time>2019-06-12T12:26:55.333Z</time>
      </trkpt>
      <trkpt lat="44.2066" lon="6.51898">
        <ele>1900.53125</ele>
        <time>2019-06-12T12:26:57.202Z</time>
      </trkpt>
      <trkpt lat="44.20654" lon="6.51888">
        <ele>1896.3203125</ele>
        <time>2019-06-12T12:26:59.127Z</time>
      </trkpt>
      <trkpt lat="44.20647" lon="6.51879">
        <ele>1892.1171875</ele>
        <time>2019-06-12T12:27:01.113Z</time>
      </trkpt>
      <trkpt lat="44.20643" lon="6.51867">
        <ele>1888.34765625</ele>
        <time>2019-06-12T12:27:02.931Z</time>
      </trkpt>
      <trkpt lat="44.20641" lon="6.51855">
        <ele>1884.7421875</ele>
        <time>2019-06-12T12:27:04.787Z</time>
      </trkpt>
      <trkpt lat="44.20634" lon="6.51844">
        <ele>1880.13671875</ele>
        <time>2019-06-12T12:27:06.855Z</time>
      </trkpt>
      <trkpt lat="44.20627" lon="6.51833">
        <ele>1875.484375</ele>
        <time>2019-06-12T12:27:08.957Z</time>
      </trkpt>
      <trkpt lat="44.20627" lon="6.51819">
        <ele>1871.93359375</ele>
        <time>2019-06-12T12:27:10.898Z</time>
      </trkpt>
      <trkpt lat="44.20623" lon="6.51808">
        <ele>1867.8203125</ele>
        <time>2019-06-12T12:27:12.726Z</time>
      </trkpt>
      <trkpt lat="44.20619" lon="6.51796">
        <ele>1863.71875</ele>
        <time>2019-06-12T12:27:14.596Z</time>
      </trkpt>
      <trkpt lat="44.20616" lon="6.51783">
        <ele>1859.328125</ele>
        <time>2019-06-12T12:27:16.604Z</time>
      </trkpt>
      <trkpt lat="44.2061" lon="6.51776">
        <ele>1856.34375</ele>
        <time>2019-06-12T12:27:17.986Z</time>
      </trkpt>
      <trkpt lat="44.20606" lon="6.51768">
        <ele>1852.87890625</ele>
        <time>2019-06-12T12:27:19.562Z</time>
      </trkpt>
      <trkpt lat="44.20604" lon="6.51756">
        <ele>1849.66015625</ele>
        <time>2019-06-12T12:27:21.202Z</time>
      </trkpt>
      <trkpt lat="44.20606" lon="6.51745">
        <ele>1847.24609375</ele>
        <time>2019-06-12T12:27:22.855Z</time>
      </trkpt>
      <trkpt lat="44.20606" lon="6.51731">
        <ele>1843.90234375</ele>
        <time>2019-06-12T12:27:24.816Z</time>
      </trkpt>
      <trkpt lat="44.20602" lon="6.51728">
        <ele>1841.875</ele>
        <time>2019-06-12T12:27:25.836Z</time>
      </trkpt>
      <trkpt lat="44.206" lon="6.51713">
        <ele>1837.71875</ele>
        <time>2019-06-12T12:27:27.934Z</time>
      </trkpt>
      <trkpt lat="44.20598" lon="6.51703">
        <ele>1834.51953125</ele>
        <time>2019-06-12T12:27:29.429Z</time>
      </trkpt>
      <trkpt lat="44.20597" lon="6.51695">
        <ele>1831.75390625</ele>
        <time>2019-06-12T12:27:30.658Z</time>
      </trkpt>
      <trkpt lat="44.20589" lon="6.51689">
        <ele>1827.703125</ele>
        <time>2019-06-12T12:27:32.436Z</time>
      </trkpt>
      <trkpt lat="44.20583" lon="6.51681">
        <ele>1823.796875</ele>
        <time>2019-06-12T12:27:34.005Z</time>
      </trkpt>
      <trkpt lat="44.20577" lon="6.51674">
        <ele>1820.3359375</ele>
        <time>2019-06-12T12:27:35.606Z</time>
      </trkpt>
      <trkpt lat="44.20577" lon="6.51664">
        <ele>1817.375</ele>
        <time>2019-06-12T12:27:36.998Z</time>
      </trkpt>
      <trkpt lat="44.20576" lon="6.51653">
        <ele>1813.9921875</ele>
        <time>2019-06-12T12:27:38.609Z</time>
      </trkpt>
      <trkpt lat="44.20575" lon="6.51643">
        <ele>1811.078125</ele>
        <time>2019-06-12T12:27:40.096Z</time>
      </trkpt>
      <trkpt lat="44.20577" lon="6.51635">
        <ele>1809.1328125</ele>
        <time>2019-06-12T12:27:41.282Z</time>
      </trkpt>
      <trkpt lat="44.20574" lon="6.51627">
        <ele>1806.4921875</ele>
        <time>2019-06-12T12:27:42.526Z</time>
      </trkpt>
      <trkpt lat="44.20567" lon="6.51622">
        <ele>1803.875</ele>
        <time>2019-06-12T12:27:44.062Z</time>
      </trkpt>
      <trkpt lat="44.20566" lon="6.51612">
        <ele>1800.91796875</ele>
        <time>2019-06-12T12:27:45.496Z</time>
      </trkpt>
      <trkpt lat="44.20565" lon="6.51602">
        <ele>1797.9375</ele>
        <time>2019-06-12T12:27:46.997Z</time>
      </trkpt>
      <trkpt lat="44.2056" lon="6.51593">
        <ele>1795.00390625</ele>
        <time>2019-06-12T12:27:48.604Z</time>
      </trkpt>
      <trkpt lat="44.20563" lon="6.51579">
        <ele>1792.40625</ele>
        <time>2019-06-12T12:27:50.708Z</time>
      </trkpt>
      <trkpt lat="44.20562" lon="6.51576">
        <ele>1791.30078125</ele>
        <time>2019-06-12T12:27:51.348Z</time>
      </trkpt>
      <trkpt lat="44.20562" lon="6.51565">
        <ele>1788.90234375</ele>
        <time>2019-06-12T12:27:52.873Z</time>
      </trkpt>
      <trkpt lat="44.20556" lon="6.51557">
        <ele>1786.484375</ele>
        <time>2019-06-12T12:27:54.474Z</time>
      </trkpt>
      <trkpt lat="44.20555" lon="6.51545">
        <ele>1784.046875</ele>
        <time>2019-06-12T12:27:56.158Z</time>
      </trkpt>
      <trkpt lat="44.20557" lon="6.51533">
        <ele>1782.51953125</ele>
        <time>2019-06-12T12:27:58.009Z</time>
      </trkpt>
      <trkpt lat="44.20555" lon="6.51521">
        <ele>1780.9921875</ele>
        <time>2019-06-12T12:27:59.695Z</time>
      </trkpt>
      <trkpt lat="44.20555" lon="6.51509">
        <ele>1779.4375</ele>
        <time>2019-06-12T12:28:01.465Z</time>
      </trkpt>
      <trkpt lat="44.20552" lon="6.51499">
        <ele>1778.421875</ele>
        <time>2019-06-12T12:28:03.035Z</time>
      </trkpt>
      <trkpt lat="44.2055" lon="6.51486">
        <ele>1777.3671875</ele>
        <time>2019-06-12T12:28:04.896Z</time>
      </trkpt>
      <trkpt lat="44.20548" lon="6.51473">
        <ele>1776.33984375</ele>
        <time>2019-06-12T12:28:06.741Z</time>
      </trkpt>
      <trkpt lat="44.20551" lon="6.51462">
        <ele>1774.58984375</ele>
        <time>2019-06-12T12:28:08.507Z</time>
      </trkpt>
      <trkpt lat="44.2055" lon="6.51451">
        <ele>1773.76171875</ele>
        <time>2019-06-12T12:28:10.112Z</time>
      </trkpt>
      <trkpt lat="44.20548" lon="6.51435">
        <ele>1772.59765625</ele>
        <time>2019-06-12T12:28:12.382Z</time>
      </trkpt>
      <trkpt lat="44.20545" lon="6.5142">
        <ele>1771.53515625</ele>
        <time>2019-06-12T12:28:14.650Z</time>
      </trkpt>
      <trkpt lat="44.20542" lon="6.51406">
        <ele>1770.6953125</ele>
        <time>2019-06-12T12:28:16.737Z</time>
      </trkpt>
      <trkpt lat="44.2054" lon="6.51397">
        <ele>1770.07421875</ele>
        <time>2019-06-12T12:28:18.165Z</time>
      </trkpt>
      <trkpt lat="44.20536" lon="6.51385">
        <ele>1769.61328125</ele>
        <time>2019-06-12T12:28:19.957Z</time>
      </trkpt>
      <trkpt lat="44.20532" lon="6.51373">
        <ele>1768.84765625</ele>
        <time>2019-06-12T12:28:21.776Z</time>
      </trkpt>
      <trkpt lat="44.2053" lon="6.51362">
        <ele>1767.6328125</ele>
        <time>2019-06-12T12:28:23.433Z</time>
      </trkpt>
      <trkpt lat="44.20526" lon="6.51349">
        <ele>1767.9375</ele>
        <time>2019-06-12T12:28:25.514Z</time>
      </trkpt>
      <trkpt lat="44.20523" lon="6.51336">
        <ele>1767.64453125</ele>
        <time>2019-06-12T12:28:27.524Z</time>
      </trkpt>
      <trkpt lat="44.20521" lon="6.51323">
        <ele>1767.2578125</ele>
        <time>2019-06-12T12:28:29.450Z</time>
      </trkpt>
      <trkpt lat="44.20521" lon="6.51309">
        <ele>1765.81640625</ele>
        <time>2019-06-12T12:28:31.352Z</time>
      </trkpt>
      <trkpt lat="44.20518" lon="6.51297">
        <ele>1765.99609375</ele>
        <time>2019-06-12T12:28:33.164Z</time>
      </trkpt>
      <trkpt lat="44.2052" lon="6.51288">
        <ele>1763.3671875</ele>
        <time>2019-06-12T12:28:34.558Z</time>
      </trkpt>
      <trkpt lat="44.20519" lon="6.51276">
        <ele>1762.96484375</ele>
        <time>2019-06-12T12:28:36.345Z</time>
      </trkpt>
      <trkpt lat="44.2052" lon="6.51262">
        <ele>1761.0546875</ele>
        <time>2019-06-12T12:28:38.330Z</time>
      </trkpt>
      <trkpt lat="44.20521" lon="6.5125">
        <ele>1759.28125</ele>
        <time>2019-06-12T12:28:40.039Z</time>
      </trkpt>
      <trkpt lat="44.20524" lon="6.51238">
        <ele>1757.17578125</ele>
        <time>2019-06-12T12:28:41.888Z</time>
      </trkpt>
      <trkpt lat="44.20525" lon="6.51225">
        <ele>1755.51171875</ele>
        <time>2019-06-12T12:28:43.760Z</time>
      </trkpt>
      <trkpt lat="44.20528" lon="6.51212">
        <ele>1753.60546875</ele>
        <time>2019-06-12T12:28:45.629Z</time>
      </trkpt>
      <trkpt lat="44.20531" lon="6.51201">
        <ele>1753.203125</ele>
        <time>2019-06-12T12:28:47.409Z</time>
      </trkpt>
      <trkpt lat="44.20535" lon="6.51189">
        <ele>1752.60546875</ele>
        <time>2019-06-12T12:28:49.234Z</time>
      </trkpt>
      <trkpt lat="44.20541" lon="6.51177">
        <ele>1750.59375</ele>
        <time>2019-06-12T12:28:51.382Z</time>
      </trkpt>
      <trkpt lat="44.20546" lon="6.51163">
        <ele>1749.51171875</ele>
        <time>2019-06-12T12:28:53.577Z</time>
      </trkpt>
      <trkpt lat="44.20552" lon="6.51151">
        <ele>1748.234375</ele>
        <time>2019-06-12T12:28:55.672Z</time>
      </trkpt>
      <trkpt lat="44.20559" lon="6.51141">
        <ele>1746.89453125</ele>
        <time>2019-06-12T12:28:57.677Z</time>
      </trkpt>
      <trkpt lat="44.20564" lon="6.5113">
        <ele>1746.3359375</ele>
        <time>2019-06-12T12:28:59.600Z</time>
      </trkpt>
      <trkpt lat="44.20569" lon="6.51119">
        <ele>1746.296875</ele>
        <time>2019-06-12T12:29:01.407Z</time>
      </trkpt>
      <trkpt lat="44.20577" lon="6.51111">
        <ele>1745.0625</ele>
        <time>2019-06-12T12:29:03.370Z</time>
      </trkpt>
      <trkpt lat="44.20584" lon="6.51101">
        <ele>1744.46484375</ele>
        <time>2019-06-12T12:29:05.342Z</time>
      </trkpt>
      <trkpt lat="44.2059" lon="6.51091">
        <ele>1743.41796875</ele>
        <time>2019-06-12T12:29:07.328Z</time>
      </trkpt>
      <trkpt lat="44.20595" lon="6.51079">
        <ele>1742.875</ele>
        <time>2019-06-12T12:29:09.220Z</time>
      </trkpt>
      <trkpt lat="44.206" lon="6.51067">
        <ele>1741.9375</ele>
        <time>2019-06-12T12:29:11.268Z</time>
      </trkpt>
      <trkpt lat="44.20604" lon="6.51056">
        <ele>1741.51953125</ele>
        <time>2019-06-12T12:29:13.014Z</time>
      </trkpt>
      <trkpt lat="44.20609" lon="6.51044">
        <ele>1740.6875</ele>
        <time>2019-06-12T12:29:15.005Z</time>
      </trkpt>
      <trkpt lat="44.20612" lon="6.5103">
        <ele>1739.859375</ele>
        <time>2019-06-12T12:29:17.011Z</time>
      </trkpt>
      <trkpt lat="44.20609" lon="6.5102">
        <ele>1741.96484375</ele>
        <time>2019-06-12T12:29:18.570Z</time>
      </trkpt>
      <trkpt lat="44.20599" lon="6.51024">
        <ele>1746.59375</ele>
        <time>2019-06-12T12:29:20.561Z</time>
      </trkpt>
      <trkpt lat="44.20592" lon="6.51031">
        <ele>1750.2734375</ele>
        <time>2019-06-12T12:29:22.351Z</time>
      </trkpt>
      <trkpt lat="44.20584" lon="6.51038">
        <ele>1753.98828125</ele>
        <time>2019-06-12T12:29:24.106Z</time>
      </trkpt>
      <trkpt lat="44.20577" lon="6.51046">
        <ele>1754.328125</ele>
        <time>2019-06-12T12:29:25.962Z</time>
      </trkpt>
      <trkpt lat="44.2057" lon="6.51055">
        <ele>1754.046875</ele>
        <time>2019-06-12T12:29:27.827Z</time>
      </trkpt>
      <trkpt lat="44.20563" lon="6.51061">
        <ele>1754.21484375</ele>
        <time>2019-06-12T12:29:29.516Z</time>
      </trkpt>
      <trkpt lat="44.20555" lon="6.51071">
        <ele>1754.90234375</ele>
        <time>2019-06-12T12:29:31.602Z</time>
      </trkpt>
      <trkpt lat="44.20547" lon="6.5108">
        <ele>1756.46875</ele>
        <time>2019-06-12T12:29:33.734Z</time>
      </trkpt>
      <trkpt lat="44.2054" lon="6.51087">
        <ele>1758.3125</ele>
        <time>2019-06-12T12:29:35.434Z</time>
      </trkpt>
      <trkpt lat="44.20534" lon="6.51096">
        <ele>1760.625</ele>
        <time>2019-06-12T12:29:37.185Z</time>
      </trkpt>
      <trkpt lat="44.20525" lon="6.51105">
        <ele>1762.26171875</ele>
        <time>2019-06-12T12:29:39.514Z</time>
      </trkpt>
      <trkpt lat="44.20516" lon="6.51113">
        <ele>1761.19140625</ele>
        <time>2019-06-12T12:29:41.512Z</time>
      </trkpt>
      <trkpt lat="44.20508" lon="6.51122">
        <ele>1761.08984375</ele>
        <time>2019-06-12T12:29:43.523Z</time>
      </trkpt>
      <trkpt lat="44.20501" lon="6.51128">
        <ele>1761.6328125</ele>
        <time>2019-06-12T12:29:45.189Z</time>
      </trkpt>
      <trkpt lat="44.20493" lon="6.51134">
        <ele>1762.83984375</ele>
        <time>2019-06-12T12:29:47.032Z</time>
      </trkpt>
      <trkpt lat="44.20485" lon="6.51139">
        <ele>1764.625</ele>
        <time>2019-06-12T12:29:48.755Z</time>
      </trkpt>
      <trkpt lat="44.20478" lon="6.51143">
        <ele>1766.46875</ele>
        <time>2019-06-12T12:29:50.337Z</time>
      </trkpt>
      <trkpt lat="44.20469" lon="6.51148">
        <ele>1767.43359375</ele>
        <time>2019-06-12T12:29:52.380Z</time>
      </trkpt>
      <trkpt lat="44.2046" lon="6.51155">
        <ele>1767.26171875</ele>
        <time>2019-06-12T12:29:54.358Z</time>
      </trkpt>
      <trkpt lat="44.20452" lon="6.5116">
        <ele>1766.984375</ele>
        <time>2019-06-12T12:29:56.143Z</time>
      </trkpt>
      <trkpt lat="44.20445" lon="6.51168">
        <ele>1767.98828125</ele>
        <time>2019-06-12T12:29:57.893Z</time>
      </trkpt>
      <trkpt lat="44.20438" lon="6.51175">
        <ele>1769.421875</ele>
        <time>2019-06-12T12:29:59.712Z</time>
      </trkpt>
      <trkpt lat="44.20428" lon="6.51182">
        <ele>1770.375</ele>
        <time>2019-06-12T12:30:01.782Z</time>
      </trkpt>
      <trkpt lat="44.2042" lon="6.51187">
        <ele>1771.53515625</ele>
        <time>2019-06-12T12:30:03.675Z</time>
      </trkpt>
      <trkpt lat="44.20411" lon="6.51191">
        <ele>1771.046875</ele>
        <time>2019-06-12T12:30:05.494Z</time>
      </trkpt>
      <trkpt lat="44.20402" lon="6.51193">
        <ele>1769.33984375</ele>
        <time>2019-06-12T12:30:07.337Z</time>
      </trkpt>
      <trkpt lat="44.20393" lon="6.51194">
        <ele>1767.5390625</ele>
        <time>2019-06-12T12:30:09.223Z</time>
      </trkpt>
      <trkpt lat="44.20383" lon="6.51197">
        <ele>1766.0703125</ele>
        <time>2019-06-12T12:30:11.136Z</time>
      </trkpt>
      <trkpt lat="44.20375" lon="6.51199">
        <ele>1764.83203125</ele>
        <time>2019-06-12T12:30:12.846Z</time>
      </trkpt>
      <trkpt lat="44.20366" lon="6.51198">
        <ele>1761.78125</ele>
        <time>2019-06-12T12:30:14.636Z</time>
      </trkpt>
      <trkpt lat="44.20355" lon="6.51194">
        <ele>1758.33984375</ele>
        <time>2019-06-12T12:30:16.805Z</time>
      </trkpt>
      <trkpt lat="44.20347" lon="6.5119">
        <ele>1755.4921875</ele>
        <time>2019-06-12T12:30:18.590Z</time>
      </trkpt>
      <trkpt lat="44.20337" lon="6.51188">
        <ele>1753.90234375</ele>
        <time>2019-06-12T12:30:20.629Z</time>
      </trkpt>
      <trkpt lat="44.20328" lon="6.51189">
        <ele>1753.65625</ele>
        <time>2019-06-12T12:30:22.431Z</time>
      </trkpt>
      <trkpt lat="44.20319" lon="6.51188">
        <ele>1752.57421875</ele>
        <time>2019-06-12T12:30:24.244Z</time>
      </trkpt>
      <trkpt lat="44.20308" lon="6.51188">
        <ele>1751.52734375</ele>
        <time>2019-06-12T12:30:26.375Z</time>
      </trkpt>
      <trkpt lat="44.20301" lon="6.51188">
        <ele>1752.08203125</ele>
        <time>2019-06-12T12:30:27.898Z</time>
      </trkpt>
      <trkpt lat="44.20299" lon="6.51181">
        <ele>1749.42578125</ele>
        <time>2019-06-12T12:30:29.069Z</time>
      </trkpt>
      <trkpt lat="44.20303" lon="6.51167">
        <ele>1743.66796875</ele>
        <time>2019-06-12T12:30:31.247Z</time>
      </trkpt>
      <trkpt lat="44.20308" lon="6.51153">
        <ele>1740.09765625</ele>
        <time>2019-06-12T12:30:33.504Z</time>
      </trkpt>
      <trkpt lat="44.20316" lon="6.51145">
        <ele>1739.84375</ele>
        <time>2019-06-12T12:30:35.423Z</time>
      </trkpt>
      <trkpt lat="44.20325" lon="6.51137">
        <ele>1738.9375</ele>
        <time>2019-06-12T12:30:37.545Z</time>
      </trkpt>
      <trkpt lat="44.20335" lon="6.51131">
        <ele>1737.48828125</ele>
        <time>2019-06-12T12:30:39.689Z</time>
      </trkpt>
      <trkpt lat="44.20343" lon="6.51123">
        <ele>1735.40625</ele>
        <time>2019-06-12T12:30:41.763Z</time>
      </trkpt>
      <trkpt lat="44.20353" lon="6.51118">
        <ele>1732.94140625</ele>
        <time>2019-06-12T12:30:43.893Z</time>
      </trkpt>
      <trkpt lat="44.20362" lon="6.51113">
        <ele>1730.3203125</ele>
        <time>2019-06-12T12:30:45.754Z</time>
      </trkpt>
      <trkpt lat="44.20367" lon="6.51101">
        <ele>1728.77734375</ele>
        <time>2019-06-12T12:30:47.808Z</time>
      </trkpt>
      <trkpt lat="44.20371" lon="6.51088">
        <ele>1729.60546875</ele>
        <time>2019-06-12T12:30:49.750Z</time>
      </trkpt>
      <trkpt lat="44.20373" lon="6.51072">
        <ele>1730.0234375</ele>
        <time>2019-06-12T12:30:52.067Z</time>
      </trkpt>
      <trkpt lat="44.20374" lon="6.51059">
        <ele>1730.14453125</ele>
        <time>2019-06-12T12:30:53.986Z</time>
      </trkpt>
      <trkpt lat="44.20374" lon="6.51045">
        <ele>1730.66015625</ele>
        <time>2019-06-12T12:30:56.006Z</time>
      </trkpt>
      <trkpt lat="44.20371" lon="6.51031">
        <ele>1732.83203125</ele>
        <time>2019-06-12T12:30:58.031Z</time>
      </trkpt>
      <trkpt lat="44.20377" lon="6.51016">
        <ele>1732.3203125</ele>
        <time>2019-06-12T12:31:00.563Z</time>
      </trkpt>
      <trkpt lat="44.20384" lon="6.50999">
        <ele>1730.5546875</ele>
        <time>2019-06-12T12:31:03.316Z</time>
      </trkpt>
      <trkpt lat="44.2039" lon="6.50986">
        <ele>1728.54296875</ele>
        <time>2019-06-12T12:31:05.678Z</time>
      </trkpt>
      <trkpt lat="44.20395" lon="6.5097">
        <ele>1727.94921875</ele>
        <time>2019-06-12T12:31:08.083Z</time>
      </trkpt>
      <trkpt lat="44.20395" lon="6.50959">
        <ele>1728.75</ele>
        <time>2019-06-12T12:31:09.719Z</time>
      </trkpt>
      <trkpt lat="44.20391" lon="6.50947">
        <ele>1731.84375</ele>
        <time>2019-06-12T12:31:11.621Z</time>
      </trkpt>
      <trkpt lat="44.20388" lon="6.50935">
        <ele>1734.5703125</ele>
        <time>2019-06-12T12:31:13.512Z</time>
      </trkpt>
      <trkpt lat="44.20383" lon="6.5092">
        <ele>1736.48046875</ele>
        <time>2019-06-12T12:31:15.783Z</time>
      </trkpt>
      <trkpt lat="44.20377" lon="6.50906">
        <ele>1738.91796875</ele>
        <time>2019-06-12T12:31:18.151Z</time>
      </trkpt>
      <trkpt lat="44.20371" lon="6.50889">
        <ele>1741.6015625</ele>
        <time>2019-06-12T12:31:20.847Z</time>
      </trkpt>
      <trkpt lat="44.20364" lon="6.5088">
        <ele>1745.40625</ele>
        <time>2019-06-12T12:31:22.822Z</time>
      </trkpt>
      <trkpt lat="44.20355" lon="6.50875">
        <ele>1750.57421875</ele>
        <time>2019-06-12T12:31:24.764Z</time>
      </trkpt>
      <trkpt lat="44.20346" lon="6.50867">
        <ele>1755.37890625</ele>
        <time>2019-06-12T12:31:26.839Z</time>
      </trkpt>
      <trkpt lat="44.20338" lon="6.50859">
        <ele>1759.54296875</ele>
        <time>2019-06-12T12:31:28.846Z</time>
      </trkpt>
      <trkpt lat="44.20329" lon="6.50852">
        <ele>1763.80078125</ele>
        <time>2019-06-12T12:31:30.938Z</time>
      </trkpt>
      <trkpt lat="44.20322" lon="6.50841">
        <ele>1766.66796875</ele>
        <time>2019-06-12T12:31:33.112Z</time>
      </trkpt>
      <trkpt lat="44.20321" lon="6.50826">
        <ele>1765.8046875</ele>
        <time>2019-06-12T12:31:35.194Z</time>
      </trkpt>
      <trkpt lat="44.20329" lon="6.50812">
        <ele>1764.984375</ele>
        <time>2019-06-12T12:31:37.732Z</time>
      </trkpt>
      <trkpt lat="44.20343" lon="6.508">
        <ele>1761.65625</ele>
        <time>2019-06-12T12:31:40.999Z</time>
      </trkpt>
      <trkpt lat="44.20355" lon="6.50796">
        <ele>1758.01953125</ele>
        <time>2019-06-12T12:31:43.446Z</time>
      </trkpt>
      <trkpt lat="44.20367" lon="6.50791">
        <ele>1754.0625</ele>
        <time>2019-06-12T12:31:46.024Z</time>
      </trkpt>
      <trkpt lat="44.20379" lon="6.50785">
        <ele>1749.8046875</ele>
        <time>2019-06-12T12:31:48.574Z</time>
      </trkpt>
      <trkpt lat="44.20389" lon="6.50779">
        <ele>1746.4765625</ele>
        <time>2019-06-12T12:31:50.816Z</time>
      </trkpt>
      <trkpt lat="44.20397" lon="6.50768">
        <ele>1745.37109375</ele>
        <time>2019-06-12T12:31:52.911Z</time>
      </trkpt>
      <trkpt lat="44.204" lon="6.50755">
        <ele>1746.328125</ele>
        <time>2019-06-12T12:31:54.895Z</time>
      </trkpt>
      <trkpt lat="44.20399" lon="6.50745">
        <ele>1748.55859375</ele>
        <time>2019-06-12T12:31:56.368Z</time>
      </trkpt>
      <trkpt lat="44.20402" lon="6.50729">
        <ele>1749.7890625</ele>
        <time>2019-06-12T12:31:58.769Z</time>
      </trkpt>
      <trkpt lat="44.20404" lon="6.50716">
        <ele>1751.41015625</ele>
        <time>2019-06-12T12:32:00.594Z</time>
      </trkpt>
      <trkpt lat="44.20401" lon="6.50699">
        <ele>1755.5390625</ele>
        <time>2019-06-12T12:32:03.082Z</time>
      </trkpt>
      <trkpt lat="44.20404" lon="6.50687">
        <ele>1755.6953125</ele>
        <time>2019-06-12T12:32:04.916Z</time>
      </trkpt>
      <trkpt lat="44.20408" lon="6.50675">
        <ele>1755.98046875</ele>
        <time>2019-06-12T12:32:06.724Z</time>
      </trkpt>
      <trkpt lat="44.20412" lon="6.50663">
        <ele>1755.6640625</ele>
        <time>2019-06-12T12:32:08.711Z</time>
      </trkpt>
      <trkpt lat="44.20424" lon="6.50651">
        <ele>1750.73828125</ele>
        <time>2019-06-12T12:32:11.732Z</time>
      </trkpt>
      <trkpt lat="44.2043" lon="6.50639">
        <ele>1749.703125</ele>
        <time>2019-06-12T12:32:13.791Z</time>
      </trkpt>
      <trkpt lat="44.20434" lon="6.50624">
        <ele>1750.09765625</ele>
        <time>2019-06-12T12:32:16.122Z</time>
      </trkpt>
      <trkpt lat="44.20442" lon="6.50607">
        <ele>1748.953125</ele>
        <time>2019-06-12T12:32:18.961Z</time>
      </trkpt>
      <trkpt lat="44.20447" lon="6.50595">
        <ele>1747.80078125</ele>
        <time>2019-06-12T12:32:21.071Z</time>
      </trkpt>
      <trkpt lat="44.20454" lon="6.5058">
        <ele>1746.19140625</ele>
        <time>2019-06-12T12:32:23.662Z</time>
      </trkpt>
      <trkpt lat="44.2046" lon="6.50565">
        <ele>1745.19140625</ele>
        <time>2019-06-12T12:32:26.037Z</time>
      </trkpt>
      <trkpt lat="44.20465" lon="6.50554">
        <ele>1743.78125</ele>
        <time>2019-06-12T12:32:27.964Z</time>
      </trkpt>
      <trkpt lat="44.2047" lon="6.50543">
        <ele>1742.46875</ele>
        <time>2019-06-12T12:32:29.773Z</time>
      </trkpt>
      <trkpt lat="44.20473" lon="6.50526">
        <ele>1742.14453125</ele>
        <time>2019-06-12T12:32:32.325Z</time>
      </trkpt>
      <trkpt lat="44.20476" lon="6.50512">
        <ele>1741.796875</ele>
        <time>2019-06-12T12:32:34.389Z</time>
      </trkpt>
      <trkpt lat="44.20477" lon="6.50496">
        <ele>1742.62109375</ele>
        <time>2019-06-12T12:32:36.604Z</time>
      </trkpt>
      <trkpt lat="44.20478" lon="6.5048">
        <ele>1743.3515625</ele>
        <time>2019-06-12T12:32:38.961Z</time>
      </trkpt>
      <trkpt lat="44.20477" lon="6.50464">
        <ele>1745.36328125</ele>
        <time>2019-06-12T12:32:41.325Z</time>
      </trkpt>
      <trkpt lat="44.20478" lon="6.50447">
        <ele>1746.41015625</ele>
        <time>2019-06-12T12:32:43.665Z</time>
      </trkpt>
      <trkpt lat="44.20478" lon="6.50433">
        <ele>1747.41796875</ele>
        <time>2019-06-12T12:32:45.727Z</time>
      </trkpt>
      <trkpt lat="44.20483" lon="6.50421">
        <ele>1745.47265625</ele>
        <time>2019-06-12T12:32:47.654Z</time>
      </trkpt>
      <trkpt lat="44.2049" lon="6.50412">
        <ele>1741.9609375</ele>
        <time>2019-06-12T12:32:49.577Z</time>
      </trkpt>
      <trkpt lat="44.20497" lon="6.50401">
        <ele>1738.75</ele>
        <time>2019-06-12T12:32:51.699Z</time>
      </trkpt>
      <trkpt lat="44.20505" lon="6.50392">
        <ele>1734.98828125</ele>
        <time>2019-06-12T12:32:53.832Z</time>
      </trkpt>
      <trkpt lat="44.20512" lon="6.5038">
        <ele>1732.46484375</ele>
        <time>2019-06-12T12:32:55.985Z</time>
      </trkpt>
      <trkpt lat="44.20516" lon="6.5037">
        <ele>1730.75390625</ele>
        <time>2019-06-12T12:32:57.658Z</time>
      </trkpt>
      <trkpt lat="44.20516" lon="6.50356">
        <ele>1732.3125</ele>
        <time>2019-06-12T12:32:59.682Z</time>
      </trkpt>
      <trkpt lat="44.2051" lon="6.5034">
        <ele>1736.78515625</ele>
        <time>2019-06-12T12:33:02.157Z</time>
      </trkpt>
      <trkpt lat="44.20505" lon="6.50323">
        <ele>1741.05859375</ele>
        <time>2019-06-12T12:33:04.827Z</time>
      </trkpt>
      <trkpt lat="44.20501" lon="6.50309">
        <ele>1742.61328125</ele>
        <time>2019-06-12T12:33:07.001Z</time>
      </trkpt>
      <trkpt lat="44.20502" lon="6.50294">
        <ele>1741.26171875</ele>
        <time>2019-06-12T12:33:09.201Z</time>
      </trkpt>
      <trkpt lat="44.20507" lon="6.50285">
        <ele>1738.30859375</ele>
        <time>2019-06-12T12:33:10.792Z</time>
      </trkpt>
      <trkpt lat="44.20519" lon="6.50274">
        <ele>1731.52734375</ele>
        <time>2019-06-12T12:33:13.647Z</time>
      </trkpt>
      <trkpt lat="44.20527" lon="6.50264">
        <ele>1727.0625</ele>
        <time>2019-06-12T12:33:15.768Z</time>
      </trkpt>
      <trkpt lat="44.20531" lon="6.50251">
        <ele>1724.76953125</ele>
        <time>2019-06-12T12:33:17.792Z</time>
      </trkpt>
      <trkpt lat="44.20532" lon="6.50237">
        <ele>1723.7109375</ele>
        <time>2019-06-12T12:33:19.902Z</time>
      </trkpt>
      <trkpt lat="44.20538" lon="6.50221">
        <ele>1719.1640625</ele>
        <time>2019-06-12T12:33:22.524Z</time>
      </trkpt>
      <trkpt lat="44.20539" lon="6.50205">
        <ele>1718.484375</ele>
        <time>2019-06-12T12:33:24.741Z</time>
      </trkpt>
      <trkpt lat="44.20539" lon="6.5019">
        <ele>1717.70703125</ele>
        <time>2019-06-12T12:33:26.866Z</time>
      </trkpt>
      <trkpt lat="44.20548" lon="6.50177">
        <ele>1711.28515625</ele>
        <time>2019-06-12T12:33:29.387Z</time>
      </trkpt>
      <trkpt lat="44.20551" lon="6.50166">
        <ele>1708.2421875</ele>
        <time>2019-06-12T12:33:31.177Z</time>
      </trkpt>
      <trkpt lat="44.20556" lon="6.50151">
        <ele>1706.015625</ele>
        <time>2019-06-12T12:33:33.491Z</time>
      </trkpt>
      <trkpt lat="44.20557" lon="6.50138">
        <ele>1706.953125</ele>
        <time>2019-06-12T12:33:35.314Z</time>
      </trkpt>
      <trkpt lat="44.20558" lon="6.50126">
        <ele>1708.4453125</ele>
        <time>2019-06-12T12:33:37.010Z</time>
      </trkpt>
      <trkpt lat="44.20558" lon="6.50113">
        <ele>1710.2421875</ele>
        <time>2019-06-12T12:33:38.868Z</time>
      </trkpt>
      <trkpt lat="44.20569" lon="6.50105">
        <ele>1704.48046875</ele>
        <time>2019-06-12T12:33:41.394Z</time>
      </trkpt>
      <trkpt lat="44.20581" lon="6.50094">
        <ele>1700.41796875</ele>
        <time>2019-06-12T12:33:44.288Z</time>
      </trkpt>
      <trkpt lat="44.20588" lon="6.50091">
        <ele>1697.59375</ele>
        <time>2019-06-12T12:33:45.675Z</time>
      </trkpt>
      <trkpt lat="44.20595" lon="6.50084">
        <ele>1695.8515625</ele>
        <time>2019-06-12T12:33:47.500Z</time>
      </trkpt>
      <trkpt lat="44.20604" lon="6.50076">
        <ele>1694.58203125</ele>
        <time>2019-06-12T12:33:49.600Z</time>
      </trkpt>
      <trkpt lat="44.20614" lon="6.50068">
        <ele>1691.7421875</ele>
        <time>2019-06-12T12:33:51.938Z</time>
      </trkpt>
      <trkpt lat="44.20622" lon="6.50063">
        <ele>1689.9296875</ele>
        <time>2019-06-12T12:33:53.639Z</time>
      </trkpt>
      <trkpt lat="44.20631" lon="6.50057">
        <ele>1687.16796875</ele>
        <time>2019-06-12T12:33:55.726Z</time>
      </trkpt>
      <trkpt lat="44.20638" lon="6.50047">
        <ele>1687.5390625</ele>
        <time>2019-06-12T12:33:57.655Z</time>
      </trkpt>
      <trkpt lat="44.20646" lon="6.50038">
        <ele>1683.640625</ele>
        <time>2019-06-12T12:33:59.678Z</time>
      </trkpt>
      <trkpt lat="44.20653" lon="6.5003">
        <ele>1679.37109375</ele>
        <time>2019-06-12T12:34:01.524Z</time>
      </trkpt>
      <trkpt lat="44.20659" lon="6.50022">
        <ele>1675.68359375</ele>
        <time>2019-06-12T12:34:03.203Z</time>
      </trkpt>
      <trkpt lat="44.20665" lon="6.50014">
        <ele>1672.34375</ele>
        <time>2019-06-12T12:34:04.873Z</time>
      </trkpt>
      <trkpt lat="44.20668" lon="6.50003">
        <ele>1671.34375</ele>
        <time>2019-06-12T12:34:06.578Z</time>
      </trkpt>
      <trkpt lat="44.2067" lon="6.49987">
        <ele>1671.5078125</ele>
        <time>2019-06-12T12:34:08.884Z</time>
      </trkpt>
      <trkpt lat="44.2067" lon="6.49975">
        <ele>1672.40625</ele>
        <time>2019-06-12T12:34:10.577Z</time>
      </trkpt>
      <trkpt lat="44.20676" lon="6.49962">
        <ele>1667.6875</ele>
        <time>2019-06-12T12:34:12.777Z</time>
      </trkpt>
      <trkpt lat="44.2068" lon="6.49947">
        <ele>1665.3125</ele>
        <time>2019-06-12T12:34:15.130Z</time>
      </trkpt>
      <trkpt lat="44.20682" lon="6.49932">
        <ele>1663.94921875</ele>
        <time>2019-06-12T12:34:17.220Z</time>
      </trkpt>
      <trkpt lat="44.20681" lon="6.49919">
        <ele>1664.296875</ele>
        <time>2019-06-12T12:34:19.192Z</time>
      </trkpt>
      <trkpt lat="44.2068" lon="6.49904">
        <ele>1664.70703125</ele>
        <time>2019-06-12T12:34:21.303Z</time>
      </trkpt>
      <trkpt lat="44.20676" lon="6.49892">
        <ele>1668.125</ele>
        <time>2019-06-12T12:34:23.178Z</time>
      </trkpt>
      <trkpt lat="44.20675" lon="6.49886">
        <ele>1669.4921875</ele>
        <time>2019-06-12T12:34:24.060Z</time>
      </trkpt>
      <trkpt lat="44.20671" lon="6.49873">
        <ele>1671.6328125</ele>
        <time>2019-06-12T12:34:26.148Z</time>
      </trkpt>
      <trkpt lat="44.20667" lon="6.4986">
        <ele>1673.39453125</ele>
        <time>2019-06-12T12:34:28.188Z</time>
      </trkpt>
      <trkpt lat="44.20664" lon="6.49848">
        <ele>1675.28125</ele>
        <time>2019-06-12T12:34:30.030Z</time>
      </trkpt>
      <trkpt lat="44.20667" lon="6.49836">
        <ele>1670.296875</ele>
        <time>2019-06-12T12:34:31.893Z</time>
      </trkpt>
      <trkpt lat="44.20664" lon="6.49828">
        <ele>1672.046875</ele>
        <time>2019-06-12T12:34:33.081Z</time>
      </trkpt>
      <trkpt lat="44.20659" lon="6.49815">
        <ele>1674.34765625</ele>
        <time>2019-06-12T12:34:35.273Z</time>
      </trkpt>
      <trkpt lat="44.20657" lon="6.49809">
        <ele>1674.51953125</ele>
        <time>2019-06-12T12:34:36.205Z</time>
      </trkpt>
      <trkpt lat="44.20652" lon="6.49797">
        <ele>1676.67578125</ele>
        <time>2019-06-12T12:34:38.115Z</time>
      </trkpt>
      <trkpt lat="44.20649" lon="6.49783">
        <ele>1676.3984375</ele>
        <time>2019-06-12T12:34:40.270Z</time>
      </trkpt>
      <trkpt lat="44.20651" lon="6.49771">
        <ele>1672.28125</ele>
        <time>2019-06-12T12:34:42.044Z</time>
      </trkpt>
      <trkpt lat="44.20653" lon="6.49758">
        <ele>1666.81640625</ele>
        <time>2019-06-12T12:34:44.021Z</time>
      </trkpt>
      <trkpt lat="44.20652" lon="6.49742">
        <ele>1664.2578125</ele>
        <time>2019-06-12T12:34:46.288Z</time>
      </trkpt>
      <trkpt lat="44.20648" lon="6.49736">
        <ele>1666.91796875</ele>
        <time>2019-06-12T12:34:47.562Z</time>
      </trkpt>
      <trkpt lat="44.20646" lon="6.49724">
        <ele>1665.67578125</ele>
        <time>2019-06-12T12:34:49.291Z</time>
      </trkpt>
      <trkpt lat="44.20639" lon="6.49712">
        <ele>1668.70703125</ele>
        <time>2019-06-12T12:34:51.473Z</time>
      </trkpt>
      <trkpt lat="44.20632" lon="6.49702">
        <ele>1673.1484375</ele>
        <time>2019-06-12T12:34:53.506Z</time>
      </trkpt>
      <trkpt lat="44.2063" lon="6.49689">
        <ele>1672.109375</ele>
        <time>2019-06-12T12:34:55.397Z</time>
      </trkpt>
      <trkpt lat="44.20627" lon="6.49678">
        <ele>1672.7890625</ele>
        <time>2019-06-12T12:34:57.112Z</time>
      </trkpt>
      <trkpt lat="44.20623" lon="6.49664">
        <ele>1673.4296875</ele>
        <time>2019-06-12T12:34:59.230Z</time>
      </trkpt>
      <trkpt lat="44.20619" lon="6.49651">
        <ele>1673.4375</ele>
        <time>2019-06-12T12:35:01.206Z</time>
      </trkpt>
      <trkpt lat="44.20619" lon="6.49638">
        <ele>1670.76953125</ele>
        <time>2019-06-12T12:35:03.083Z</time>
      </trkpt>
      <trkpt lat="44.20615" lon="6.49627">
        <ele>1671.8671875</ele>
        <time>2019-06-12T12:35:04.964Z</time>
      </trkpt>
      <trkpt lat="44.20611" lon="6.49612">
        <ele>1671.75</ele>
        <time>2019-06-12T12:35:07.170Z</time>
      </trkpt>
      <trkpt lat="44.20608" lon="6.49598">
        <ele>1670.49609375</ele>
        <time>2019-06-12T12:35:09.298Z</time>
      </trkpt>
      <trkpt lat="44.20608" lon="6.49584">
        <ele>1668.13671875</ele>
        <time>2019-06-12T12:35:11.273Z</time>
      </trkpt>
      <trkpt lat="44.20604" lon="6.49571">
        <ele>1668.60546875</ele>
        <time>2019-06-12T12:35:13.239Z</time>
      </trkpt>
      <trkpt lat="44.206" lon="6.4956">
        <ele>1669.51171875</ele>
        <time>2019-06-12T12:35:15.057Z</time>
      </trkpt>
      <trkpt lat="44.20597" lon="6.49551">
        <ele>1669.5546875</ele>
        <time>2019-06-12T12:35:16.509Z</time>
      </trkpt>
      <trkpt lat="44.20596" lon="6.49542">
        <ele>1669.68359375</ele>
        <time>2019-06-12T12:35:17.872Z</time>
      </trkpt>
      <trkpt lat="44.20596" lon="6.49529">
        <ele>1668.11328125</ele>
        <time>2019-06-12T12:35:19.609Z</time>
      </trkpt>
      <trkpt lat="44.20593" lon="6.49519">
        <ele>1669.36328125</ele>
        <time>2019-06-12T12:35:21.267Z</time>
      </trkpt>
      <trkpt lat="44.2059" lon="6.49505">
        <ele>1670.21875</ele>
        <time>2019-06-12T12:35:23.357Z</time>
      </trkpt>
      <trkpt lat="44.20596" lon="6.49491">
        <ele>1664.625</ele>
        <time>2019-06-12T12:35:25.720Z</time>
      </trkpt>
      <trkpt lat="44.20601" lon="6.49474">
        <ele>1661.46484375</ele>
        <time>2019-06-12T12:35:28.369Z</time>
      </trkpt>
      <trkpt lat="44.20604" lon="6.49459">
        <ele>1659.58203125</ele>
        <time>2019-06-12T12:35:30.619Z</time>
      </trkpt>
      <trkpt lat="44.20608" lon="6.49444">
        <ele>1657.20703125</ele>
        <time>2019-06-12T12:35:32.826Z</time>
      </trkpt>
      <trkpt lat="44.20611" lon="6.49431">
        <ele>1655.91796875</ele>
        <time>2019-06-12T12:35:34.875Z</time>
      </trkpt>
      <trkpt lat="44.20619" lon="6.4942">
        <ele>1652.140625</ele>
        <time>2019-06-12T12:35:37.071Z</time>
      </trkpt>
      <trkpt lat="44.20624" lon="6.49403">
        <ele>1651.2265625</ele>
        <time>2019-06-12T12:35:39.672Z</time>
      </trkpt>
      <trkpt lat="44.20628" lon="6.49392">
        <ele>1649.3984375</ele>
        <time>2019-06-12T12:35:41.423Z</time>
      </trkpt>
      <trkpt lat="44.20632" lon="6.4938">
        <ele>1649.30078125</ele>
        <time>2019-06-12T12:35:43.336Z</time>
      </trkpt>
      <trkpt lat="44.20639" lon="6.49366">
        <ele>1648.51171875</ele>
        <time>2019-06-12T12:35:45.749Z</time>
      </trkpt>
      <trkpt lat="44.20643" lon="6.49356">
        <ele>1649.328125</ele>
        <time>2019-06-12T12:35:47.445Z</time>
      </trkpt>
      <trkpt lat="44.2065" lon="6.49345">
        <ele>1648.70703125</ele>
        <time>2019-06-12T12:35:49.472Z</time>
      </trkpt>
      <trkpt lat="44.20658" lon="6.49336">
        <ele>1646.91015625</ele>
        <time>2019-06-12T12:35:51.556Z</time>
      </trkpt>
      <trkpt lat="44.20666" lon="6.49326">
        <ele>1645.9453125</ele>
        <time>2019-06-12T12:35:53.753Z</time>
      </trkpt>
      <trkpt lat="44.20675" lon="6.49323">
        <ele>1641.8359375</ele>
        <time>2019-06-12T12:35:55.575Z</time>
      </trkpt>
      <trkpt lat="44.20686" lon="6.49316">
        <ele>1638.1328125</ele>
        <time>2019-06-12T12:35:58.118Z</time>
      </trkpt>
      <trkpt lat="44.20699" lon="6.49308">
        <ele>1634.23046875</ele>
        <time>2019-06-12T12:36:00.832Z</time>
      </trkpt>
      <trkpt lat="44.20712" lon="6.49298">
        <ele>1630.60546875</ele>
        <time>2019-06-12T12:36:03.823Z</time>
      </trkpt>
      <trkpt lat="44.2072" lon="6.49292">
        <ele>1628.24609375</ele>
        <time>2019-06-12T12:36:05.744Z</time>
      </trkpt>
      <trkpt lat="44.20729" lon="6.49284">
        <ele>1626.53125</ele>
        <time>2019-06-12T12:36:07.834Z</time>
      </trkpt>
      <trkpt lat="44.20737" lon="6.49276">
        <ele>1625.71875</ele>
        <time>2019-06-12T12:36:09.859Z</time>
      </trkpt>
      <trkpt lat="44.20745" lon="6.49264">
        <ele>1625.48046875</ele>
        <time>2019-06-12T12:36:12.199Z</time>
      </trkpt>
      <trkpt lat="44.20751" lon="6.49254">
        <ele>1625.625</ele>
        <time>2019-06-12T12:36:13.956Z</time>
      </trkpt>
      <trkpt lat="44.20758" lon="6.49245">
        <ele>1624.19140625</ele>
        <time>2019-06-12T12:36:16.013Z</time>
      </trkpt>
      <trkpt lat="44.20766" lon="6.49236">
        <ele>1622.25</ele>
        <time>2019-06-12T12:36:18.003Z</time>
      </trkpt>
      <trkpt lat="44.20774" lon="6.49225">
        <ele>1620.8828125</ele>
        <time>2019-06-12T12:36:20.268Z</time>
      </trkpt>
      <trkpt lat="44.20783" lon="6.49214">
        <ele>1619.1640625</ele>
        <time>2019-06-12T12:36:22.628Z</time>
      </trkpt>
      <trkpt lat="44.20789" lon="6.49199">
        <ele>1619.06640625</ele>
        <time>2019-06-12T12:36:25.104Z</time>
      </trkpt>
      <trkpt lat="44.20794" lon="6.49186">
        <ele>1619.87109375</ele>
        <time>2019-06-12T12:36:27.265Z</time>
      </trkpt>
      <trkpt lat="44.20801" lon="6.49173">
        <ele>1618.6171875</ele>
        <time>2019-06-12T12:36:29.559Z</time>
      </trkpt>
      <trkpt lat="44.20808" lon="6.49159">
        <ele>1618.41015625</ele>
        <time>2019-06-12T12:36:32.026Z</time>
      </trkpt>
      <trkpt lat="44.20812" lon="6.49142">
        <ele>1619.83203125</ele>
        <time>2019-06-12T12:36:34.519Z</time>
      </trkpt>
      <trkpt lat="44.20817" lon="6.49126">
        <ele>1620.69140625</ele>
        <time>2019-06-12T12:36:37.016Z</time>
      </trkpt>
      <trkpt lat="44.20819" lon="6.49108">
        <ele>1623.55078125</ele>
        <time>2019-06-12T12:36:39.704Z</time>
      </trkpt>
      <trkpt lat="44.20824" lon="6.49091">
        <ele>1623.9609375</ele>
        <time>2019-06-12T12:36:42.332Z</time>
      </trkpt>
      <trkpt lat="44.2083" lon="6.49076">
        <ele>1623.12109375</ele>
        <time>2019-06-12T12:36:44.770Z</time>
      </trkpt>
      <trkpt lat="44.20839" lon="6.49057">
        <ele>1622.15625</ele>
        <time>2019-06-12T12:36:48.085Z</time>
      </trkpt>
      <trkpt lat="44.20847" lon="6.49041">
        <ele>1621.375</ele>
        <time>2019-06-12T12:36:50.844Z</time>
      </trkpt>
      <trkpt lat="44.20855" lon="6.49031">
        <ele>1618.94140625</ele>
        <time>2019-06-12T12:36:53.109Z</time>
      </trkpt>
      <trkpt lat="44.20861" lon="6.49016">
        <ele>1618.859375</ele>
        <time>2019-06-12T12:36:55.583Z</time>
      </trkpt>
      <trkpt lat="44.20868" lon="6.49003">
        <ele>1618.41015625</ele>
        <time>2019-06-12T12:36:57.764Z</time>
      </trkpt>
      <trkpt lat="44.2088" lon="6.48986">
        <ele>1616.30078125</ele>
        <time>2019-06-12T12:37:01.350Z</time>
      </trkpt>
      <trkpt lat="44.20888" lon="6.4897">
        <ele>1615.8515625</ele>
        <time>2019-06-12T12:37:04.101Z</time>
      </trkpt>
      <trkpt lat="44.20899" lon="6.48961">
        <ele>1612.67578125</ele>
        <time>2019-06-12T12:37:06.662Z</time>
      </trkpt>
      <trkpt lat="44.2091" lon="6.4895">
        <ele>1610.21875</ele>
        <time>2019-06-12T12:37:09.301Z</time>
      </trkpt>
      <trkpt lat="44.20916" lon="6.48932">
        <ele>1610.6171875</ele>
        <time>2019-06-12T12:37:12.150Z</time>
      </trkpt>
      <trkpt lat="44.20927" lon="6.48893">
        <ele>1612.77734375</ele>
        <time>2019-06-12T12:37:18.173Z</time>
      </trkpt>
      <trkpt lat="44.20936" lon="6.48901">
        <ele>1607.40234375</ele>
        <time>2019-06-12T12:37:20.266Z</time>
      </trkpt>
      <trkpt lat="44.20932" lon="6.4891">
        <ele>1607.5</ele>
        <time>2019-06-12T12:37:21.707Z</time>
      </trkpt>
      <trkpt lat="44.20926" lon="6.48924">
        <ele>1607.4921875</ele>
        <time>2019-06-12T12:37:24.133Z</time>
      </trkpt>
      <trkpt lat="44.20921" lon="6.48943">
        <ele>1606.578125</ele>
        <time>2019-06-12T12:37:27.021Z</time>
      </trkpt>
      <trkpt lat="44.20917" lon="6.48963">
        <ele>1604.4453125</ele>
        <time>2019-06-12T12:37:29.954Z</time>
      </trkpt>
      <trkpt lat="44.20914" lon="6.48976">
        <ele>1603.23046875</ele>
        <time>2019-06-12T12:37:31.953Z</time>
      </trkpt>
      <trkpt lat="44.2091" lon="6.48986">
        <ele>1602.89453125</ele>
        <time>2019-06-12T12:37:33.558Z</time>
      </trkpt>
      <trkpt lat="44.20902" lon="6.49">
        <ele>1603.7421875</ele>
        <time>2019-06-12T12:37:36.159Z</time>
      </trkpt>
      <trkpt lat="44.2089" lon="6.49014">
        <ele>1606.0390625</ele>
        <time>2019-06-12T12:37:39.210Z</time>
      </trkpt>
      <trkpt lat="44.20886" lon="6.49032">
        <ele>1604.47265625</ele>
        <time>2019-06-12T12:37:41.961Z</time>
      </trkpt>
      <trkpt lat="44.20879" lon="6.49044">
        <ele>1604.92578125</ele>
        <time>2019-06-12T12:37:44.132Z</time>
      </trkpt>
      <trkpt lat="44.20876" lon="6.49065">
        <ele>1602.44140625</ele>
        <time>2019-06-12T12:37:47.214Z</time>
      </trkpt>
      <trkpt lat="44.20874" lon="6.49084">
        <ele>1599.61328125</ele>
        <time>2019-06-12T12:37:50.012Z</time>
      </trkpt>
      <trkpt lat="44.20869" lon="6.49107">
        <ele>1597.34375</ele>
        <time>2019-06-12T12:37:53.407Z</time>
      </trkpt>
      <trkpt lat="44.20873" lon="6.4912">
        <ele>1592.66796875</ele>
        <time>2019-06-12T12:37:55.400Z</time>
      </trkpt>
      <trkpt lat="44.20879" lon="6.49133">
        <ele>1586.9453125</ele>
        <time>2019-06-12T12:37:57.691Z</time>
      </trkpt>
      <trkpt lat="44.2089" lon="6.49137">
        <ele>1581.28515625</ele>
        <time>2019-06-12T12:37:59.997Z</time>
      </trkpt>
      <trkpt lat="44.20905" lon="6.49127">
        <ele>1577.01171875</ele>
        <time>2019-06-12T12:38:03.188Z</time>
      </trkpt>
      <trkpt lat="44.20914" lon="6.49103">
        <ele>1576.98046875</ele>
        <time>2019-06-12T12:38:07.194Z</time>
      </trkpt>
      <trkpt lat="44.20927" lon="6.49071">
        <ele>1577.61328125</ele>
        <time>2019-06-12T12:38:12.392Z</time>
      </trkpt>
      <trkpt lat="44.20934" lon="6.49052">
        <ele>1578.28125</ele>
        <time>2019-06-12T12:38:15.469Z</time>
      </trkpt>
      <trkpt lat="44.20942" lon="6.49033">
        <ele>1578.23828125</ele>
        <time>2019-06-12T12:38:18.616Z</time>
      </trkpt>
      <trkpt lat="44.20952" lon="6.49011">
        <ele>1578.30859375</ele>
        <time>2019-06-12T12:38:22.279Z</time>
      </trkpt>
      <trkpt lat="44.20965" lon="6.48991">
        <ele>1576.09375</ele>
        <time>2019-06-12T12:38:26.244Z</time>
      </trkpt>
      <trkpt lat="44.20975" lon="6.48977">
        <ele>1574.83984375</ele>
        <time>2019-06-12T12:38:28.999Z</time>
      </trkpt>
      <trkpt lat="44.20992" lon="6.48955">
        <ele>1571.890625</ele>
        <time>2019-06-12T12:38:33.719Z</time>
      </trkpt>
      <trkpt lat="44.21003" lon="6.48943">
        <ele>1570.2109375</ele>
        <time>2019-06-12T12:38:36.495Z</time>
      </trkpt>
      <trkpt lat="44.21015" lon="6.48959">
        <ele>1561.4609375</ele>
        <time>2019-06-12T12:38:39.853Z</time>
      </trkpt>
      <trkpt lat="44.21025" lon="6.48964">
        <ele>1555.7265625</ele>
        <time>2019-06-12T12:38:42.086Z</time>
      </trkpt>
      <trkpt lat="44.21026" lon="6.48966">
        <ele>1555.01171875</ele>
        <time>2019-06-12T12:38:42.362Z</time>
      </trkpt>
      <trkpt lat="44.21018" lon="6.48984">
        <ele>1554.4609375</ele>
        <time>2019-06-12T12:38:45.421Z</time>
      </trkpt>
      <trkpt lat="44.21012" lon="6.48997">
        <ele>1554.27734375</ele>
        <time>2019-06-12T12:38:47.638Z</time>
      </trkpt>
      <trkpt lat="44.21003" lon="6.49006">
        <ele>1556.35546875</ele>
        <time>2019-06-12T12:38:49.905Z</time>
      </trkpt>
      <trkpt lat="44.20994" lon="6.49019">
        <ele>1557.74609375</ele>
        <time>2019-06-12T12:38:52.423Z</time>
      </trkpt>
      <trkpt lat="44.2099" lon="6.4905">
        <ele>1553.40625</ele>
        <time>2019-06-12T12:38:57.003Z</time>
      </trkpt>
      <trkpt lat="44.20987" lon="6.49074">
        <ele>1550.45703125</ele>
        <time>2019-06-12T12:39:00.502Z</time>
      </trkpt>
      <trkpt lat="44.2098" lon="6.49097">
        <ele>1549.9140625</ele>
        <time>2019-06-12T12:39:04.089Z</time>
      </trkpt>
      <trkpt lat="44.20974" lon="6.49114">
        <ele>1549.6171875</ele>
        <time>2019-06-12T12:39:06.821Z</time>
      </trkpt>
      <trkpt lat="44.20965" lon="6.4913">
        <ele>1550.42578125</ele>
        <time>2019-06-12T12:39:09.786Z</time>
      </trkpt>
      <trkpt lat="44.20954" lon="6.49148">
        <ele>1551.6875</ele>
        <time>2019-06-12T12:39:13.132Z</time>
      </trkpt>
      <trkpt lat="44.20943" lon="6.49171">
        <ele>1552.24609375</ele>
        <time>2019-06-12T12:39:17.104Z</time>
      </trkpt>
      <trkpt lat="44.20932" lon="6.49183">
        <ele>1554.18359375</ele>
        <time>2019-06-12T12:39:19.880Z</time>
      </trkpt>
      <trkpt lat="44.20919" lon="6.49199">
        <ele>1556.109375</ele>
        <time>2019-06-12T12:39:23.200Z</time>
      </trkpt>
      <trkpt lat="44.20908" lon="6.49223">
        <ele>1554.35546875</ele>
        <time>2019-06-12T12:39:27.431Z</time>
      </trkpt>
      <trkpt lat="44.209" lon="6.49232">
        <ele>1554.76171875</ele>
        <time>2019-06-12T12:39:29.466Z</time>
      </trkpt>
      <trkpt lat="44.20892" lon="6.49245">
        <ele>1553.7421875</ele>
        <time>2019-06-12T12:39:31.970Z</time>
      </trkpt>
      <trkpt lat="44.20884" lon="6.49256">
        <ele>1553.35546875</ele>
        <time>2019-06-12T12:39:34.255Z</time>
      </trkpt>
      <trkpt lat="44.20875" lon="6.49271">
        <ele>1552.265625</ele>
        <time>2019-06-12T12:39:36.917Z</time>
      </trkpt>
      <trkpt lat="44.20873" lon="6.49289">
        <ele>1546.3046875</ele>
        <time>2019-06-12T12:39:39.624Z</time>
      </trkpt>
      <trkpt lat="44.20874" lon="6.49294">
        <ele>1544.0625</ele>
        <time>2019-06-12T12:39:40.367Z</time>
      </trkpt>
      <trkpt lat="44.20878" lon="6.49288">
        <ele>1544.66796875</ele>
        <time>2019-06-12T12:39:41.484Z</time>
      </trkpt>
      <trkpt lat="44.20888" lon="6.49283">
        <ele>1542.80859375</ele>
        <time>2019-06-12T12:39:43.568Z</time>
      </trkpt>
      <trkpt lat="44.20902" lon="6.49274">
        <ele>1541.00390625</ele>
        <time>2019-06-12T12:39:46.652Z</time>
      </trkpt>
      <trkpt lat="44.20918" lon="6.49262">
        <ele>1538.46875</ele>
        <time>2019-06-12T12:39:50.375Z</time>
      </trkpt>
      <trkpt lat="44.20932" lon="6.49247">
        <ele>1537.64453125</ele>
        <time>2019-06-12T12:39:53.836Z</time>
      </trkpt>
      <trkpt lat="44.20943" lon="6.49241">
        <ele>1535.28125</ele>
        <time>2019-06-12T12:39:56.137Z</time>
      </trkpt>
      <trkpt lat="44.20962" lon="6.49225">
        <ele>1531.27734375</ele>
        <time>2019-06-12T12:40:00.729Z</time>
      </trkpt>
      <trkpt lat="44.20969" lon="6.49196">
        <ele>1534.91015625</ele>
        <time>2019-06-12T12:40:05.042Z</time>
      </trkpt>
      <trkpt lat="44.20973" lon="6.49186">
        <ele>1535.13671875</ele>
        <time>2019-06-12T12:40:06.714Z</time>
      </trkpt>
      <trkpt lat="44.2098" lon="6.49176">
        <ele>1533.95703125</ele>
        <time>2019-06-12T12:40:08.723Z</time>
      </trkpt>
      <trkpt lat="44.20987" lon="6.49163">
        <ele>1532.9609375</ele>
        <time>2019-06-12T12:40:10.989Z</time>
      </trkpt>
      <trkpt lat="44.20997" lon="6.49149">
        <ele>1530.453125</ele>
        <time>2019-06-12T12:40:13.875Z</time>
      </trkpt>
      <trkpt lat="44.21004" lon="6.49135">
        <ele>1530.21484375</ele>
        <time>2019-06-12T12:40:16.269Z</time>
      </trkpt>
      <trkpt lat="44.21011" lon="6.49123">
        <ele>1529.16015625</ele>
        <time>2019-06-12T12:40:18.647Z</time>
      </trkpt>
      <trkpt lat="44.21017" lon="6.49105">
        <ele>1530.20703125</ele>
        <time>2019-06-12T12:40:21.396Z</time>
      </trkpt>
      <trkpt lat="44.21025" lon="6.49094">
        <ele>1528.72265625</ele>
        <time>2019-06-12T12:40:23.674Z</time>
      </trkpt>
      <trkpt lat="44.2103" lon="6.49078">
        <ele>1529.87109375</ele>
        <time>2019-06-12T12:40:26.234Z</time>
      </trkpt>
      <trkpt lat="44.21038" lon="6.49068">
        <ele>1528.04296875</ele>
        <time>2019-06-12T12:40:28.328Z</time>
      </trkpt>
      <trkpt lat="44.21039" lon="6.49078">
        <ele>1524.95703125</ele>
        <time>2019-06-12T12:40:29.842Z</time>
      </trkpt>
      <trkpt lat="44.21036" lon="6.49092">
        <ele>1523.80078125</ele>
        <time>2019-06-12T12:40:31.862Z</time>
      </trkpt>
      <trkpt lat="44.21036" lon="6.4911">
        <ele>1519.3984375</ele>
        <time>2019-06-12T12:40:34.545Z</time>
      </trkpt>
      <trkpt lat="44.21046" lon="6.49102">
        <ele>1515.8046875</ele>
        <time>2019-06-12T12:40:36.866Z</time>
      </trkpt>
      <trkpt lat="44.21053" lon="6.49088">
        <ele>1515.3359375</ele>
        <time>2019-06-12T12:40:39.376Z</time>
      </trkpt>
      <trkpt lat="44.21051" lon="6.49093">
        <ele>1515.234375</ele>
        <time>2019-06-12T12:40:40.263Z</time>
      </trkpt>
      <trkpt lat="44.2106" lon="6.49089">
        <ele>1511.0078125</ele>
        <time>2019-06-12T12:40:42.249Z</time>
      </trkpt>
      <trkpt lat="44.21068" lon="6.49079">
        <ele>1509.9140625</ele>
        <time>2019-06-12T12:40:44.394Z</time>
      </trkpt>
      <trkpt lat="44.21075" lon="6.49068">
        <ele>1509.15625</ele>
        <time>2019-06-12T12:40:46.535Z</time>
      </trkpt>
      <trkpt lat="44.21083" lon="6.49057">
        <ele>1509.22265625</ele>
        <time>2019-06-12T12:40:48.759Z</time>
      </trkpt>
      <trkpt lat="44.21082" lon="6.49063">
        <ele>1507.68359375</ele>
        <time>2019-06-12T12:40:49.634Z</time>
      </trkpt>
      <trkpt lat="44.21075" lon="6.49058">
        <ele>1512.50390625</ele>
        <time>2019-06-12T12:40:51.171Z</time>
      </trkpt>
      <trkpt lat="44.21075" lon="6.49045">
        <ele>1515.97265625</ele>
        <time>2019-06-12T12:40:53.093Z</time>
      </trkpt>
      <trkpt lat="44.21083" lon="6.49035">
        <ele>1514.28125</ele>
        <time>2019-06-12T12:40:55.117Z</time>
      </trkpt>
      <trkpt lat="44.21093" lon="6.49014">
        <ele>1513.23046875</ele>
        <time>2019-06-12T12:40:58.812Z</time>
      </trkpt>
      <trkpt lat="44.211" lon="6.49003">
        <ele>1512.34765625</ele>
        <time>2019-06-12T12:41:00.830Z</time>
      </trkpt>
      <trkpt lat="44.21107" lon="6.48989">
        <ele>1512.2734375</ele>
        <time>2019-06-12T12:41:03.342Z</time>
      </trkpt>
      <trkpt lat="44.21114" lon="6.48973">
        <ele>1512.12890625</ele>
        <time>2019-06-12T12:41:06.027Z</time>
      </trkpt>
      <trkpt lat="44.2112" lon="6.48953">
        <ele>1513.65234375</ele>
        <time>2019-06-12T12:41:09.119Z</time>
      </trkpt>
      <trkpt lat="44.21128" lon="6.48933">
        <ele>1514.12890625</ele>
        <time>2019-06-12T12:41:12.420Z</time>
      </trkpt>
      <trkpt lat="44.21137" lon="6.48918">
        <ele>1513.66015625</ele>
        <time>2019-06-12T12:41:15.184Z</time>
      </trkpt>
      <trkpt lat="44.21146" lon="6.48908">
        <ele>1511.7421875</ele>
        <time>2019-06-12T12:41:17.580Z</time>
      </trkpt>
      <trkpt lat="44.21156" lon="6.48899">
        <ele>1509.83984375</ele>
        <time>2019-06-12T12:41:19.924Z</time>
      </trkpt>
      <trkpt lat="44.21166" lon="6.48891">
        <ele>1507.76171875</ele>
        <time>2019-06-12T12:41:22.137Z</time>
      </trkpt>
      <trkpt lat="44.21175" lon="6.48883">
        <ele>1505.82421875</ele>
        <time>2019-06-12T12:41:24.438Z</time>
      </trkpt>
      <trkpt lat="44.21186" lon="6.48875">
        <ele>1503.73828125</ele>
        <time>2019-06-12T12:41:26.818Z</time>
      </trkpt>
      <trkpt lat="44.21195" lon="6.48868">
        <ele>1502.07421875</ele>
        <time>2019-06-12T12:41:28.869Z</time>
      </trkpt>
      <trkpt lat="44.21201" lon="6.48873">
        <ele>1498.31640625</ele>
        <time>2019-06-12T12:41:30.323Z</time>
      </trkpt>
      <trkpt lat="44.21196" lon="6.48884">
        <ele>1497.515625</ele>
        <time>2019-06-12T12:41:32.214Z</time>
      </trkpt>
      <trkpt lat="44.21191" lon="6.48893">
        <ele>1497.203125</ele>
        <time>2019-06-12T12:41:33.932Z</time>
      </trkpt>
      <trkpt lat="44.21185" lon="6.48904">
        <ele>1497.1640625</ele>
        <time>2019-06-12T12:41:35.877Z</time>
      </trkpt>
      <trkpt lat="44.21178" lon="6.48915">
        <ele>1497.59765625</ele>
        <time>2019-06-12T12:41:37.989Z</time>
      </trkpt>
      <trkpt lat="44.21171" lon="6.48929">
        <ele>1497.109375</ele>
        <time>2019-06-12T12:41:40.343Z</time>
      </trkpt>
      <trkpt lat="44.21173" lon="6.48933">
        <ele>1495.2578125</ele>
        <time>2019-06-12T12:41:41.097Z</time>
      </trkpt>
      <trkpt lat="44.2118" lon="6.48923">
        <ele>1494.67578125</ele>
        <time>2019-06-12T12:41:43.051Z</time>
      </trkpt>
      <trkpt lat="44.21189" lon="6.48915">
        <ele>1493.03515625</ele>
        <time>2019-06-12T12:41:45.166Z</time>
      </trkpt>
      <trkpt lat="44.21197" lon="6.48907">
        <ele>1491.3828125</ele>
        <time>2019-06-12T12:41:47.204Z</time>
      </trkpt>
      <trkpt lat="44.21207" lon="6.48899">
        <ele>1489.69921875</ele>
        <time>2019-06-12T12:41:49.511Z</time>
      </trkpt>
      <trkpt lat="44.21216" lon="6.48891">
        <ele>1488.3359375</ele>
        <time>2019-06-12T12:41:51.543Z</time>
      </trkpt>
      <trkpt lat="44.21223" lon="6.48884">
        <ele>1486.99609375</ele>
        <time>2019-06-12T12:41:53.386Z</time>
      </trkpt>
      <trkpt lat="44.21233" lon="6.48876">
        <ele>1485.29296875</ele>
        <time>2019-06-12T12:41:55.673Z</time>
      </trkpt>
      <trkpt lat="44.21244" lon="6.48868">
        <ele>1483.1484375</ele>
        <time>2019-06-12T12:41:58.235Z</time>
      </trkpt>
      <trkpt lat="44.21254" lon="6.48857">
        <ele>1481.9921875</ele>
        <time>2019-06-12T12:42:00.712Z</time>
      </trkpt>
      <trkpt lat="44.21266" lon="6.48847">
        <ele>1480.38671875</ele>
        <time>2019-06-12T12:42:03.408Z</time>
      </trkpt>
      <trkpt lat="44.21276" lon="6.48837">
        <ele>1479.30078125</ele>
        <time>2019-06-12T12:42:05.932Z</time>
      </trkpt>
      <trkpt lat="44.21284" lon="6.48828">
        <ele>1478.36328125</ele>
        <time>2019-06-12T12:42:07.965Z</time>
      </trkpt>
      <trkpt lat="44.21291" lon="6.48813">
        <ele>1479.33203125</ele>
        <time>2019-06-12T12:42:10.445Z</time>
      </trkpt>
      <trkpt lat="44.21299" lon="6.48803">
        <ele>1478.79296875</ele>
        <time>2019-06-12T12:42:12.611Z</time>
      </trkpt>
      <trkpt lat="44.21309" lon="6.48792">
        <ele>1477.55078125</ele>
        <time>2019-06-12T12:42:15.273Z</time>
      </trkpt>
      <trkpt lat="44.21319" lon="6.4878">
        <ele>1476.4453125</ele>
        <time>2019-06-12T12:42:17.839Z</time>
      </trkpt>
      <trkpt lat="44.21326" lon="6.48767">
        <ele>1476.32421875</ele>
        <time>2019-06-12T12:42:20.200Z</time>
      </trkpt>
      <trkpt lat="44.21335" lon="6.48757">
        <ele>1474.9296875</ele>
        <time>2019-06-12T12:42:22.540Z</time>
      </trkpt>
      <trkpt lat="44.21345" lon="6.48749">
        <ele>1472.6640625</ele>
        <time>2019-06-12T12:42:24.795Z</time>
      </trkpt>
      <trkpt lat="44.21354" lon="6.48741">
        <ele>1470.81640625</ele>
        <time>2019-06-12T12:42:26.978Z</time>
      </trkpt>
      <trkpt lat="44.21362" lon="6.48729">
        <ele>1470.49609375</ele>
        <time>2019-06-12T12:42:29.189Z</time>
      </trkpt>
      <trkpt lat="44.21369" lon="6.48715">
        <ele>1470.2421875</ele>
        <time>2019-06-12T12:42:31.753Z</time>
      </trkpt>
      <trkpt lat="44.21377" lon="6.48699">
        <ele>1470.48828125</ele>
        <time>2019-06-12T12:42:34.478Z</time>
      </trkpt>
      <trkpt lat="44.21384" lon="6.48687">
        <ele>1470.01953125</ele>
        <time>2019-06-12T12:42:36.776Z</time>
      </trkpt>
      <trkpt lat="44.21391" lon="6.48673">
        <ele>1470.296875</ele>
        <time>2019-06-12T12:42:39.170Z</time>
      </trkpt>
      <trkpt lat="44.21397" lon="6.4866">
        <ele>1470.62890625</ele>
        <time>2019-06-12T12:42:41.393Z</time>
      </trkpt>
      <trkpt lat="44.21404" lon="6.48647">
        <ele>1469.64453125</ele>
        <time>2019-06-12T12:42:43.759Z</time>
      </trkpt>
      <trkpt lat="44.21412" lon="6.48635">
        <ele>1468.5078125</ele>
        <time>2019-06-12T12:42:46.057Z</time>
      </trkpt>
      <trkpt lat="44.2142" lon="6.48625">
        <ele>1467.55859375</ele>
        <time>2019-06-12T12:42:48.134Z</time>
      </trkpt>
      <trkpt lat="44.21427" lon="6.48614">
        <ele>1467.74609375</ele>
        <time>2019-06-12T12:42:50.312Z</time>
      </trkpt>
      <trkpt lat="44.21433" lon="6.486">
        <ele>1468.3828125</ele>
        <time>2019-06-12T12:42:52.645Z</time>
      </trkpt>
      <trkpt lat="44.21442" lon="6.48586">
        <ele>1468.19921875</ele>
        <time>2019-06-12T12:42:55.345Z</time>
      </trkpt>
      <trkpt lat="44.21451" lon="6.48574">
        <ele>1467.3671875</ele>
        <time>2019-06-12T12:42:57.781Z</time>
      </trkpt>
      <trkpt lat="44.21458" lon="6.48562">
        <ele>1467.328125</ele>
        <time>2019-06-12T12:43:00.075Z</time>
      </trkpt>
      <trkpt lat="44.21466" lon="6.48549">
        <ele>1466.95703125</ele>
        <time>2019-06-12T12:43:02.456Z</time>
      </trkpt>
      <trkpt lat="44.2147" lon="6.48563">
        <ele>1462.0078125</ele>
        <time>2019-06-12T12:43:04.552Z</time>
      </trkpt>
      <trkpt lat="44.21484" lon="6.48568">
        <ele>1455.3828125</ele>
        <time>2019-06-12T12:43:07.420Z</time>
      </trkpt>
      <trkpt lat="44.21495" lon="6.48575">
        <ele>1449.55078125</ele>
        <time>2019-06-12T12:43:09.821Z</time>
      </trkpt>
      <trkpt lat="44.21508" lon="6.4858">
        <ele>1443.08984375</ele>
        <time>2019-06-12T12:43:12.570Z</time>
      </trkpt>
      <trkpt lat="44.21522" lon="6.48575">
        <ele>1438.796875</ele>
        <time>2019-06-12T12:43:15.445Z</time>
      </trkpt>
      <trkpt lat="44.21539" lon="6.48573">
        <ele>1432.2734375</ele>
        <time>2019-06-12T12:43:18.791Z</time>
      </trkpt>
      <trkpt lat="44.21547" lon="6.48583">
        <ele>1425.50390625</ele>
        <time>2019-06-12T12:43:20.951Z</time>
      </trkpt>
      <trkpt lat="44.21554" lon="6.48606">
        <ele>1414.9765625</ele>
        <time>2019-06-12T12:43:24.595Z</time>
      </trkpt>
      <trkpt lat="44.21566" lon="6.4862">
        <ele>1405.125</ele>
        <time>2019-06-12T12:43:27.745Z</time>
      </trkpt>
      <trkpt lat="44.21576" lon="6.48634">
        <ele>1396.65625</ele>
        <time>2019-06-12T12:43:30.448Z</time>
      </trkpt>
      <trkpt lat="44.2159" lon="6.48633">
        <ele>1390.42578125</ele>
        <time>2019-06-12T12:43:33.293Z</time>
      </trkpt>
      <trkpt lat="44.21611" lon="6.48615">
        <ele>1386.55078125</ele>
        <time>2019-06-12T12:43:38.255Z</time>
      </trkpt>
      <trkpt lat="44.21626" lon="6.48594">
        <ele>1385.43359375</ele>
        <time>2019-06-12T12:43:42.454Z</time>
      </trkpt>
      <trkpt lat="44.21634" lon="6.4858">
        <ele>1384.6953125</ele>
        <time>2019-06-12T12:43:45.049Z</time>
      </trkpt>
      <trkpt lat="44.21642" lon="6.48569">
        <ele>1384.0859375</ele>
        <time>2019-06-12T12:43:47.310Z</time>
      </trkpt>
      <trkpt lat="44.21648" lon="6.48558">
        <ele>1384.390625</ele>
        <time>2019-06-12T12:43:49.281Z</time>
      </trkpt>
      <trkpt lat="44.21655" lon="6.48548">
        <ele>1383.98046875</ele>
        <time>2019-06-12T12:43:51.297Z</time>
      </trkpt>
      <trkpt lat="44.21659" lon="6.48533">
        <ele>1384.83984375</ele>
        <time>2019-06-12T12:43:53.613Z</time>
      </trkpt>
      <trkpt lat="44.21663" lon="6.48518">
        <ele>1386.00390625</ele>
        <time>2019-06-12T12:43:55.822Z</time>
      </trkpt>
      <trkpt lat="44.21668" lon="6.48506">
        <ele>1386.16015625</ele>
        <time>2019-06-12T12:43:57.824Z</time>
      </trkpt>
      <trkpt lat="44.21675" lon="6.48496">
        <ele>1385.42578125</ele>
        <time>2019-06-12T12:43:59.881Z</time>
      </trkpt>
      <trkpt lat="44.21681" lon="6.48486">
        <ele>1384.85546875</ele>
        <time>2019-06-12T12:44:01.709Z</time>
      </trkpt>
      <trkpt lat="44.21685" lon="6.48479">
        <ele>1384.3203125</ele>
        <time>2019-06-12T12:44:03.010Z</time>
      </trkpt>
      <trkpt lat="44.21691" lon="6.48471">
        <ele>1383.0859375</ele>
        <time>2019-06-12T12:44:04.758Z</time>
      </trkpt>
      <trkpt lat="44.21699" lon="6.48463">
        <ele>1382.66015625</ele>
        <time>2019-06-12T12:44:06.651Z</time>
      </trkpt>
      <trkpt lat="44.21706" lon="6.48456">
        <ele>1382.97265625</ele>
        <time>2019-06-12T12:44:08.502Z</time>
      </trkpt>
      <trkpt lat="44.21713" lon="6.48446">
        <ele>1383.74609375</ele>
        <time>2019-06-12T12:44:10.382Z</time>
      </trkpt>
      <trkpt lat="44.21719" lon="6.48436">
        <ele>1384.57421875</ele>
        <time>2019-06-12T12:44:12.172Z</time>
      </trkpt>
      <trkpt lat="44.21726" lon="6.48428">
        <ele>1385.13671875</ele>
        <time>2019-06-12T12:44:14.091Z</time>
      </trkpt>
      <trkpt lat="44.21733" lon="6.48419">
        <ele>1385.5859375</ele>
        <time>2019-06-12T12:44:16.015Z</time>
      </trkpt>
      <trkpt lat="44.21739" lon="6.4841">
        <ele>1385.9375</ele>
        <time>2019-06-12T12:44:17.790Z</time>
      </trkpt>
      <trkpt lat="44.2175" lon="6.484">
        <ele>1385.53515625</ele>
        <time>2019-06-12T12:44:20.398Z</time>
      </trkpt>
      <trkpt lat="44.21758" lon="6.48391">
        <ele>1385.69140625</ele>
        <time>2019-06-12T12:44:22.508Z</time>
      </trkpt>
      <trkpt lat="44.21768" lon="6.48379">
        <ele>1385.5859375</ele>
        <time>2019-06-12T12:44:25.054Z</time>
      </trkpt>
      <trkpt lat="44.21773" lon="6.48365">
        <ele>1385.48046875</ele>
        <time>2019-06-12T12:44:27.319Z</time>
      </trkpt>
      <trkpt lat="44.2178" lon="6.48354">
        <ele>1385.09765625</ele>
        <time>2019-06-12T12:44:29.351Z</time>
      </trkpt>
      <trkpt lat="44.21788" lon="6.48348">
        <ele>1384.26953125</ele>
        <time>2019-06-12T12:44:31.159Z</time>
      </trkpt>
      <trkpt lat="44.21793" lon="6.48336">
        <ele>1383.7734375</ele>
        <time>2019-06-12T12:44:33.174Z</time>
      </trkpt>
      <trkpt lat="44.21801" lon="6.48327">
        <ele>1382.7578125</ele>
        <time>2019-06-12T12:44:35.163Z</time>
      </trkpt>
      <trkpt lat="44.21809" lon="6.48321">
        <ele>1381.95703125</ele>
        <time>2019-06-12T12:44:37.027Z</time>
      </trkpt>
      <trkpt lat="44.21817" lon="6.48312">
        <ele>1381.56640625</ele>
        <time>2019-06-12T12:44:39.065Z</time>
      </trkpt>
      <trkpt lat="44.21825" lon="6.48306">
        <ele>1381.0625</ele>
        <time>2019-06-12T12:44:40.992Z</time>
      </trkpt>
      <trkpt lat="44.21835" lon="6.48301">
        <ele>1380.3984375</ele>
        <time>2019-06-12T12:44:43.051Z</time>
      </trkpt>
      <trkpt lat="44.21842" lon="6.48295">
        <ele>1379.890625</ele>
        <time>2019-06-12T12:44:44.684Z</time>
      </trkpt>
      <trkpt lat="44.21848" lon="6.48285">
        <ele>1379.3203125</ele>
        <time>2019-06-12T12:44:46.577Z</time>
      </trkpt>
      <trkpt lat="44.21858" lon="6.48276">
        <ele>1378.3984375</ele>
        <time>2019-06-12T12:44:48.900Z</time>
      </trkpt>
      <trkpt lat="44.21863" lon="6.48267">
        <ele>1377.34765625</ele>
        <time>2019-06-12T12:44:50.614Z</time>
      </trkpt>
      <trkpt lat="44.21869" lon="6.48255">
        <ele>1375.44921875</ele>
        <time>2019-06-12T12:44:52.729Z</time>
      </trkpt>
      <trkpt lat="44.21876" lon="6.48241">
        <ele>1373.25390625</ele>
        <time>2019-06-12T12:44:55.110Z</time>
      </trkpt>
      <trkpt lat="44.21884" lon="6.48231">
        <ele>1371.078125</ele>
        <time>2019-06-12T12:44:57.284Z</time>
      </trkpt>
      <trkpt lat="44.21891" lon="6.48219">
        <ele>1368.83203125</ele>
        <time>2019-06-12T12:44:59.538Z</time>
      </trkpt>
      <trkpt lat="44.219" lon="6.4821">
        <ele>1366.671875</ele>
        <time>2019-06-12T12:45:01.667Z</time>
      </trkpt>
      <trkpt lat="44.21909" lon="6.48201">
        <ele>1364.3125</ele>
        <time>2019-06-12T12:45:03.956Z</time>
      </trkpt>
      <trkpt lat="44.21919" lon="6.48192">
        <ele>1361.890625</ele>
        <time>2019-06-12T12:45:06.280Z</time>
      </trkpt>
      <trkpt lat="44.21923" lon="6.48178">
        <ele>1360.125</ele>
        <time>2019-06-12T12:45:08.410Z</time>
      </trkpt>
      <trkpt lat="44.21936" lon="6.4817">
        <ele>1356.984375</ele>
        <time>2019-06-12T12:45:11.264Z</time>
      </trkpt>
      <trkpt lat="44.21947" lon="6.48162">
        <ele>1354.08984375</ele>
        <time>2019-06-12T12:45:13.834Z</time>
      </trkpt>
      <trkpt lat="44.21956" lon="6.48153">
        <ele>1351.984375</ele>
        <time>2019-06-12T12:45:16.013Z</time>
      </trkpt>
      <trkpt lat="44.21965" lon="6.48149">
        <ele>1350.0625</ele>
        <time>2019-06-12T12:45:17.891Z</time>
      </trkpt>
      <trkpt lat="44.21976" lon="6.48143">
        <ele>1347.77734375</ele>
        <time>2019-06-12T12:45:20.307Z</time>
      </trkpt>
      <trkpt lat="44.2199" lon="6.48143">
        <ele>1345.71484375</ele>
        <time>2019-06-12T12:45:23.084Z</time>
      </trkpt>
      <trkpt lat="44.22001" lon="6.48141">
        <ele>1344.07421875</ele>
        <time>2019-06-12T12:45:25.178Z</time>
      </trkpt>
      <trkpt lat="44.22011" lon="6.4814">
        <ele>1342.43359375</ele>
        <time>2019-06-12T12:45:27.285Z</time>
      </trkpt>
      <trkpt lat="44.2202" lon="6.48136">
        <ele>1340.7890625</ele>
        <time>2019-06-12T12:45:29.269Z</time>
      </trkpt>
      <trkpt lat="44.22029" lon="6.48136">
        <ele>1339.55078125</ele>
        <time>2019-06-12T12:45:31.061Z</time>
      </trkpt>
      <trkpt lat="44.2204" lon="6.48134">
        <ele>1338.7890625</ele>
        <time>2019-06-12T12:45:33.205Z</time>
      </trkpt>
      <trkpt lat="44.22048" lon="6.48127">
        <ele>1337.84765625</ele>
        <time>2019-06-12T12:45:35.128Z</time>
      </trkpt>
      <trkpt lat="44.22056" lon="6.48121">
        <ele>1336.9609375</ele>
        <time>2019-06-12T12:45:36.946Z</time>
      </trkpt>
      <trkpt lat="44.22066" lon="6.48115">
        <ele>1335.9296875</ele>
        <time>2019-06-12T12:45:38.992Z</time>
      </trkpt>
      <trkpt lat="44.22074" lon="6.4811">
        <ele>1335.015625</ele>
        <time>2019-06-12T12:45:40.879Z</time>
      </trkpt>
      <trkpt lat="44.22084" lon="6.48105">
        <ele>1333.98046875</ele>
        <time>2019-06-12T12:45:42.962Z</time>
      </trkpt>
      <trkpt lat="44.22095" lon="6.48097">
        <ele>1332.83203125</ele>
        <time>2019-06-12T12:45:45.448Z</time>
      </trkpt>
      <trkpt lat="44.22107" lon="6.48094">
        <ele>1331.921875</ele>
        <time>2019-06-12T12:45:47.935Z</time>
      </trkpt>
      <trkpt lat="44.22118" lon="6.48093">
        <ele>1331.1875</ele>
        <time>2019-06-12T12:45:50.156Z</time>
      </trkpt>
      <trkpt lat="44.22127" lon="6.48091">
        <ele>1330.4375</ele>
        <time>2019-06-12T12:45:51.847Z</time>
      </trkpt>
      <trkpt lat="44.22137" lon="6.48086">
        <ele>1329.0546875</ele>
        <time>2019-06-12T12:45:53.976Z</time>
      </trkpt>
      <trkpt lat="44.22145" lon="6.48084">
        <ele>1328.015625</ele>
        <time>2019-06-12T12:45:55.559Z</time>
      </trkpt>
      <trkpt lat="44.22151" lon="6.48074">
        <ele>1325.77734375</ele>
        <time>2019-06-12T12:45:57.543Z</time>
      </trkpt>
      <trkpt lat="44.22159" lon="6.48068">
        <ele>1324.203125</ele>
        <time>2019-06-12T12:45:59.258Z</time>
      </trkpt>
      <trkpt lat="44.22168" lon="6.48061">
        <ele>1322.4140625</ele>
        <time>2019-06-12T12:46:01.443Z</time>
      </trkpt>
      <trkpt lat="44.22178" lon="6.48056">
        <ele>1320.94921875</ele>
        <time>2019-06-12T12:46:03.588Z</time>
      </trkpt>
      <trkpt lat="44.22189" lon="6.48053">
        <ele>1319.81640625</ele>
        <time>2019-06-12T12:46:05.656Z</time>
      </trkpt>
      <trkpt lat="44.22197" lon="6.48049">
        <ele>1318.34765625</ele>
        <time>2019-06-12T12:46:07.503Z</time>
      </trkpt>
      <trkpt lat="44.22208" lon="6.48047">
        <ele>1315.87890625</ele>
        <time>2019-06-12T12:46:09.725Z</time>
      </trkpt>
      <trkpt lat="44.22217" lon="6.48045">
        <ele>1313.84765625</ele>
        <time>2019-06-12T12:46:11.575Z</time>
      </trkpt>
      <trkpt lat="44.22225" lon="6.48041">
        <ele>1312.16796875</ele>
        <time>2019-06-12T12:46:13.145Z</time>
      </trkpt>
      <trkpt lat="44.22236" lon="6.48039">
        <ele>1309.94140625</ele>
        <time>2019-06-12T12:46:15.300Z</time>
      </trkpt>
      <trkpt lat="44.22244" lon="6.48032">
        <ele>1308.08203125</ele>
        <time>2019-06-12T12:46:17.328Z</time>
      </trkpt>
      <trkpt lat="44.22251" lon="6.48025">
        <ele>1306.5625</ele>
        <time>2019-06-12T12:46:19.066Z</time>
      </trkpt>
      <trkpt lat="44.2226" lon="6.48016">
        <ele>1302.890625</ele>
        <time>2019-06-12T12:46:21.228Z</time>
      </trkpt>
      <trkpt lat="44.22267" lon="6.48006">
        <ele>1300.171875</ele>
        <time>2019-06-12T12:46:23.175Z</time>
      </trkpt>
      <trkpt lat="44.22275" lon="6.48001">
        <ele>1296.55078125</ele>
        <time>2019-06-12T12:46:25.054Z</time>
      </trkpt>
      <trkpt lat="44.22281" lon="6.47992">
        <ele>1294.56640625</ele>
        <time>2019-06-12T12:46:26.801Z</time>
      </trkpt>
      <trkpt lat="44.22288" lon="6.4798">
        <ele>1292.6640625</ele>
        <time>2019-06-12T12:46:29.001Z</time>
      </trkpt>
      <trkpt lat="44.22292" lon="6.47966">
        <ele>1292.125</ele>
        <time>2019-06-12T12:46:31.180Z</time>
      </trkpt>
      <trkpt lat="44.22298" lon="6.47953">
        <ele>1290.25</ele>
        <time>2019-06-12T12:46:33.362Z</time>
      </trkpt>
      <trkpt lat="44.22305" lon="6.47938">
        <ele>1288.5703125</ele>
        <time>2019-06-12T12:46:35.958Z</time>
      </trkpt>
      <trkpt lat="44.22312" lon="6.47924">
        <ele>1287.89453125</ele>
        <time>2019-06-12T12:46:38.369Z</time>
      </trkpt>
      <trkpt lat="44.22321" lon="6.4791">
        <ele>1286.34765625</ele>
        <time>2019-06-12T12:46:41.023Z</time>
      </trkpt>
      <trkpt lat="44.22329" lon="6.47901">
        <ele>1283.9140625</ele>
        <time>2019-06-12T12:46:43.167Z</time>
      </trkpt>
      <trkpt lat="44.22335" lon="6.4789">
        <ele>1282.640625</ele>
        <time>2019-06-12T12:46:45.155Z</time>
      </trkpt>
      <trkpt lat="44.22342" lon="6.47881">
        <ele>1280.55078125</ele>
        <time>2019-06-12T12:46:47.053Z</time>
      </trkpt>
      <trkpt lat="44.22351" lon="6.47864">
        <ele>1278.42578125</ele>
        <time>2019-06-12T12:46:50.027Z</time>
      </trkpt>
      <trkpt lat="44.22361" lon="6.47847">
        <ele>1275.59765625</ele>
        <time>2019-06-12T12:46:53.227Z</time>
      </trkpt>
      <trkpt lat="44.22365" lon="6.47838">
        <ele>1274.65234375</ele>
        <time>2019-06-12T12:46:54.708Z</time>
      </trkpt>
      <trkpt lat="44.22371" lon="6.47823">
        <ele>1272.78125</ele>
        <time>2019-06-12T12:46:57.259Z</time>
      </trkpt>
      <trkpt lat="44.22375" lon="6.47806">
        <ele>1271.2421875</ele>
        <time>2019-06-12T12:46:59.875Z</time>
      </trkpt>
      <trkpt lat="44.2238" lon="6.47788">
        <ele>1269.3671875</ele>
        <time>2019-06-12T12:47:02.618Z</time>
      </trkpt>
      <trkpt lat="44.22384" lon="6.47775">
        <ele>1267.83203125</ele>
        <time>2019-06-12T12:47:04.687Z</time>
      </trkpt>
      <trkpt lat="44.22388" lon="6.4776">
        <ele>1266.64453125</ele>
        <time>2019-06-12T12:47:06.815Z</time>
      </trkpt>
      <trkpt lat="44.22395" lon="6.47752">
        <ele>1263.16796875</ele>
        <time>2019-06-12T12:47:08.654Z</time>
      </trkpt>
      <trkpt lat="44.22401" lon="6.47739">
        <ele>1260.71484375</ele>
        <time>2019-06-12T12:47:10.905Z</time>
      </trkpt>
      <trkpt lat="44.22405" lon="6.47723">
        <ele>1259.28515625</ele>
        <time>2019-06-12T12:47:13.445Z</time>
      </trkpt>
      <trkpt lat="44.22401" lon="6.47711">
        <ele>1262.1015625</ele>
        <time>2019-06-12T12:47:15.315Z</time>
      </trkpt>
      <trkpt lat="44.22401" lon="6.47697">
        <ele>1263.15625</ele>
        <time>2019-06-12T12:47:17.234Z</time>
      </trkpt>
      <trkpt lat="44.22401" lon="6.47681">
        <ele>1264.44921875</ele>
        <time>2019-06-12T12:47:19.567Z</time>
      </trkpt>
      <trkpt lat="44.22406" lon="6.4767">
        <ele>1263.31640625</ele>
        <time>2019-06-12T12:47:21.483Z</time>
      </trkpt>
      <trkpt lat="44.22415" lon="6.47665">
        <ele>1260.36328125</ele>
        <time>2019-06-12T12:47:23.339Z</time>
      </trkpt>
      <trkpt lat="44.22416" lon="6.4765">
        <ele>1260.69140625</ele>
        <time>2019-06-12T12:47:25.460Z</time>
      </trkpt>
      <trkpt lat="44.22438" lon="6.47644">
        <ele>1254.08203125</ele>
        <time>2019-06-12T12:47:29.938Z</time>
      </trkpt>
      <trkpt lat="44.22451" lon="6.47636">
        <ele>1250.11328125</ele>
        <time>2019-06-12T12:47:32.824Z</time>
      </trkpt>
      <trkpt lat="44.2247" lon="6.47641">
        <ele>1244.015625</ele>
        <time>2019-06-12T12:47:36.623Z</time>
      </trkpt>
      <trkpt lat="44.22474" lon="6.47653">
        <ele>1242.3828125</ele>
        <time>2019-06-12T12:47:38.511Z</time>
      </trkpt>
      <trkpt lat="44.2247" lon="6.47666">
        <ele>1243.0546875</ele>
        <time>2019-06-12T12:47:40.602Z</time>
      </trkpt>
      <trkpt lat="44.22463" lon="6.47681">
        <ele>1242.91015625</ele>
        <time>2019-06-12T12:47:43.138Z</time>
      </trkpt>
      <trkpt lat="44.22459" lon="6.47695">
        <ele>1242.41015625</ele>
        <time>2019-06-12T12:47:45.259Z</time>
      </trkpt>
      <trkpt lat="44.22453" lon="6.47709">
        <ele>1242.5546875</ele>
        <time>2019-06-12T12:47:47.560Z</time>
      </trkpt>
      <trkpt lat="44.22442" lon="6.4772">
        <ele>1244.72265625</ele>
        <time>2019-06-12T12:47:50.241Z</time>
      </trkpt>
      <trkpt lat="44.2245" lon="6.47726">
        <ele>1241.375</ele>
        <time>2019-06-12T12:47:51.928Z</time>
      </trkpt>
      <trkpt lat="44.2246" lon="6.47723">
        <ele>1238.3203125</ele>
        <time>2019-06-12T12:47:53.987Z</time>
      </trkpt>
      <trkpt lat="44.22472" lon="6.47717">
        <ele>1235.0546875</ele>
        <time>2019-06-12T12:47:56.565Z</time>
      </trkpt>
      <trkpt lat="44.22487" lon="6.47708">
        <ele>1231.15234375</ele>
        <time>2019-06-12T12:47:59.797Z</time>
      </trkpt>
      <trkpt lat="44.22501" lon="6.47701">
        <ele>1227.1484375</ele>
        <time>2019-06-12T12:48:02.912Z</time>
      </trkpt>
      <trkpt lat="44.2251" lon="6.47688">
        <ele>1226.296875</ele>
        <time>2019-06-12T12:48:05.402Z</time>
      </trkpt>
      <trkpt lat="44.22515" lon="6.47675">
        <ele>1226.25390625</ele>
        <time>2019-06-12T12:48:07.661Z</time>
      </trkpt>
      <trkpt lat="44.22516" lon="6.47658">
        <ele>1227.97265625</ele>
        <time>2019-06-12T12:48:10.006Z</time>
      </trkpt>
      <trkpt lat="44.22513" lon="6.47638">
        <ele>1229.734375</ele>
        <time>2019-06-12T12:48:13.000Z</time>
      </trkpt>
      <trkpt lat="44.22519" lon="6.47624">
        <ele>1228.33203125</ele>
        <time>2019-06-12T12:48:15.321Z</time>
      </trkpt>
      <trkpt lat="44.22521" lon="6.47611">
        <ele>1228.02734375</ele>
        <time>2019-06-12T12:48:17.231Z</time>
      </trkpt>
      <trkpt lat="44.22519" lon="6.47596">
        <ele>1228.76953125</ele>
        <time>2019-06-12T12:48:19.360Z</time>
      </trkpt>
      <trkpt lat="44.22519" lon="6.47585">
        <ele>1228.58984375</ele>
        <time>2019-06-12T12:48:21.014Z</time>
      </trkpt>
      <trkpt lat="44.22518" lon="6.47568">
        <ele>1228.44140625</ele>
        <time>2019-06-12T12:48:23.350Z</time>
      </trkpt>
      <trkpt lat="44.22526" lon="6.47558">
        <ele>1225.73046875</ele>
        <time>2019-06-12T12:48:25.524Z</time>
      </trkpt>
      <trkpt lat="44.22536" lon="6.4755">
        <ele>1222.83984375</ele>
        <time>2019-06-12T12:48:27.894Z</time>
      </trkpt>
      <trkpt lat="44.22544" lon="6.47539">
        <ele>1221.2109375</ele>
        <time>2019-06-12T12:48:30.134Z</time>
      </trkpt>
      <trkpt lat="44.22555" lon="6.47529">
        <ele>1218.578125</ele>
        <time>2019-06-12T12:48:32.781Z</time>
      </trkpt>
      <trkpt lat="44.2257" lon="6.47519">
        <ele>1214.75390625</ele>
        <time>2019-06-12T12:48:36.045Z</time>
      </trkpt>
      <trkpt lat="44.22577" lon="6.47506">
        <ele>1212.703125</ele>
        <time>2019-06-12T12:48:38.430Z</time>
      </trkpt>
      <trkpt lat="44.22581" lon="6.47491">
        <ele>1211.703125</ele>
        <time>2019-06-12T12:48:40.739Z</time>
      </trkpt>
      <trkpt lat="44.22583" lon="6.47477">
        <ele>1211.58203125</ele>
        <time>2019-06-12T12:48:42.715Z</time>
      </trkpt>
      <trkpt lat="44.22588" lon="6.47466">
        <ele>1210.31640625</ele>
        <time>2019-06-12T12:48:44.585Z</time>
      </trkpt>
      <trkpt lat="44.22593" lon="6.47455">
        <ele>1209.08203125</ele>
        <time>2019-06-12T12:48:46.429Z</time>
      </trkpt>
      <trkpt lat="44.22596" lon="6.47445">
        <ele>1208.49609375</ele>
        <time>2019-06-12T12:48:47.968Z</time>
      </trkpt>
      <trkpt lat="44.22594" lon="6.4743">
        <ele>1209.89453125</ele>
        <time>2019-06-12T12:48:50.086Z</time>
      </trkpt>
      <trkpt lat="44.22596" lon="6.47418">
        <ele>1210.390625</ele>
        <time>2019-06-12T12:48:51.891Z</time>
      </trkpt>
      <trkpt lat="44.22599" lon="6.47402">
        <ele>1210.75</ele>
        <time>2019-06-12T12:48:54.223Z</time>
      </trkpt>
      <trkpt lat="44.22603" lon="6.47383">
        <ele>1210.734375</ele>
        <time>2019-06-12T12:48:57.063Z</time>
      </trkpt>
      <trkpt lat="44.22614" lon="6.47372">
        <ele>1208.10546875</ele>
        <time>2019-06-12T12:48:59.781Z</time>
      </trkpt>
      <trkpt lat="44.22621" lon="6.47357">
        <ele>1207.1171875</ele>
        <time>2019-06-12T12:49:02.317Z</time>
      </trkpt>
      <trkpt lat="44.22622" lon="6.4734">
        <ele>1208.03515625</ele>
        <time>2019-06-12T12:49:04.640Z</time>
      </trkpt>
      <trkpt lat="44.2263" lon="6.47329">
        <ele>1206.19140625</ele>
        <time>2019-06-12T12:49:06.952Z</time>
      </trkpt>
      <trkpt lat="44.22641" lon="6.47319">
        <ele>1202.83203125</ele>
        <time>2019-06-12T12:49:09.597Z</time>
      </trkpt>
      <trkpt lat="44.22649" lon="6.473">
        <ele>1201.57421875</ele>
        <time>2019-06-12T12:49:12.612Z</time>
      </trkpt>
      <trkpt lat="44.22657" lon="6.47283">
        <ele>1199.89453125</ele>
        <time>2019-06-12T12:49:15.590Z</time>
      </trkpt>
      <trkpt lat="44.22664" lon="6.47267">
        <ele>1197.86328125</ele>
        <time>2019-06-12T12:49:18.380Z</time>
      </trkpt>
      <trkpt lat="44.22668" lon="6.47252">
        <ele>1196.83203125</ele>
        <time>2019-06-12T12:49:20.625Z</time>
      </trkpt>
      <trkpt lat="44.22676" lon="6.47241">
        <ele>1194.671875</ele>
        <time>2019-06-12T12:49:22.815Z</time>
      </trkpt>
      <trkpt lat="44.22673" lon="6.47229">
        <ele>1195.9921875</ele>
        <time>2019-06-12T12:49:24.633Z</time>
      </trkpt>
      <trkpt lat="44.22682" lon="6.47217">
        <ele>1193.23046875</ele>
        <time>2019-06-12T12:49:27.040Z</time>
      </trkpt>
      <trkpt lat="44.22686" lon="6.47201">
        <ele>1191.70703125</ele>
        <time>2019-06-12T12:49:29.548Z</time>
      </trkpt>
      <trkpt lat="44.22686" lon="6.47187">
        <ele>1191.21484375</ele>
        <time>2019-06-12T12:49:31.551Z</time>
      </trkpt>
      <trkpt lat="44.22688" lon="6.47171">
        <ele>1190.37890625</ele>
        <time>2019-06-12T12:49:33.885Z</time>
      </trkpt>
      <trkpt lat="44.22691" lon="6.4716">
        <ele>1189.125</ele>
        <time>2019-06-12T12:49:35.576Z</time>
      </trkpt>
      <trkpt lat="44.2269" lon="6.47146">
        <ele>1189.23828125</ele>
        <time>2019-06-12T12:49:37.555Z</time>
      </trkpt>
      <trkpt lat="44.22692" lon="6.47132">
        <ele>1188.41015625</ele>
        <time>2019-06-12T12:49:39.597Z</time>
      </trkpt>
      <trkpt lat="44.22694" lon="6.47116">
        <ele>1187.3828125</ele>
        <time>2019-06-12T12:49:41.926Z</time>
      </trkpt>
      <trkpt lat="44.22695" lon="6.47101">
        <ele>1186.90234375</ele>
        <time>2019-06-12T12:49:44.061Z</time>
      </trkpt>
      <trkpt lat="44.22708" lon="6.47092">
        <ele>1183.5546875</ele>
        <time>2019-06-12T12:49:46.944Z</time>
      </trkpt>
      <trkpt lat="44.22718" lon="6.47081">
        <ele>1181.06640625</ele>
        <time>2019-06-12T12:49:49.509Z</time>
      </trkpt>
      <trkpt lat="44.22739" lon="6.47071">
        <ele>1175.234375</ele>
        <time>2019-06-12T12:49:54.032Z</time>
      </trkpt>
      <trkpt lat="44.22761" lon="6.47068">
        <ele>1169.54296875</ele>
        <time>2019-06-12T12:49:58.451Z</time>
      </trkpt>
      <trkpt lat="44.22774" lon="6.47059">
        <ele>1166.58984375</ele>
        <time>2019-06-12T12:50:01.408Z</time>
      </trkpt>
      <trkpt lat="44.22791" lon="6.47052">
        <ele>1162.703125</ele>
        <time>2019-06-12T12:50:04.752Z</time>
      </trkpt>
      <trkpt lat="44.22795" lon="6.47038">
        <ele>1161.8046875</ele>
        <time>2019-06-12T12:50:06.959Z</time>
      </trkpt>
      <trkpt lat="44.22804" lon="6.47028">
        <ele>1159.6953125</ele>
        <time>2019-06-12T12:50:09.214Z</time>
      </trkpt>
      <trkpt lat="44.22814" lon="6.47017">
        <ele>1158.30078125</ele>
        <time>2019-06-12T12:50:11.845Z</time>
      </trkpt>
      <trkpt lat="44.22825" lon="6.47003">
        <ele>1156.55859375</ele>
        <time>2019-06-12T12:50:14.791Z</time>
      </trkpt>
      <trkpt lat="44.22824" lon="6.4699">
        <ele>1156.44921875</ele>
        <time>2019-06-12T12:50:16.686Z</time>
      </trkpt>
      <trkpt lat="44.22821" lon="6.46977">
        <ele>1156.45703125</ele>
        <time>2019-06-12T12:50:18.501Z</time>
      </trkpt>
      <trkpt lat="44.22826" lon="6.46967">
        <ele>1155.11328125</ele>
        <time>2019-06-12T12:50:20.262Z</time>
      </trkpt>
      <trkpt lat="44.22831" lon="6.46953">
        <ele>1153.33984375</ele>
        <time>2019-06-12T12:50:22.447Z</time>
      </trkpt>
      <trkpt lat="44.22835" lon="6.46942">
        <ele>1151.72265625</ele>
        <time>2019-06-12T12:50:24.299Z</time>
      </trkpt>
      <trkpt lat="44.22834" lon="6.46931">
        <ele>1151.4609375</ele>
        <time>2019-06-12T12:50:25.855Z</time>
      </trkpt>
      <trkpt lat="44.22834" lon="6.46919">
        <ele>1150.890625</ele>
        <time>2019-06-12T12:50:27.597Z</time>
      </trkpt>
      <trkpt lat="44.22832" lon="6.46902">
        <ele>1150.93359375</ele>
        <time>2019-06-12T12:50:30.037Z</time>
      </trkpt>
      <trkpt lat="44.22835" lon="6.46881">
        <ele>1149.40625</ele>
        <time>2019-06-12T12:50:33.117Z</time>
      </trkpt>
      <trkpt lat="44.22834" lon="6.46866">
        <ele>1148.97265625</ele>
        <time>2019-06-12T12:50:35.247Z</time>
      </trkpt>
      <trkpt lat="44.22834" lon="6.46852">
        <ele>1148.578125</ele>
        <time>2019-06-12T12:50:37.257Z</time>
      </trkpt>
      <trkpt lat="44.22833" lon="6.46839">
        <ele>1148.27734375</ele>
        <time>2019-06-12T12:50:39.154Z</time>
      </trkpt>
      <trkpt lat="44.22833" lon="6.46825">
        <ele>1148.02734375</ele>
        <time>2019-06-12T12:50:41.205Z</time>
      </trkpt>
      <trkpt lat="44.22833" lon="6.46811">
        <ele>1147.75390625</ele>
        <time>2019-06-12T12:50:43.089Z</time>
      </trkpt>
      <trkpt lat="44.22838" lon="6.46797">
        <ele>1146.1328125</ele>
        <time>2019-06-12T12:50:45.359Z</time>
      </trkpt>
      <trkpt lat="44.22846" lon="6.46782">
        <ele>1143.390625</ele>
        <time>2019-06-12T12:50:48.071Z</time>
      </trkpt>
      <trkpt lat="44.2286" lon="6.46765">
        <ele>1139.39453125</ele>
        <time>2019-06-12T12:50:51.792Z</time>
      </trkpt>
      <trkpt lat="44.22863" lon="6.46751">
        <ele>1139.1640625</ele>
        <time>2019-06-12T12:50:53.961Z</time>
      </trkpt>
      <trkpt lat="44.22867" lon="6.46737">
        <ele>1139.01171875</ele>
        <time>2019-06-12T12:50:56.130Z</time>
      </trkpt>
      <trkpt lat="44.22871" lon="6.46715">
        <ele>1138.890625</ele>
        <time>2019-06-12T12:50:59.270Z</time>
      </trkpt>
      <trkpt lat="44.22897" lon="6.467">
        <ele>1135.9296875</ele>
        <time>2019-06-12T12:51:04.825Z</time>
      </trkpt>
      <trkpt lat="44.22899" lon="6.46686">
        <ele>1135.515625</ele>
        <time>2019-06-12T12:51:06.851Z</time>
      </trkpt>
      <trkpt lat="44.22905" lon="6.46671">
        <ele>1134.18359375</ele>
        <time>2019-06-12T12:51:09.332Z</time>
      </trkpt>
      <trkpt lat="44.22915" lon="6.46657">
        <ele>1132.27734375</ele>
        <time>2019-06-12T12:51:12.177Z</time>
      </trkpt>
      <trkpt lat="44.22921" lon="6.46642">
        <ele>1132.046875</ele>
        <time>2019-06-12T12:51:14.622Z</time>
      </trkpt>
      <trkpt lat="44.22925" lon="6.46626">
        <ele>1131.90625</ele>
        <time>2019-06-12T12:51:17.061Z</time>
      </trkpt>
      <trkpt lat="44.22929" lon="6.46604">
        <ele>1131.53515625</ele>
        <time>2019-06-12T12:51:20.251Z</time>
      </trkpt>
      <trkpt lat="44.2293" lon="6.46585">
        <ele>1131.34375</ele>
        <time>2019-06-12T12:51:23.013Z</time>
      </trkpt>
      <trkpt lat="44.22931" lon="6.46568">
        <ele>1131.125</ele>
        <time>2019-06-12T12:51:25.424Z</time>
      </trkpt>
      <trkpt lat="44.22932" lon="6.46554">
        <ele>1130.80078125</ele>
        <time>2019-06-12T12:51:27.461Z</time>
      </trkpt>
      <trkpt lat="44.22939" lon="6.46537">
        <ele>1129.63671875</ele>
        <time>2019-06-12T12:51:30.315Z</time>
      </trkpt>
      <trkpt lat="44.22948" lon="6.46517">
        <ele>1127.9296875</ele>
        <time>2019-06-12T12:51:33.671Z</time>
      </trkpt>
      <trkpt lat="44.22956" lon="6.46499">
        <ele>1125.75</ele>
        <time>2019-06-12T12:51:36.823Z</time>
      </trkpt>
      <trkpt lat="44.2296" lon="6.46484">
        <ele>1124.421875</ele>
        <time>2019-06-12T12:51:38.977Z</time>
      </trkpt>
      <trkpt lat="44.22965" lon="6.46472">
        <ele>1122.71875</ele>
        <time>2019-06-12T12:51:41.106Z</time>
      </trkpt>
      <trkpt lat="44.22968" lon="6.46455">
        <ele>1121.41015625</ele>
        <time>2019-06-12T12:51:43.558Z</time>
      </trkpt>
      <trkpt lat="44.22972" lon="6.4644">
        <ele>1120</ele>
        <time>2019-06-12T12:51:45.919Z</time>
      </trkpt>
      <trkpt lat="44.22977" lon="6.46424">
        <ele>1119.38671875</ele>
        <time>2019-06-12T12:51:48.360Z</time>
      </trkpt>
      <trkpt lat="44.22979" lon="6.46408">
        <ele>1118.69140625</ele>
        <time>2019-06-12T12:51:50.759Z</time>
      </trkpt>
      <trkpt lat="44.22988" lon="6.46392">
        <ele>1117.80859375</ele>
        <time>2019-06-12T12:51:53.519Z</time>
      </trkpt>
      <trkpt lat="44.22996" lon="6.46382">
        <ele>1117.078125</ele>
        <time>2019-06-12T12:51:55.783Z</time>
      </trkpt>
      <trkpt lat="44.23008" lon="6.46381">
        <ele>1116.6328125</ele>
        <time>2019-06-12T12:51:58.230Z</time>
      </trkpt>
      <trkpt lat="44.2302" lon="6.46382">
        <ele>1116.23828125</ele>
        <time>2019-06-12T12:52:00.494Z</time>
      </trkpt>
      <trkpt lat="44.23033" lon="6.46382">
        <ele>1116.359375</ele>
        <time>2019-06-12T12:52:03.165Z</time>
      </trkpt>
      <trkpt lat="44.23043" lon="6.4638">
        <ele>1116.94921875</ele>
        <time>2019-06-12T12:52:05.091Z</time>
      </trkpt>
      <trkpt lat="44.23052" lon="6.46366">
        <ele>1117.00390625</ele>
        <time>2019-06-12T12:52:07.717Z</time>
      </trkpt>
      <trkpt lat="44.23056" lon="6.4635">
        <ele>1116.51171875</ele>
        <time>2019-06-12T12:52:10.128Z</time>
      </trkpt>
      <trkpt lat="44.2306" lon="6.46337">
        <ele>1116.015625</ele>
        <time>2019-06-12T12:52:12.245Z</time>
      </trkpt>
      <trkpt lat="44.2307" lon="6.4633">
        <ele>1115.8359375</ele>
        <time>2019-06-12T12:52:14.513Z</time>
      </trkpt>
      <trkpt lat="44.23076" lon="6.46332">
        <ele>1116.0859375</ele>
        <time>2019-06-12T12:52:15.785Z</time>
      </trkpt>
      <trkpt lat="44.23079" lon="6.46339">
        <ele>1116.66015625</ele>
        <time>2019-06-12T12:52:17.009Z</time>
      </trkpt>
      <trkpt lat="44.23086" lon="6.46349">
        <ele>1117.69921875</ele>
        <time>2019-06-12T12:52:19.081Z</time>
      </trkpt>
      <trkpt lat="44.23091" lon="6.46361">
        <ele>1118.76953125</ele>
        <time>2019-06-12T12:52:20.959Z</time>
      </trkpt>
      <trkpt lat="44.23094" lon="6.46373">
        <ele>1119.8203125</ele>
        <time>2019-06-12T12:52:22.827Z</time>
      </trkpt>
      <trkpt lat="44.23096" lon="6.46387">
        <ele>1120.95703125</ele>
        <time>2019-06-12T12:52:24.799Z</time>
      </trkpt>
      <trkpt lat="44.23101" lon="6.46394">
        <ele>1121.90234375</ele>
        <time>2019-06-12T12:52:26.320Z</time>
      </trkpt>
      <trkpt lat="44.23111" lon="6.46387">
        <ele>1121.76171875</ele>
        <time>2019-06-12T12:52:28.407Z</time>
      </trkpt>
      <trkpt lat="44.23119" lon="6.46382">
        <ele>1121.80859375</ele>
        <time>2019-06-12T12:52:30.258Z</time>
      </trkpt>
      <trkpt lat="44.23128" lon="6.46374">
        <ele>1121.6875</ele>
        <time>2019-06-12T12:52:32.365Z</time>
      </trkpt>
      <trkpt lat="44.23137" lon="6.46376">
        <ele>1122.359375</ele>
        <time>2019-06-12T12:52:34.216Z</time>
      </trkpt>
      <trkpt lat="44.23142" lon="6.46387">
        <ele>1123.62890625</ele>
        <time>2019-06-12T12:52:36.122Z</time>
      </trkpt>
      <trkpt lat="44.23151" lon="6.46398">
        <ele>1125.26953125</ele>
        <time>2019-06-12T12:52:38.437Z</time>
      </trkpt>
      <trkpt lat="44.2316" lon="6.46408">
        <ele>1126.79296875</ele>
        <time>2019-06-12T12:52:40.790Z</time>
      </trkpt>
      <trkpt lat="44.23168" lon="6.46417">
        <ele>1127.98046875</ele>
        <time>2019-06-12T12:52:42.763Z</time>
      </trkpt>
      <trkpt lat="44.23176" lon="6.46426">
        <ele>1129.1484375</ele>
        <time>2019-06-12T12:52:44.890Z</time>
      </trkpt>
      <trkpt lat="44.23184" lon="6.46435">
        <ele>1130.1640625</ele>
        <time>2019-06-12T12:52:46.867Z</time>
      </trkpt>
      <trkpt lat="44.23177" lon="6.46444">
        <ele>1130.5</ele>
        <time>2019-06-12T12:52:48.795Z</time>
      </trkpt>
      <trkpt lat="44.23166" lon="6.4645">
        <ele>1130.61328125</ele>
        <time>2019-06-12T12:52:51.027Z</time>
      </trkpt>
      <trkpt lat="44.23154" lon="6.46454">
        <ele>1130.62890625</ele>
        <time>2019-06-12T12:52:53.476Z</time>
      </trkpt>
      <trkpt lat="44.23144" lon="6.4646">
        <ele>1131.0859375</ele>
        <time>2019-06-12T12:52:55.705Z</time>
      </trkpt>
      <trkpt lat="44.23133" lon="6.46463">
        <ele>1131.08203125</ele>
        <time>2019-06-12T12:52:57.890Z</time>
      </trkpt>
      <trkpt lat="44.23126" lon="6.46466">
        <ele>1131.109375</ele>
        <time>2019-06-12T12:52:59.511Z</time>
      </trkpt>
      <trkpt lat="44.23116" lon="6.4647">
        <ele>1131.1640625</ele>
        <time>2019-06-12T12:53:01.598Z</time>
      </trkpt>
      <trkpt lat="44.23107" lon="6.46472">
        <ele>1130.984375</ele>
        <time>2019-06-12T12:53:03.277Z</time>
      </trkpt>
      <trkpt lat="44.23099" lon="6.46476">
        <ele>1131.05078125</ele>
        <time>2019-06-12T12:53:05.093Z</time>
      </trkpt>
      <trkpt lat="44.23092" lon="6.46483">
        <ele>1131.72265625</ele>
        <time>2019-06-12T12:53:06.698Z</time>
      </trkpt>
      <trkpt lat="44.23088" lon="6.46494">
        <ele>1133.0546875</ele>
        <time>2019-06-12T12:53:08.568Z</time>
      </trkpt>
      <trkpt lat="44.23084" lon="6.46506">
        <ele>1135.04296875</ele>
        <time>2019-06-12T12:53:10.468Z</time>
      </trkpt>
      <trkpt lat="44.23081" lon="6.46519">
        <ele>1137.02734375</ele>
        <time>2019-06-12T12:53:12.405Z</time>
      </trkpt>
      <trkpt lat="44.23083" lon="6.46533">
        <ele>1139.78515625</ele>
        <time>2019-06-12T12:53:14.408Z</time>
      </trkpt>
      <trkpt lat="44.23088" lon="6.46542">
        <ele>1141.7578125</ele>
        <time>2019-06-12T12:53:16.109Z</time>
      </trkpt>
      <trkpt lat="44.23097" lon="6.46549">
        <ele>1143.3984375</ele>
        <time>2019-06-12T12:53:18.016Z</time>
      </trkpt>
      <trkpt lat="44.23107" lon="6.46555">
        <ele>1145.14453125</ele>
        <time>2019-06-12T12:53:20.292Z</time>
      </trkpt>
      <trkpt lat="44.23118" lon="6.46561">
        <ele>1146.89453125</ele>
        <time>2019-06-12T12:53:22.622Z</time>
      </trkpt>
      <trkpt lat="44.2313" lon="6.46568">
        <ele>1149.01953125</ele>
        <time>2019-06-12T12:53:25.220Z</time>
      </trkpt>
      <trkpt lat="44.2314" lon="6.46575">
        <ele>1150.65234375</ele>
        <time>2019-06-12T12:53:27.482Z</time>
      </trkpt>
      <trkpt lat="44.23152" lon="6.46582">
        <ele>1151.515625</ele>
        <time>2019-06-12T12:53:30.110Z</time>
      </trkpt>
      <trkpt lat="44.23165" lon="6.46585">
        <ele>1151.3515625</ele>
        <time>2019-06-12T12:53:32.761Z</time>
      </trkpt>
      <trkpt lat="44.23177" lon="6.46584">
        <ele>1150.59765625</ele>
        <time>2019-06-12T12:53:35.126Z</time>
      </trkpt>
      <trkpt lat="44.23186" lon="6.46587">
        <ele>1150.73828125</ele>
        <time>2019-06-12T12:53:36.999Z</time>
      </trkpt>
      <trkpt lat="44.23196" lon="6.46646">
        <ele>1159.3</ele>
      </trkpt>
    </trkseg>
  </trk>
</gpx>